<?xml version="1.0" encoding="UTF-8" standalone="no" ?>
<gpx xmlns="http://www.topografix.com/GPX/1/1" xmlns:xsi="http://www.w3.org/2001/XMLSchema-instance" xsi:schemaLocation="http://www.topografix.com/GPX/1/1 http://www.topografix.com/GPX/1/1/gpx.xsd" version="1.1" creator="VisuGPX - https://www.visugpx.com">
  <metadata>
    <name>Aveyron</name>
    <desc><![CDATA[9 jours de vélo dans l'Aveyron (et un peu du Lot)]]></desc>
  </metadata>
  <trk>
    <name><![CDATA[j9]]></name>
    <desc><![CDATA[comment ...]]></desc>
    <extensions>
      <line xmlns="http://www.topografix.com/GPX/gpx_style/0/2">
        <color>800000</color>
        <width>4</width>
      </line>
    </extensions>
    <trkseg>
      <trkpt lat="44.04921" lon="2.76391">
        <ele>355</ele>
        <time>2021-09-04T07:19:00Z</time>
      </trkpt>
      <trkpt lat="44.04946" lon="2.76367">
        <ele>436</ele>
        <time>2021-09-04T07:19:01Z</time>
      </trkpt>
      <trkpt lat="44.04955" lon="2.76371">
        <ele>447</ele>
        <time>2021-09-04T07:19:03Z</time>
      </trkpt>
      <trkpt lat="44.05141" lon="2.76071">
        <ele>322</ele>
        <time>2021-09-04T07:19:05Z</time>
      </trkpt>
      <trkpt lat="44.04962" lon="2.76307">
        <ele>526</ele>
        <time>2021-09-04T07:19:10Z</time>
      </trkpt>
      <trkpt lat="44.04953" lon="2.76293">
        <ele>630</ele>
        <time>2021-09-04T07:19:11Z</time>
      </trkpt>
      <trkpt lat="44.04985" lon="2.76386">
        <ele>550</ele>
        <time>2021-09-04T07:19:12Z</time>
      </trkpt>
      <trkpt lat="44.04953" lon="2.76345">
        <ele>162</ele>
        <time>2021-09-04T07:19:13Z</time>
      </trkpt>
      <trkpt lat="44.04954" lon="2.76354">
        <ele>166</ele>
        <time>2021-09-04T07:19:24Z</time>
      </trkpt>
      <trkpt lat="44.04949" lon="2.76358">
        <ele>194</ele>
        <time>2021-09-04T07:19:46Z</time>
      </trkpt>
      <trkpt lat="44.04944" lon="2.76357">
        <ele>202</ele>
        <time>2021-09-04T07:19:49Z</time>
      </trkpt>
      <trkpt lat="44.0494" lon="2.76354">
        <ele>208</ele>
        <time>2021-09-04T07:19:51Z</time>
      </trkpt>
      <trkpt lat="44.04937" lon="2.76349">
        <ele>211</ele>
        <time>2021-09-04T07:19:53Z</time>
      </trkpt>
      <trkpt lat="44.04934" lon="2.76341">
        <ele>217</ele>
        <time>2021-09-04T07:19:56Z</time>
      </trkpt>
      <trkpt lat="44.04931" lon="2.76334">
        <ele>222</ele>
        <time>2021-09-04T07:19:59Z</time>
      </trkpt>
      <trkpt lat="44.0492" lon="2.7633">
        <ele>234</ele>
        <time>2021-09-04T07:20:05Z</time>
      </trkpt>
      <trkpt lat="44.04917" lon="2.76335">
        <ele>240</ele>
        <time>2021-09-04T07:20:09Z</time>
      </trkpt>
      <trkpt lat="44.04915" lon="2.76342">
        <ele>242</ele>
        <time>2021-09-04T07:20:12Z</time>
      </trkpt>
      <trkpt lat="44.04918" lon="2.76348">
        <ele>243</ele>
        <time>2021-09-04T07:20:15Z</time>
      </trkpt>
      <trkpt lat="44.04937" lon="2.76369">
        <ele>250</ele>
        <time>2021-09-04T07:20:23Z</time>
      </trkpt>
      <trkpt lat="44.04943" lon="2.76374">
        <ele>253</ele>
        <time>2021-09-04T07:20:25Z</time>
      </trkpt>
      <trkpt lat="44.04949" lon="2.76379">
        <ele>257</ele>
        <time>2021-09-04T07:20:27Z</time>
      </trkpt>
      <trkpt lat="44.04956" lon="2.76383">
        <ele>259</ele>
        <time>2021-09-04T07:20:29Z</time>
      </trkpt>
      <trkpt lat="44.04962" lon="2.76387">
        <ele>262</ele>
        <time>2021-09-04T07:20:31Z</time>
      </trkpt>
      <trkpt lat="44.05003" lon="2.76411">
        <ele>271</ele>
        <time>2021-09-04T07:20:43Z</time>
      </trkpt>
      <trkpt lat="44.05065" lon="2.76437">
        <ele>275</ele>
        <time>2021-09-04T07:21:06Z</time>
      </trkpt>
      <trkpt lat="44.05102" lon="2.76443">
        <ele>281</ele>
        <time>2021-09-04T07:21:20Z</time>
      </trkpt>
      <trkpt lat="44.05122" lon="2.76448">
        <ele>284</ele>
        <time>2021-09-04T07:21:27Z</time>
      </trkpt>
      <trkpt lat="44.05243" lon="2.76471">
        <ele>278</ele>
        <time>2021-09-04T07:21:56Z</time>
      </trkpt>
      <trkpt lat="44.05326" lon="2.76504">
        <ele>278</ele>
        <time>2021-09-04T07:22:15Z</time>
      </trkpt>
      <trkpt lat="44.05414" lon="2.76569">
        <ele>278</ele>
        <time>2021-09-04T07:22:45Z</time>
      </trkpt>
      <trkpt lat="44.05501" lon="2.76622">
        <ele>290</ele>
        <time>2021-09-04T07:23:15Z</time>
      </trkpt>
      <trkpt lat="44.05583" lon="2.76688">
        <ele>296</ele>
        <time>2021-09-04T07:23:45Z</time>
      </trkpt>
      <trkpt lat="44.05644" lon="2.76709">
        <ele>304</ele>
        <time>2021-09-04T07:24:05Z</time>
      </trkpt>
      <trkpt lat="44.05656" lon="2.76717">
        <ele>304</ele>
        <time>2021-09-04T07:24:09Z</time>
      </trkpt>
      <trkpt lat="44.05674" lon="2.76743">
        <ele>301</ele>
        <time>2021-09-04T07:24:17Z</time>
      </trkpt>
      <trkpt lat="44.05693" lon="2.76785">
        <ele>299</ele>
        <time>2021-09-04T07:24:34Z</time>
      </trkpt>
      <trkpt lat="44.05739" lon="2.76849">
        <ele>297</ele>
        <time>2021-09-04T07:25:07Z</time>
      </trkpt>
      <trkpt lat="44.05774" lon="2.76892">
        <ele>298</ele>
        <time>2021-09-04T07:25:38Z</time>
      </trkpt>
      <trkpt lat="44.05809" lon="2.76933">
        <ele>300</ele>
        <time>2021-09-04T07:26:10Z</time>
      </trkpt>
      <trkpt lat="44.05813" lon="2.76938">
        <ele>300</ele>
        <time>2021-09-04T07:26:13Z</time>
      </trkpt>
      <trkpt lat="44.05818" lon="2.76943">
        <ele>301</ele>
        <time>2021-09-04T07:26:17Z</time>
      </trkpt>
      <trkpt lat="44.0583" lon="2.76958">
        <ele>302</ele>
        <time>2021-09-04T07:26:28Z</time>
      </trkpt>
      <trkpt lat="44.05846" lon="2.76978">
        <ele>303</ele>
        <time>2021-09-04T07:26:42Z</time>
      </trkpt>
      <trkpt lat="44.05849" lon="2.76982">
        <ele>303</ele>
        <time>2021-09-04T07:26:45Z</time>
      </trkpt>
      <trkpt lat="44.05853" lon="2.76988">
        <ele>303</ele>
        <time>2021-09-04T07:26:49Z</time>
      </trkpt>
      <trkpt lat="44.0588" lon="2.77022">
        <ele>307</ele>
        <time>2021-09-04T07:27:18Z</time>
      </trkpt>
      <trkpt lat="44.05902" lon="2.77045">
        <ele>309</ele>
        <time>2021-09-04T07:27:37Z</time>
      </trkpt>
      <trkpt lat="44.05906" lon="2.7705">
        <ele>310</ele>
        <time>2021-09-04T07:27:41Z</time>
      </trkpt>
      <trkpt lat="44.0591" lon="2.77056">
        <ele>310</ele>
        <time>2021-09-04T07:27:45Z</time>
      </trkpt>
      <trkpt lat="44.0592" lon="2.77063">
        <ele>312</ele>
        <time>2021-09-04T07:27:55Z</time>
      </trkpt>
      <trkpt lat="44.05925" lon="2.77065">
        <ele>314</ele>
        <time>2021-09-04T07:27:59Z</time>
      </trkpt>
      <trkpt lat="44.05929" lon="2.77066">
        <ele>314</ele>
        <time>2021-09-04T07:28:03Z</time>
      </trkpt>
      <trkpt lat="44.05939" lon="2.77065">
        <ele>317</ele>
        <time>2021-09-04T07:28:10Z</time>
      </trkpt>
      <trkpt lat="44.05945" lon="2.77066">
        <ele>319</ele>
        <time>2021-09-04T07:28:14Z</time>
      </trkpt>
      <trkpt lat="44.05981" lon="2.77068">
        <ele>322</ele>
        <time>2021-09-04T07:28:42Z</time>
      </trkpt>
      <trkpt lat="44.05986" lon="2.77067">
        <ele>322</ele>
        <time>2021-09-04T07:28:46Z</time>
      </trkpt>
      <trkpt lat="44.05996" lon="2.77067">
        <ele>323</ele>
        <time>2021-09-04T07:28:54Z</time>
      </trkpt>
      <trkpt lat="44.06008" lon="2.77071">
        <ele>322</ele>
        <time>2021-09-04T07:29:02Z</time>
      </trkpt>
      <trkpt lat="44.06013" lon="2.77073">
        <ele>322</ele>
        <time>2021-09-04T07:29:05Z</time>
      </trkpt>
      <trkpt lat="44.06018" lon="2.77075">
        <ele>323</ele>
        <time>2021-09-04T07:29:08Z</time>
      </trkpt>
      <trkpt lat="44.06033" lon="2.77079">
        <ele>322</ele>
        <time>2021-09-04T07:29:17Z</time>
      </trkpt>
      <trkpt lat="44.06086" lon="2.77093">
        <ele>322</ele>
        <time>2021-09-04T07:29:47Z</time>
      </trkpt>
      <trkpt lat="44.06098" lon="2.77095">
        <ele>323</ele>
        <time>2021-09-04T07:29:52Z</time>
      </trkpt>
      <trkpt lat="44.06109" lon="2.77101">
        <ele>323</ele>
        <time>2021-09-04T07:29:56Z</time>
      </trkpt>
      <trkpt lat="44.06114" lon="2.77107">
        <ele>322</ele>
        <time>2021-09-04T07:29:58Z</time>
      </trkpt>
      <trkpt lat="44.0613" lon="2.7716">
        <ele>322</ele>
        <time>2021-09-04T07:30:07Z</time>
      </trkpt>
      <trkpt lat="44.06148" lon="2.77271">
        <ele>318</ele>
        <time>2021-09-04T07:30:19Z</time>
      </trkpt>
      <trkpt lat="44.0615" lon="2.77351">
        <ele>318</ele>
        <time>2021-09-04T07:30:28Z</time>
      </trkpt>
      <trkpt lat="44.06125" lon="2.77498">
        <ele>316</ele>
        <time>2021-09-04T07:30:52Z</time>
      </trkpt>
      <trkpt lat="44.06103" lon="2.77571">
        <ele>318</ele>
        <time>2021-09-04T07:31:05Z</time>
      </trkpt>
      <trkpt lat="44.0606" lon="2.77627">
        <ele>317</ele>
        <time>2021-09-04T07:31:15Z</time>
      </trkpt>
      <trkpt lat="44.06035" lon="2.777">
        <ele>321</ele>
        <time>2021-09-04T07:31:25Z</time>
      </trkpt>
      <trkpt lat="44.06034" lon="2.77708">
        <ele>321</ele>
        <time>2021-09-04T07:31:26Z</time>
      </trkpt>
      <trkpt lat="44.06034" lon="2.77725">
        <ele>322</ele>
        <time>2021-09-04T07:31:28Z</time>
      </trkpt>
      <trkpt lat="44.06043" lon="2.77764">
        <ele>325</ele>
        <time>2021-09-04T07:31:32Z</time>
      </trkpt>
      <trkpt lat="44.06045" lon="2.77782">
        <ele>325</ele>
        <time>2021-09-04T07:31:34Z</time>
      </trkpt>
      <trkpt lat="44.0605" lon="2.77798">
        <ele>325</ele>
        <time>2021-09-04T07:31:36Z</time>
      </trkpt>
      <trkpt lat="44.06057" lon="2.77812">
        <ele>324</ele>
        <time>2021-09-04T07:31:38Z</time>
      </trkpt>
      <trkpt lat="44.06085" lon="2.77856">
        <ele>321</ele>
        <time>2021-09-04T07:31:45Z</time>
      </trkpt>
      <trkpt lat="44.06096" lon="2.77876">
        <ele>321</ele>
        <time>2021-09-04T07:31:48Z</time>
      </trkpt>
      <trkpt lat="44.06123" lon="2.7792">
        <ele>320</ele>
        <time>2021-09-04T07:31:56Z</time>
      </trkpt>
      <trkpt lat="44.06136" lon="2.77947">
        <ele>318</ele>
        <time>2021-09-04T07:32:00Z</time>
      </trkpt>
      <trkpt lat="44.06151" lon="2.77964">
        <ele>318</ele>
        <time>2021-09-04T07:32:03Z</time>
      </trkpt>
      <trkpt lat="44.06166" lon="2.77975">
        <ele>316</ele>
        <time>2021-09-04T07:32:06Z</time>
      </trkpt>
      <trkpt lat="44.06197" lon="2.77977">
        <ele>312</ele>
        <time>2021-09-04T07:32:12Z</time>
      </trkpt>
      <trkpt lat="44.06248" lon="2.78013">
        <ele>310</ele>
        <time>2021-09-04T07:32:22Z</time>
      </trkpt>
      <trkpt lat="44.06262" lon="2.78033">
        <ele>309</ele>
        <time>2021-09-04T07:32:26Z</time>
      </trkpt>
      <trkpt lat="44.06281" lon="2.78097">
        <ele>318</ele>
        <time>2021-09-04T07:32:40Z</time>
      </trkpt>
      <trkpt lat="44.06299" lon="2.78124">
        <ele>318</ele>
        <time>2021-09-04T07:32:48Z</time>
      </trkpt>
      <trkpt lat="44.06308" lon="2.78134">
        <ele>318</ele>
        <time>2021-09-04T07:32:52Z</time>
      </trkpt>
      <trkpt lat="44.06319" lon="2.78151">
        <ele>317</ele>
        <time>2021-09-04T07:32:58Z</time>
      </trkpt>
      <trkpt lat="44.06329" lon="2.78172">
        <ele>317</ele>
        <time>2021-09-04T07:33:04Z</time>
      </trkpt>
      <trkpt lat="44.06341" lon="2.78191">
        <ele>318</ele>
        <time>2021-09-04T07:33:10Z</time>
      </trkpt>
      <trkpt lat="44.06362" lon="2.7827">
        <ele>313</ele>
        <time>2021-09-04T07:33:28Z</time>
      </trkpt>
      <trkpt lat="44.06364" lon="2.78403">
        <ele>306</ele>
        <time>2021-09-04T07:33:50Z</time>
      </trkpt>
      <trkpt lat="44.06364" lon="2.78413">
        <ele>306</ele>
        <time>2021-09-04T07:33:52Z</time>
      </trkpt>
      <trkpt lat="44.06346" lon="2.78499">
        <ele>307</ele>
        <time>2021-09-04T07:34:06Z</time>
      </trkpt>
      <trkpt lat="44.06302" lon="2.78577">
        <ele>313</ele>
        <time>2021-09-04T07:34:18Z</time>
      </trkpt>
      <trkpt lat="44.0628" lon="2.78606">
        <ele>317</ele>
        <time>2021-09-04T07:34:23Z</time>
      </trkpt>
      <trkpt lat="44.06234" lon="2.78641">
        <ele>319</ele>
        <time>2021-09-04T07:34:32Z</time>
      </trkpt>
      <trkpt lat="44.06169" lon="2.78685">
        <ele>323</ele>
        <time>2021-09-04T07:34:48Z</time>
      </trkpt>
      <trkpt lat="44.06148" lon="2.78691">
        <ele>322</ele>
        <time>2021-09-04T07:34:54Z</time>
      </trkpt>
      <trkpt lat="44.06131" lon="2.78687">
        <ele>320</ele>
        <time>2021-09-04T07:35:00Z</time>
      </trkpt>
      <trkpt lat="44.0611" lon="2.78673">
        <ele>321</ele>
        <time>2021-09-04T07:35:08Z</time>
      </trkpt>
      <trkpt lat="44.061" lon="2.78662">
        <ele>321</ele>
        <time>2021-09-04T07:35:12Z</time>
      </trkpt>
      <trkpt lat="44.06096" lon="2.78655">
        <ele>321</ele>
        <time>2021-09-04T07:35:14Z</time>
      </trkpt>
      <trkpt lat="44.0602" lon="2.78557">
        <ele>325</ele>
        <time>2021-09-04T07:35:46Z</time>
      </trkpt>
      <trkpt lat="44.06004" lon="2.78543">
        <ele>325</ele>
        <time>2021-09-04T07:35:52Z</time>
      </trkpt>
      <trkpt lat="44.05983" lon="2.78533">
        <ele>324</ele>
        <time>2021-09-04T07:35:59Z</time>
      </trkpt>
      <trkpt lat="44.05955" lon="2.78529">
        <ele>323</ele>
        <time>2021-09-04T07:36:07Z</time>
      </trkpt>
      <trkpt lat="44.05917" lon="2.78538">
        <ele>325</ele>
        <time>2021-09-04T07:36:15Z</time>
      </trkpt>
      <trkpt lat="44.05904" lon="2.78547">
        <ele>325</ele>
        <time>2021-09-04T07:36:18Z</time>
      </trkpt>
      <trkpt lat="44.05826" lon="2.78648">
        <ele>328</ele>
        <time>2021-09-04T07:36:35Z</time>
      </trkpt>
      <trkpt lat="44.05815" lon="2.78669">
        <ele>328</ele>
        <time>2021-09-04T07:36:38Z</time>
      </trkpt>
      <trkpt lat="44.05811" lon="2.78684">
        <ele>328</ele>
        <time>2021-09-04T07:36:40Z</time>
      </trkpt>
      <trkpt lat="44.05808" lon="2.78733">
        <ele>327</ele>
        <time>2021-09-04T07:36:46Z</time>
      </trkpt>
      <trkpt lat="44.05809" lon="2.7877">
        <ele>326</ele>
        <time>2021-09-04T07:36:51Z</time>
      </trkpt>
      <trkpt lat="44.05802" lon="2.78813">
        <ele>325</ele>
        <time>2021-09-04T07:36:59Z</time>
      </trkpt>
      <trkpt lat="44.058" lon="2.7882">
        <ele>326</ele>
        <time>2021-09-04T07:37:05Z</time>
      </trkpt>
      <trkpt lat="44.05801" lon="2.7882">
        <ele>326</ele>
        <time>2021-09-04T07:37:42Z</time>
      </trkpt>
      <trkpt lat="44.05802" lon="2.78829">
        <ele>325</ele>
        <time>2021-09-04T07:38:15Z</time>
      </trkpt>
      <trkpt lat="44.05794" lon="2.78855">
        <ele>322</ele>
        <time>2021-09-04T07:38:21Z</time>
      </trkpt>
      <trkpt lat="44.05792" lon="2.78889">
        <ele>322</ele>
        <time>2021-09-04T07:38:26Z</time>
      </trkpt>
      <trkpt lat="44.05791" lon="2.78965">
        <ele>321</ele>
        <time>2021-09-04T07:38:35Z</time>
      </trkpt>
      <trkpt lat="44.05792" lon="2.78972">
        <ele>320</ele>
        <time>2021-09-04T07:38:36Z</time>
      </trkpt>
      <trkpt lat="44.05804" lon="2.79018">
        <ele>316</ele>
        <time>2021-09-04T07:38:42Z</time>
      </trkpt>
      <trkpt lat="44.05835" lon="2.79087">
        <ele>306</ele>
        <time>2021-09-04T07:38:54Z</time>
      </trkpt>
      <trkpt lat="44.05852" lon="2.79156">
        <ele>304</ele>
        <time>2021-09-04T07:39:07Z</time>
      </trkpt>
      <trkpt lat="44.05863" lon="2.79234">
        <ele>301</ele>
        <time>2021-09-04T07:39:27Z</time>
      </trkpt>
      <trkpt lat="44.05864" lon="2.79243">
        <ele>302</ele>
        <time>2021-09-04T07:39:30Z</time>
      </trkpt>
      <trkpt lat="44.05877" lon="2.79327">
        <ele>304</ele>
        <time>2021-09-04T07:40:03Z</time>
      </trkpt>
      <trkpt lat="44.05881" lon="2.79365">
        <ele>302</ele>
        <time>2021-09-04T07:40:18Z</time>
      </trkpt>
      <trkpt lat="44.05881" lon="2.79374">
        <ele>302</ele>
        <time>2021-09-04T07:40:21Z</time>
      </trkpt>
      <trkpt lat="44.05881" lon="2.7939">
        <ele>302</ele>
        <time>2021-09-04T07:40:27Z</time>
      </trkpt>
      <trkpt lat="44.05881" lon="2.79406">
        <ele>301</ele>
        <time>2021-09-04T07:40:33Z</time>
      </trkpt>
      <trkpt lat="44.05858" lon="2.79484">
        <ele>304</ele>
        <time>2021-09-04T07:41:06Z</time>
      </trkpt>
      <trkpt lat="44.05857" lon="2.79505">
        <ele>307</ele>
        <time>2021-09-04T07:41:15Z</time>
      </trkpt>
      <trkpt lat="44.05857" lon="2.79518">
        <ele>308</ele>
        <time>2021-09-04T07:41:21Z</time>
      </trkpt>
      <trkpt lat="44.05862" lon="2.7953">
        <ele>310</ele>
        <time>2021-09-04T07:41:27Z</time>
      </trkpt>
      <trkpt lat="44.05871" lon="2.79549">
        <ele>311</ele>
        <time>2021-09-04T07:41:36Z</time>
      </trkpt>
      <trkpt lat="44.05875" lon="2.79555">
        <ele>312</ele>
        <time>2021-09-04T07:41:40Z</time>
      </trkpt>
      <trkpt lat="44.05879" lon="2.7956">
        <ele>313</ele>
        <time>2021-09-04T07:41:44Z</time>
      </trkpt>
      <trkpt lat="44.05883" lon="2.79564">
        <ele>313</ele>
        <time>2021-09-04T07:41:47Z</time>
      </trkpt>
      <trkpt lat="44.05904" lon="2.79589">
        <ele>318</ele>
        <time>2021-09-04T07:42:02Z</time>
      </trkpt>
      <trkpt lat="44.05913" lon="2.79599">
        <ele>319</ele>
        <time>2021-09-04T07:42:08Z</time>
      </trkpt>
      <trkpt lat="44.05917" lon="2.79604">
        <ele>319</ele>
        <time>2021-09-04T07:42:11Z</time>
      </trkpt>
      <trkpt lat="44.05921" lon="2.79608">
        <ele>319</ele>
        <time>2021-09-04T07:42:14Z</time>
      </trkpt>
      <trkpt lat="44.05927" lon="2.79619">
        <ele>319</ele>
        <time>2021-09-04T07:42:20Z</time>
      </trkpt>
      <trkpt lat="44.05951" lon="2.79677">
        <ele>324</ele>
        <time>2021-09-04T07:42:51Z</time>
      </trkpt>
      <trkpt lat="44.05964" lon="2.79743">
        <ele>327</ele>
        <time>2021-09-04T07:43:22Z</time>
      </trkpt>
      <trkpt lat="44.05967" lon="2.79748">
        <ele>327</ele>
        <time>2021-09-04T07:43:25Z</time>
      </trkpt>
      <trkpt lat="44.0597" lon="2.79755">
        <ele>327</ele>
        <time>2021-09-04T07:43:28Z</time>
      </trkpt>
      <trkpt lat="44.05974" lon="2.79761">
        <ele>328</ele>
        <time>2021-09-04T07:43:31Z</time>
      </trkpt>
      <trkpt lat="44.05993" lon="2.79787">
        <ele>330</ele>
        <time>2021-09-04T07:43:48Z</time>
      </trkpt>
      <trkpt lat="44.0602" lon="2.79824">
        <ele>332</ele>
        <time>2021-09-04T07:44:12Z</time>
      </trkpt>
      <trkpt lat="44.06033" lon="2.79848">
        <ele>332</ele>
        <time>2021-09-04T07:44:24Z</time>
      </trkpt>
      <trkpt lat="44.06038" lon="2.7986">
        <ele>333</ele>
        <time>2021-09-04T07:44:30Z</time>
      </trkpt>
      <trkpt lat="44.06039" lon="2.79866">
        <ele>333</ele>
        <time>2021-09-04T07:44:33Z</time>
      </trkpt>
      <trkpt lat="44.06045" lon="2.79902">
        <ele>334</ele>
        <time>2021-09-04T07:44:49Z</time>
      </trkpt>
      <trkpt lat="44.06045" lon="2.79938">
        <ele>334</ele>
        <time>2021-09-04T07:45:05Z</time>
      </trkpt>
      <trkpt lat="44.06038" lon="2.7999">
        <ele>332</ele>
        <time>2021-09-04T07:45:28Z</time>
      </trkpt>
      <trkpt lat="44.06047" lon="2.80031">
        <ele>335</ele>
        <time>2021-09-04T07:45:46Z</time>
      </trkpt>
      <trkpt lat="44.06055" lon="2.80102">
        <ele>338</ele>
        <time>2021-09-04T07:46:19Z</time>
      </trkpt>
      <trkpt lat="44.06057" lon="2.80108">
        <ele>338</ele>
        <time>2021-09-04T07:46:23Z</time>
      </trkpt>
      <trkpt lat="44.06061" lon="2.80115">
        <ele>339</ele>
        <time>2021-09-04T07:46:27Z</time>
      </trkpt>
      <trkpt lat="44.06065" lon="2.80129">
        <ele>340</ele>
        <time>2021-09-04T07:46:33Z</time>
      </trkpt>
      <trkpt lat="44.06068" lon="2.80143">
        <ele>340</ele>
        <time>2021-09-04T07:46:39Z</time>
      </trkpt>
      <trkpt lat="44.06069" lon="2.8015">
        <ele>340</ele>
        <time>2021-09-04T07:46:42Z</time>
      </trkpt>
      <trkpt lat="44.06069" lon="2.80157">
        <ele>338</ele>
        <time>2021-09-04T07:46:46Z</time>
      </trkpt>
      <trkpt lat="44.06072" lon="2.80177">
        <ele>340</ele>
        <time>2021-09-04T07:46:55Z</time>
      </trkpt>
      <trkpt lat="44.06074" lon="2.80183">
        <ele>341</ele>
        <time>2021-09-04T07:46:58Z</time>
      </trkpt>
      <trkpt lat="44.06073" lon="2.80191">
        <ele>341</ele>
        <time>2021-09-04T07:47:01Z</time>
      </trkpt>
      <trkpt lat="44.06072" lon="2.80218">
        <ele>342</ele>
        <time>2021-09-04T07:47:13Z</time>
      </trkpt>
      <trkpt lat="44.06069" lon="2.80233">
        <ele>341</ele>
        <time>2021-09-04T07:47:19Z</time>
      </trkpt>
      <trkpt lat="44.06074" lon="2.80278">
        <ele>341</ele>
        <time>2021-09-04T07:47:37Z</time>
      </trkpt>
      <trkpt lat="44.06076" lon="2.80283">
        <ele>341</ele>
        <time>2021-09-04T07:47:40Z</time>
      </trkpt>
      <trkpt lat="44.06079" lon="2.80289">
        <ele>342</ele>
        <time>2021-09-04T07:47:43Z</time>
      </trkpt>
      <trkpt lat="44.06083" lon="2.80294">
        <ele>343</ele>
        <time>2021-09-04T07:47:46Z</time>
      </trkpt>
      <trkpt lat="44.06091" lon="2.80305">
        <ele>345</ele>
        <time>2021-09-04T07:47:52Z</time>
      </trkpt>
      <trkpt lat="44.06096" lon="2.80309">
        <ele>346</ele>
        <time>2021-09-04T07:47:55Z</time>
      </trkpt>
      <trkpt lat="44.06116" lon="2.80333">
        <ele>352</ele>
        <time>2021-09-04T07:48:10Z</time>
      </trkpt>
      <trkpt lat="44.06143" lon="2.80403">
        <ele>356</ele>
        <time>2021-09-04T07:48:43Z</time>
      </trkpt>
      <trkpt lat="44.06145" lon="2.80411">
        <ele>357</ele>
        <time>2021-09-04T07:48:46Z</time>
      </trkpt>
      <trkpt lat="44.06144" lon="2.80419">
        <ele>357</ele>
        <time>2021-09-04T07:48:49Z</time>
      </trkpt>
      <trkpt lat="44.06145" lon="2.80426">
        <ele>357</ele>
        <time>2021-09-04T07:48:52Z</time>
      </trkpt>
      <trkpt lat="44.06149" lon="2.80431">
        <ele>357</ele>
        <time>2021-09-04T07:48:55Z</time>
      </trkpt>
      <trkpt lat="44.06152" lon="2.80436">
        <ele>358</ele>
        <time>2021-09-04T07:49:33Z</time>
      </trkpt>
      <trkpt lat="44.06152" lon="2.80431">
        <ele>367</ele>
        <time>2021-09-04T07:50:16Z</time>
      </trkpt>
      <trkpt lat="44.06158" lon="2.80435">
        <ele>370</ele>
        <time>2021-09-04T07:51:17Z</time>
      </trkpt>
      <trkpt lat="44.06192" lon="2.80453">
        <ele>374</ele>
        <time>2021-09-04T07:51:26Z</time>
      </trkpt>
      <trkpt lat="44.06199" lon="2.8046">
        <ele>375</ele>
        <time>2021-09-04T07:51:28Z</time>
      </trkpt>
      <trkpt lat="44.06209" lon="2.80497">
        <ele>375</ele>
        <time>2021-09-04T07:51:34Z</time>
      </trkpt>
      <trkpt lat="44.06221" lon="2.80505">
        <ele>375</ele>
        <time>2021-09-04T07:51:38Z</time>
      </trkpt>
      <trkpt lat="44.0624" lon="2.80506">
        <ele>377</ele>
        <time>2021-09-04T07:51:41Z</time>
      </trkpt>
      <trkpt lat="44.06246" lon="2.80509">
        <ele>377</ele>
        <time>2021-09-04T07:51:42Z</time>
      </trkpt>
      <trkpt lat="44.0627" lon="2.80534">
        <ele>374</ele>
        <time>2021-09-04T07:51:46Z</time>
      </trkpt>
      <trkpt lat="44.06289" lon="2.80566">
        <ele>371</ele>
        <time>2021-09-04T07:51:51Z</time>
      </trkpt>
      <trkpt lat="44.06293" lon="2.8057">
        <ele>370</ele>
        <time>2021-09-04T07:51:52Z</time>
      </trkpt>
      <trkpt lat="44.06322" lon="2.80586">
        <ele>369</ele>
        <time>2021-09-04T07:51:57Z</time>
      </trkpt>
      <trkpt lat="44.0635" lon="2.80609">
        <ele>368</ele>
        <time>2021-09-04T07:52:02Z</time>
      </trkpt>
      <trkpt lat="44.06354" lon="2.80614">
        <ele>368</ele>
        <time>2021-09-04T07:52:03Z</time>
      </trkpt>
      <trkpt lat="44.06357" lon="2.8062">
        <ele>367</ele>
        <time>2021-09-04T07:52:04Z</time>
      </trkpt>
      <trkpt lat="44.06359" lon="2.80628">
        <ele>367</ele>
        <time>2021-09-04T07:52:05Z</time>
      </trkpt>
      <trkpt lat="44.06357" lon="2.80646">
        <ele>366</ele>
        <time>2021-09-04T07:52:07Z</time>
      </trkpt>
      <trkpt lat="44.0635" lon="2.80661">
        <ele>365</ele>
        <time>2021-09-04T07:52:09Z</time>
      </trkpt>
      <trkpt lat="44.06349" lon="2.80668">
        <ele>365</ele>
        <time>2021-09-04T07:52:10Z</time>
      </trkpt>
      <trkpt lat="44.06347" lon="2.80674">
        <ele>365</ele>
        <time>2021-09-04T07:52:11Z</time>
      </trkpt>
      <trkpt lat="44.06346" lon="2.80688">
        <ele>364</ele>
        <time>2021-09-04T07:52:13Z</time>
      </trkpt>
      <trkpt lat="44.06348" lon="2.80696">
        <ele>363</ele>
        <time>2021-09-04T07:52:15Z</time>
      </trkpt>
      <trkpt lat="44.06352" lon="2.80701">
        <ele>363</ele>
        <time>2021-09-04T07:52:16Z</time>
      </trkpt>
      <trkpt lat="44.06368" lon="2.80716">
        <ele>359</ele>
        <time>2021-09-04T07:52:19Z</time>
      </trkpt>
      <trkpt lat="44.06372" lon="2.80722">
        <ele>358</ele>
        <time>2021-09-04T07:52:20Z</time>
      </trkpt>
      <trkpt lat="44.06379" lon="2.80747">
        <ele>354</ele>
        <time>2021-09-04T07:52:23Z</time>
      </trkpt>
      <trkpt lat="44.06382" lon="2.80754">
        <ele>354</ele>
        <time>2021-09-04T07:52:24Z</time>
      </trkpt>
      <trkpt lat="44.06386" lon="2.80759">
        <ele>354</ele>
        <time>2021-09-04T07:52:25Z</time>
      </trkpt>
      <trkpt lat="44.06399" lon="2.80765">
        <ele>355</ele>
        <time>2021-09-04T07:52:27Z</time>
      </trkpt>
      <trkpt lat="44.06427" lon="2.80769">
        <ele>354</ele>
        <time>2021-09-04T07:52:31Z</time>
      </trkpt>
      <trkpt lat="44.06432" lon="2.80768">
        <ele>354</ele>
        <time>2021-09-04T07:52:32Z</time>
      </trkpt>
      <trkpt lat="44.06436" lon="2.80766">
        <ele>355</ele>
        <time>2021-09-04T07:52:33Z</time>
      </trkpt>
      <trkpt lat="44.0644" lon="2.80761">
        <ele>356</ele>
        <time>2021-09-04T07:52:34Z</time>
      </trkpt>
      <trkpt lat="44.06459" lon="2.807">
        <ele>355</ele>
        <time>2021-09-04T07:52:42Z</time>
      </trkpt>
      <trkpt lat="44.06477" lon="2.80673">
        <ele>354</ele>
        <time>2021-09-04T07:52:46Z</time>
      </trkpt>
      <trkpt lat="44.06496" lon="2.8065">
        <ele>355</ele>
        <time>2021-09-04T07:52:50Z</time>
      </trkpt>
      <trkpt lat="44.06514" lon="2.80638">
        <ele>355</ele>
        <time>2021-09-04T07:52:53Z</time>
      </trkpt>
      <trkpt lat="44.06543" lon="2.80626">
        <ele>355</ele>
        <time>2021-09-04T07:52:58Z</time>
      </trkpt>
      <trkpt lat="44.06589" lon="2.80614">
        <ele>355</ele>
        <time>2021-09-04T07:53:05Z</time>
      </trkpt>
      <trkpt lat="44.06608" lon="2.80606">
        <ele>354</ele>
        <time>2021-09-04T07:53:08Z</time>
      </trkpt>
      <trkpt lat="44.06643" lon="2.80571">
        <ele>352</ele>
        <time>2021-09-04T07:53:15Z</time>
      </trkpt>
      <trkpt lat="44.06648" lon="2.80568">
        <ele>352</ele>
        <time>2021-09-04T07:53:16Z</time>
      </trkpt>
      <trkpt lat="44.06661" lon="2.80568">
        <ele>351</ele>
        <time>2021-09-04T07:53:18Z</time>
      </trkpt>
      <trkpt lat="44.06671" lon="2.8057">
        <ele>351</ele>
        <time>2021-09-04T07:53:20Z</time>
      </trkpt>
      <trkpt lat="44.0668" lon="2.80567">
        <ele>351</ele>
        <time>2021-09-04T07:53:22Z</time>
      </trkpt>
      <trkpt lat="44.06689" lon="2.80556">
        <ele>350</ele>
        <time>2021-09-04T07:53:24Z</time>
      </trkpt>
      <trkpt lat="44.06698" lon="2.80543">
        <ele>350</ele>
        <time>2021-09-04T07:53:26Z</time>
      </trkpt>
      <trkpt lat="44.06721" lon="2.80525">
        <ele>347</ele>
        <time>2021-09-04T07:53:30Z</time>
      </trkpt>
      <trkpt lat="44.06767" lon="2.80508">
        <ele>345</ele>
        <time>2021-09-04T07:53:38Z</time>
      </trkpt>
      <trkpt lat="44.06792" lon="2.80501">
        <ele>346</ele>
        <time>2021-09-04T07:53:43Z</time>
      </trkpt>
      <trkpt lat="44.06808" lon="2.80494">
        <ele>346</ele>
        <time>2021-09-04T07:53:46Z</time>
      </trkpt>
      <trkpt lat="44.06863" lon="2.80489">
        <ele>343</ele>
        <time>2021-09-04T07:53:54Z</time>
      </trkpt>
      <trkpt lat="44.06907" lon="2.80499">
        <ele>343</ele>
        <time>2021-09-04T07:54:02Z</time>
      </trkpt>
      <trkpt lat="44.06922" lon="2.80513">
        <ele>344</ele>
        <time>2021-09-04T07:54:08Z</time>
      </trkpt>
      <trkpt lat="44.06932" lon="2.80519">
        <ele>344</ele>
        <time>2021-09-04T07:54:12Z</time>
      </trkpt>
      <trkpt lat="44.06985" lon="2.80575">
        <ele>342</ele>
        <time>2021-09-04T07:54:28Z</time>
      </trkpt>
      <trkpt lat="44.06998" lon="2.80604">
        <ele>338</ele>
        <time>2021-09-04T07:54:34Z</time>
      </trkpt>
      <trkpt lat="44.07017" lon="2.80683">
        <ele>326</ele>
        <time>2021-09-04T07:54:45Z</time>
      </trkpt>
      <trkpt lat="44.07018" lon="2.807">
        <ele>325</ele>
        <time>2021-09-04T07:54:47Z</time>
      </trkpt>
      <trkpt lat="44.07012" lon="2.80792">
        <ele>316</ele>
        <time>2021-09-04T07:54:58Z</time>
      </trkpt>
      <trkpt lat="44.07004" lon="2.80825">
        <ele>314</ele>
        <time>2021-09-04T07:55:02Z</time>
      </trkpt>
      <trkpt lat="44.06989" lon="2.80851">
        <ele>311</ele>
        <time>2021-09-04T07:55:06Z</time>
      </trkpt>
      <trkpt lat="44.06982" lon="2.80863">
        <ele>310</ele>
        <time>2021-09-04T07:55:08Z</time>
      </trkpt>
      <trkpt lat="44.06975" lon="2.80891">
        <ele>305</ele>
        <time>2021-09-04T07:55:14Z</time>
      </trkpt>
      <trkpt lat="44.06962" lon="2.80911">
        <ele>304</ele>
        <time>2021-09-04T07:55:21Z</time>
      </trkpt>
      <trkpt lat="44.06958" lon="2.80917">
        <ele>304</ele>
        <time>2021-09-04T07:55:23Z</time>
      </trkpt>
      <trkpt lat="44.06955" lon="2.80924">
        <ele>303</ele>
        <time>2021-09-04T07:55:26Z</time>
      </trkpt>
      <trkpt lat="44.06977" lon="2.80941">
        <ele>311</ele>
        <time>2021-09-04T07:55:34Z</time>
      </trkpt>
      <trkpt lat="44.06983" lon="2.80944">
        <ele>312</ele>
        <time>2021-09-04T07:55:36Z</time>
      </trkpt>
      <trkpt lat="44.0699" lon="2.80946">
        <ele>315</ele>
        <time>2021-09-04T07:55:38Z</time>
      </trkpt>
      <trkpt lat="44.07014" lon="2.80973">
        <ele>317</ele>
        <time>2021-09-04T07:55:50Z</time>
      </trkpt>
      <trkpt lat="44.07018" lon="2.80978">
        <ele>317</ele>
        <time>2021-09-04T07:55:52Z</time>
      </trkpt>
      <trkpt lat="44.0708" lon="2.81072">
        <ele>321</ele>
        <time>2021-09-04T07:56:24Z</time>
      </trkpt>
      <trkpt lat="44.07088" lon="2.81084">
        <ele>321</ele>
        <time>2021-09-04T07:56:28Z</time>
      </trkpt>
      <trkpt lat="44.07091" lon="2.81091">
        <ele>321</ele>
        <time>2021-09-04T07:56:30Z</time>
      </trkpt>
      <trkpt lat="44.07099" lon="2.81104">
        <ele>320</ele>
        <time>2021-09-04T07:56:34Z</time>
      </trkpt>
      <trkpt lat="44.07103" lon="2.81107">
        <ele>320</ele>
        <time>2021-09-04T07:56:36Z</time>
      </trkpt>
      <trkpt lat="44.07131" lon="2.81087">
        <ele>319</ele>
        <time>2021-09-04T07:56:49Z</time>
      </trkpt>
      <trkpt lat="44.07143" lon="2.81072">
        <ele>317</ele>
        <time>2021-09-04T07:56:53Z</time>
      </trkpt>
      <trkpt lat="44.07182" lon="2.81034">
        <ele>318</ele>
        <time>2021-09-04T07:57:09Z</time>
      </trkpt>
      <trkpt lat="44.07188" lon="2.8103">
        <ele>317</ele>
        <time>2021-09-04T07:57:12Z</time>
      </trkpt>
      <trkpt lat="44.07193" lon="2.81026">
        <ele>316</ele>
        <time>2021-09-04T07:57:15Z</time>
      </trkpt>
      <trkpt lat="44.07198" lon="2.8102">
        <ele>316</ele>
        <time>2021-09-04T07:57:19Z</time>
      </trkpt>
      <trkpt lat="44.07239" lon="2.80964">
        <ele>320</ele>
        <time>2021-09-04T07:57:48Z</time>
      </trkpt>
      <trkpt lat="44.07254" lon="2.80952">
        <ele>322</ele>
        <time>2021-09-04T07:57:58Z</time>
      </trkpt>
      <trkpt lat="44.07259" lon="2.80948">
        <ele>323</ele>
        <time>2021-09-04T07:58:01Z</time>
      </trkpt>
      <trkpt lat="44.07269" lon="2.80943">
        <ele>324</ele>
        <time>2021-09-04T07:58:07Z</time>
      </trkpt>
      <trkpt lat="44.07282" lon="2.80941">
        <ele>328</ele>
        <time>2021-09-04T07:58:14Z</time>
      </trkpt>
      <trkpt lat="44.07288" lon="2.80945">
        <ele>328</ele>
        <time>2021-09-04T07:58:18Z</time>
      </trkpt>
      <trkpt lat="44.0732" lon="2.80973">
        <ele>326</ele>
        <time>2021-09-04T07:58:26Z</time>
      </trkpt>
      <trkpt lat="44.07337" lon="2.80996">
        <ele>326</ele>
        <time>2021-09-04T07:58:30Z</time>
      </trkpt>
      <trkpt lat="44.0734" lon="2.81001">
        <ele>326</ele>
        <time>2021-09-04T07:58:31Z</time>
      </trkpt>
      <trkpt lat="44.07344" lon="2.81012">
        <ele>326</ele>
        <time>2021-09-04T07:58:33Z</time>
      </trkpt>
      <trkpt lat="44.0734" lon="2.81028">
        <ele>326</ele>
        <time>2021-09-04T07:58:35Z</time>
      </trkpt>
      <trkpt lat="44.07326" lon="2.81057">
        <ele>326</ele>
        <time>2021-09-04T07:58:39Z</time>
      </trkpt>
      <trkpt lat="44.07321" lon="2.81062">
        <ele>326</ele>
        <time>2021-09-04T07:58:40Z</time>
      </trkpt>
      <trkpt lat="44.07304" lon="2.81066">
        <ele>325</ele>
        <time>2021-09-04T07:58:44Z</time>
      </trkpt>
      <trkpt lat="44.07284" lon="2.81066">
        <ele>324</ele>
        <time>2021-09-04T07:58:50Z</time>
      </trkpt>
      <trkpt lat="44.07269" lon="2.81071">
        <ele>322</ele>
        <time>2021-09-04T07:58:54Z</time>
      </trkpt>
      <trkpt lat="44.07238" lon="2.81097">
        <ele>319</ele>
        <time>2021-09-04T07:59:02Z</time>
      </trkpt>
      <trkpt lat="44.07179" lon="2.81179">
        <ele>318</ele>
        <time>2021-09-04T07:59:20Z</time>
      </trkpt>
      <trkpt lat="44.07152" lon="2.81223">
        <ele>315</ele>
        <time>2021-09-04T07:59:32Z</time>
      </trkpt>
      <trkpt lat="44.07147" lon="2.8123">
        <ele>314</ele>
        <time>2021-09-04T07:59:34Z</time>
      </trkpt>
      <trkpt lat="44.07141" lon="2.81236">
        <ele>314</ele>
        <time>2021-09-04T07:59:36Z</time>
      </trkpt>
      <trkpt lat="44.07118" lon="2.81243">
        <ele>313</ele>
        <time>2021-09-04T07:59:42Z</time>
      </trkpt>
      <trkpt lat="44.07063" lon="2.81229">
        <ele>319</ele>
        <time>2021-09-04T07:59:56Z</time>
      </trkpt>
      <trkpt lat="44.07054" lon="2.81231">
        <ele>320</ele>
        <time>2021-09-04T07:59:58Z</time>
      </trkpt>
      <trkpt lat="44.0704" lon="2.81241">
        <ele>320</ele>
        <time>2021-09-04T08:00:02Z</time>
      </trkpt>
      <trkpt lat="44.06973" lon="2.81358">
        <ele>315</ele>
        <time>2021-09-04T08:00:34Z</time>
      </trkpt>
      <trkpt lat="44.06943" lon="2.81403">
        <ele>311</ele>
        <time>2021-09-04T08:00:46Z</time>
      </trkpt>
      <trkpt lat="44.06925" lon="2.81433">
        <ele>312</ele>
        <time>2021-09-04T08:00:52Z</time>
      </trkpt>
      <trkpt lat="44.06906" lon="2.81483">
        <ele>311</ele>
        <time>2021-09-04T08:01:00Z</time>
      </trkpt>
      <trkpt lat="44.06898" lon="2.81495">
        <ele>311</ele>
        <time>2021-09-04T08:01:02Z</time>
      </trkpt>
      <trkpt lat="44.06878" lon="2.81518">
        <ele>311</ele>
        <time>2021-09-04T08:01:07Z</time>
      </trkpt>
      <trkpt lat="44.06862" lon="2.81548">
        <ele>310</ele>
        <time>2021-09-04T08:01:12Z</time>
      </trkpt>
      <trkpt lat="44.06858" lon="2.81562">
        <ele>309</ele>
        <time>2021-09-04T08:01:14Z</time>
      </trkpt>
      <trkpt lat="44.06858" lon="2.81607">
        <ele>308</ele>
        <time>2021-09-04T08:01:21Z</time>
      </trkpt>
      <trkpt lat="44.06871" lon="2.81656">
        <ele>311</ele>
        <time>2021-09-04T08:01:31Z</time>
      </trkpt>
      <trkpt lat="44.06889" lon="2.81705">
        <ele>316</ele>
        <time>2021-09-04T08:01:43Z</time>
      </trkpt>
      <trkpt lat="44.06893" lon="2.81726">
        <ele>317</ele>
        <time>2021-09-04T08:01:47Z</time>
      </trkpt>
      <trkpt lat="44.06889" lon="2.81748">
        <ele>319</ele>
        <time>2021-09-04T08:01:51Z</time>
      </trkpt>
      <trkpt lat="44.06882" lon="2.81765">
        <ele>320</ele>
        <time>2021-09-04T08:01:55Z</time>
      </trkpt>
      <trkpt lat="44.06849" lon="2.81812">
        <ele>320</ele>
        <time>2021-09-04T08:02:09Z</time>
      </trkpt>
      <trkpt lat="44.06842" lon="2.81831">
        <ele>320</ele>
        <time>2021-09-04T08:02:13Z</time>
      </trkpt>
      <trkpt lat="44.06836" lon="2.81854">
        <ele>321</ele>
        <time>2021-09-04T08:02:17Z</time>
      </trkpt>
      <trkpt lat="44.06835" lon="2.81877">
        <ele>322</ele>
        <time>2021-09-04T08:02:21Z</time>
      </trkpt>
      <trkpt lat="44.06854" lon="2.8203">
        <ele>332</ele>
        <time>2021-09-04T08:02:51Z</time>
      </trkpt>
      <trkpt lat="44.06857" lon="2.8206">
        <ele>334</ele>
        <time>2021-09-04T08:02:59Z</time>
      </trkpt>
      <trkpt lat="44.06858" lon="2.82067">
        <ele>336</ele>
        <time>2021-09-04T08:03:01Z</time>
      </trkpt>
      <trkpt lat="44.06859" lon="2.82073">
        <ele>336</ele>
        <time>2021-09-04T08:03:03Z</time>
      </trkpt>
      <trkpt lat="44.06867" lon="2.82098">
        <ele>340</ele>
        <time>2021-09-04T08:03:11Z</time>
      </trkpt>
      <trkpt lat="44.0687" lon="2.82112">
        <ele>342</ele>
        <time>2021-09-04T08:03:15Z</time>
      </trkpt>
      <trkpt lat="44.06868" lon="2.82145">
        <ele>343</ele>
        <time>2021-09-04T08:03:23Z</time>
      </trkpt>
      <trkpt lat="44.06865" lon="2.82166">
        <ele>342</ele>
        <time>2021-09-04T08:03:29Z</time>
      </trkpt>
      <trkpt lat="44.06864" lon="2.82227">
        <ele>340</ele>
        <time>2021-09-04T08:03:48Z</time>
      </trkpt>
      <trkpt lat="44.06873" lon="2.82276">
        <ele>337</ele>
        <time>2021-09-04T08:04:06Z</time>
      </trkpt>
      <trkpt lat="44.0687" lon="2.82336">
        <ele>338</ele>
        <time>2021-09-04T08:04:25Z</time>
      </trkpt>
      <trkpt lat="44.06855" lon="2.82434">
        <ele>338</ele>
        <time>2021-09-04T08:04:57Z</time>
      </trkpt>
      <trkpt lat="44.06854" lon="2.82448">
        <ele>338</ele>
        <time>2021-09-04T08:05:01Z</time>
      </trkpt>
      <trkpt lat="44.06854" lon="2.82455">
        <ele>338</ele>
        <time>2021-09-04T08:05:04Z</time>
      </trkpt>
      <trkpt lat="44.06852" lon="2.82462">
        <ele>340</ele>
        <time>2021-09-04T08:07:49Z</time>
      </trkpt>
      <trkpt lat="44.06852" lon="2.82469">
        <ele>340</ele>
        <time>2021-09-04T08:07:52Z</time>
      </trkpt>
      <trkpt lat="44.06854" lon="2.82488">
        <ele>342</ele>
        <time>2021-09-04T08:07:58Z</time>
      </trkpt>
      <trkpt lat="44.06883" lon="2.82571">
        <ele>350</ele>
        <time>2021-09-04T08:08:24Z</time>
      </trkpt>
      <trkpt lat="44.06924" lon="2.82629">
        <ele>355</ele>
        <time>2021-09-04T08:08:47Z</time>
      </trkpt>
      <trkpt lat="44.06955" lon="2.82696">
        <ele>355</ele>
        <time>2021-09-04T08:09:11Z</time>
      </trkpt>
      <trkpt lat="44.06962" lon="2.82715">
        <ele>357</ele>
        <time>2021-09-04T08:09:19Z</time>
      </trkpt>
      <trkpt lat="44.06964" lon="2.82738">
        <ele>359</ele>
        <time>2021-09-04T08:09:27Z</time>
      </trkpt>
      <trkpt lat="44.06963" lon="2.82746">
        <ele>362</ele>
        <time>2021-09-04T08:09:30Z</time>
      </trkpt>
      <trkpt lat="44.06964" lon="2.82754">
        <ele>365</ele>
        <time>2021-09-04T08:09:33Z</time>
      </trkpt>
      <trkpt lat="44.06969" lon="2.82776">
        <ele>368</ele>
        <time>2021-09-04T08:09:41Z</time>
      </trkpt>
      <trkpt lat="44.06977" lon="2.82806">
        <ele>373</ele>
        <time>2021-09-04T08:09:53Z</time>
      </trkpt>
      <trkpt lat="44.06971" lon="2.82874">
        <ele>386</ele>
        <time>2021-09-04T08:10:21Z</time>
      </trkpt>
      <trkpt lat="44.0697" lon="2.82903">
        <ele>389</ele>
        <time>2021-09-04T08:10:33Z</time>
      </trkpt>
      <trkpt lat="44.0697" lon="2.82909">
        <ele>390</ele>
        <time>2021-09-04T08:10:36Z</time>
      </trkpt>
      <trkpt lat="44.06968" lon="2.82939">
        <ele>397</ele>
        <time>2021-09-04T08:10:48Z</time>
      </trkpt>
      <trkpt lat="44.06968" lon="2.82947">
        <ele>399</ele>
        <time>2021-09-04T08:10:52Z</time>
      </trkpt>
      <trkpt lat="44.06973" lon="2.83007">
        <ele>401</ele>
        <time>2021-09-04T08:11:13Z</time>
      </trkpt>
      <trkpt lat="44.06962" lon="2.8306">
        <ele>403</ele>
        <time>2021-09-04T08:11:30Z</time>
      </trkpt>
      <trkpt lat="44.06959" lon="2.83068">
        <ele>403</ele>
        <time>2021-09-04T08:11:33Z</time>
      </trkpt>
      <trkpt lat="44.06957" lon="2.83076">
        <ele>403</ele>
        <time>2021-09-04T08:11:36Z</time>
      </trkpt>
      <trkpt lat="44.06954" lon="2.83092">
        <ele>403</ele>
        <time>2021-09-04T08:11:42Z</time>
      </trkpt>
      <trkpt lat="44.06952" lon="2.831">
        <ele>402</ele>
        <time>2021-09-04T08:11:45Z</time>
      </trkpt>
      <trkpt lat="44.06949" lon="2.83115">
        <ele>401</ele>
        <time>2021-09-04T08:11:51Z</time>
      </trkpt>
      <trkpt lat="44.06943" lon="2.83139">
        <ele>401</ele>
        <time>2021-09-04T08:12:00Z</time>
      </trkpt>
      <trkpt lat="44.0694" lon="2.83154">
        <ele>400</ele>
        <time>2021-09-04T08:12:05Z</time>
      </trkpt>
      <trkpt lat="44.06935" lon="2.83166">
        <ele>402</ele>
        <time>2021-09-04T08:12:09Z</time>
      </trkpt>
      <trkpt lat="44.06933" lon="2.83172">
        <ele>402</ele>
        <time>2021-09-04T08:12:12Z</time>
      </trkpt>
      <trkpt lat="44.06931" lon="2.83178">
        <ele>399</ele>
        <time>2021-09-04T08:12:15Z</time>
      </trkpt>
      <trkpt lat="44.06918" lon="2.83195">
        <ele>402</ele>
        <time>2021-09-04T08:12:24Z</time>
      </trkpt>
      <trkpt lat="44.06915" lon="2.83201">
        <ele>403</ele>
        <time>2021-09-04T08:12:28Z</time>
      </trkpt>
      <trkpt lat="44.06895" lon="2.83218">
        <ele>407</ele>
        <time>2021-09-04T08:12:40Z</time>
      </trkpt>
      <trkpt lat="44.06892" lon="2.83223">
        <ele>408</ele>
        <time>2021-09-04T08:12:43Z</time>
      </trkpt>
      <trkpt lat="44.06845" lon="2.83274">
        <ele>406</ele>
        <time>2021-09-04T08:13:14Z</time>
      </trkpt>
      <trkpt lat="44.06834" lon="2.83282">
        <ele>407</ele>
        <time>2021-09-04T08:13:20Z</time>
      </trkpt>
      <trkpt lat="44.06814" lon="2.83291">
        <ele>410</ele>
        <time>2021-09-04T08:13:32Z</time>
      </trkpt>
      <trkpt lat="44.068" lon="2.83301">
        <ele>412</ele>
        <time>2021-09-04T08:13:41Z</time>
      </trkpt>
      <trkpt lat="44.06795" lon="2.83306">
        <ele>412</ele>
        <time>2021-09-04T08:13:44Z</time>
      </trkpt>
      <trkpt lat="44.0679" lon="2.8331">
        <ele>413</ele>
        <time>2021-09-04T08:13:47Z</time>
      </trkpt>
      <trkpt lat="44.06781" lon="2.83321">
        <ele>414</ele>
        <time>2021-09-04T08:13:53Z</time>
      </trkpt>
      <trkpt lat="44.06778" lon="2.83328">
        <ele>415</ele>
        <time>2021-09-04T08:13:56Z</time>
      </trkpt>
      <trkpt lat="44.06775" lon="2.83334">
        <ele>416</ele>
        <time>2021-09-04T08:13:59Z</time>
      </trkpt>
      <trkpt lat="44.06774" lon="2.83342">
        <ele>418</ele>
        <time>2021-09-04T08:14:02Z</time>
      </trkpt>
      <trkpt lat="44.06781" lon="2.83377">
        <ele>420</ele>
        <time>2021-09-04T08:14:18Z</time>
      </trkpt>
      <trkpt lat="44.06783" lon="2.83384">
        <ele>421</ele>
        <time>2021-09-04T08:14:21Z</time>
      </trkpt>
      <trkpt lat="44.06784" lon="2.83399">
        <ele>422</ele>
        <time>2021-09-04T08:14:27Z</time>
      </trkpt>
      <trkpt lat="44.06802" lon="2.8347">
        <ele>424</ele>
        <time>2021-09-04T08:15:00Z</time>
      </trkpt>
      <trkpt lat="44.06809" lon="2.83541">
        <ele>426</ele>
        <time>2021-09-04T08:15:31Z</time>
      </trkpt>
      <trkpt lat="44.06816" lon="2.83575">
        <ele>428</ele>
        <time>2021-09-04T08:15:46Z</time>
      </trkpt>
      <trkpt lat="44.06817" lon="2.83599">
        <ele>430</ele>
        <time>2021-09-04T08:15:57Z</time>
      </trkpt>
      <trkpt lat="44.06815" lon="2.83612">
        <ele>430</ele>
        <time>2021-09-04T08:16:03Z</time>
      </trkpt>
      <trkpt lat="44.0681" lon="2.83626">
        <ele>431</ele>
        <time>2021-09-04T08:16:09Z</time>
      </trkpt>
      <trkpt lat="44.068" lon="2.83642">
        <ele>431</ele>
        <time>2021-09-04T08:16:19Z</time>
      </trkpt>
      <trkpt lat="44.06791" lon="2.83651">
        <ele>432</ele>
        <time>2021-09-04T08:16:26Z</time>
      </trkpt>
      <trkpt lat="44.06787" lon="2.83653">
        <ele>434</ele>
        <time>2021-09-04T08:16:29Z</time>
      </trkpt>
      <trkpt lat="44.06781" lon="2.83656">
        <ele>436</ele>
        <time>2021-09-04T08:16:32Z</time>
      </trkpt>
      <trkpt lat="44.0677" lon="2.8366">
        <ele>438</ele>
        <time>2021-09-04T08:16:39Z</time>
      </trkpt>
      <trkpt lat="44.06766" lon="2.83659">
        <ele>439</ele>
        <time>2021-09-04T08:16:43Z</time>
      </trkpt>
      <trkpt lat="44.06719" lon="2.83659">
        <ele>448</ele>
        <time>2021-09-04T08:17:15Z</time>
      </trkpt>
      <trkpt lat="44.06693" lon="2.83667">
        <ele>456</ele>
        <time>2021-09-04T08:17:33Z</time>
      </trkpt>
      <trkpt lat="44.0667" lon="2.83685">
        <ele>457</ele>
        <time>2021-09-04T08:17:48Z</time>
      </trkpt>
      <trkpt lat="44.06664" lon="2.83695">
        <ele>457</ele>
        <time>2021-09-04T08:17:54Z</time>
      </trkpt>
      <trkpt lat="44.06654" lon="2.83713">
        <ele>457</ele>
        <time>2021-09-04T08:18:04Z</time>
      </trkpt>
      <trkpt lat="44.06652" lon="2.83719">
        <ele>457</ele>
        <time>2021-09-04T08:18:08Z</time>
      </trkpt>
      <trkpt lat="44.0665" lon="2.83725">
        <ele>458</ele>
        <time>2021-09-04T08:18:12Z</time>
      </trkpt>
      <trkpt lat="44.06637" lon="2.83796">
        <ele>458</ele>
        <time>2021-09-04T08:18:44Z</time>
      </trkpt>
      <trkpt lat="44.0662" lon="2.83853">
        <ele>459</ele>
        <time>2021-09-04T08:19:13Z</time>
      </trkpt>
      <trkpt lat="44.06597" lon="2.83907">
        <ele>462</ele>
        <time>2021-09-04T08:19:41Z</time>
      </trkpt>
      <trkpt lat="44.0659" lon="2.83917">
        <ele>463</ele>
        <time>2021-09-04T08:19:47Z</time>
      </trkpt>
      <trkpt lat="44.06581" lon="2.83933">
        <ele>465</ele>
        <time>2021-09-04T08:19:56Z</time>
      </trkpt>
      <trkpt lat="44.06575" lon="2.83954">
        <ele>467</ele>
        <time>2021-09-04T08:20:05Z</time>
      </trkpt>
      <trkpt lat="44.06574" lon="2.8397">
        <ele>468</ele>
        <time>2021-09-04T08:20:11Z</time>
      </trkpt>
      <trkpt lat="44.06574" lon="2.83977">
        <ele>468</ele>
        <time>2021-09-04T08:20:13Z</time>
      </trkpt>
      <trkpt lat="44.06571" lon="2.84032">
        <ele>468</ele>
        <time>2021-09-04T08:20:30Z</time>
      </trkpt>
      <trkpt lat="44.06559" lon="2.84073">
        <ele>471</ele>
        <time>2021-09-04T08:20:44Z</time>
      </trkpt>
      <trkpt lat="44.06558" lon="2.84081">
        <ele>471</ele>
        <time>2021-09-04T08:20:47Z</time>
      </trkpt>
      <trkpt lat="44.06544" lon="2.84155">
        <ele>467</ele>
        <time>2021-09-04T08:21:08Z</time>
      </trkpt>
      <trkpt lat="44.0654" lon="2.84173">
        <ele>466</ele>
        <time>2021-09-04T08:21:12Z</time>
      </trkpt>
      <trkpt lat="44.06538" lon="2.84182">
        <ele>466</ele>
        <time>2021-09-04T08:21:14Z</time>
      </trkpt>
      <trkpt lat="44.06533" lon="2.84191">
        <ele>465</ele>
        <time>2021-09-04T08:21:16Z</time>
      </trkpt>
      <trkpt lat="44.06516" lon="2.84203">
        <ele>464</ele>
        <time>2021-09-04T08:21:20Z</time>
      </trkpt>
      <trkpt lat="44.06479" lon="2.84213">
        <ele>463</ele>
        <time>2021-09-04T08:21:26Z</time>
      </trkpt>
      <trkpt lat="44.06474" lon="2.84217">
        <ele>462</ele>
        <time>2021-09-04T08:21:27Z</time>
      </trkpt>
      <trkpt lat="44.06469" lon="2.84223">
        <ele>462</ele>
        <time>2021-09-04T08:21:28Z</time>
      </trkpt>
      <trkpt lat="44.06391" lon="2.84436">
        <ele>447</ele>
        <time>2021-09-04T08:21:48Z</time>
      </trkpt>
      <trkpt lat="44.06387" lon="2.84454">
        <ele>445</ele>
        <time>2021-09-04T08:21:50Z</time>
      </trkpt>
      <trkpt lat="44.06386" lon="2.84464">
        <ele>443</ele>
        <time>2021-09-04T08:21:51Z</time>
      </trkpt>
      <trkpt lat="44.06387" lon="2.84473">
        <ele>442</ele>
        <time>2021-09-04T08:21:52Z</time>
      </trkpt>
      <trkpt lat="44.06389" lon="2.84481">
        <ele>441</ele>
        <time>2021-09-04T08:21:53Z</time>
      </trkpt>
      <trkpt lat="44.0642" lon="2.84512">
        <ele>437</ele>
        <time>2021-09-04T08:21:58Z</time>
      </trkpt>
      <trkpt lat="44.06431" lon="2.84532">
        <ele>437</ele>
        <time>2021-09-04T08:22:00Z</time>
      </trkpt>
      <trkpt lat="44.06442" lon="2.84566">
        <ele>434</ele>
        <time>2021-09-04T08:22:03Z</time>
      </trkpt>
      <trkpt lat="44.06445" lon="2.84576">
        <ele>433</ele>
        <time>2021-09-04T08:22:04Z</time>
      </trkpt>
      <trkpt lat="44.0645" lon="2.84584">
        <ele>432</ele>
        <time>2021-09-04T08:22:05Z</time>
      </trkpt>
      <trkpt lat="44.06456" lon="2.84592">
        <ele>430</ele>
        <time>2021-09-04T08:22:06Z</time>
      </trkpt>
      <trkpt lat="44.06555" lon="2.84644">
        <ele>420</ele>
        <time>2021-09-04T08:22:17Z</time>
      </trkpt>
      <trkpt lat="44.06568" lon="2.84656">
        <ele>419</ele>
        <time>2021-09-04T08:22:19Z</time>
      </trkpt>
      <trkpt lat="44.06578" lon="2.84676">
        <ele>419</ele>
        <time>2021-09-04T08:22:21Z</time>
      </trkpt>
      <trkpt lat="44.06592" lon="2.84734">
        <ele>413</ele>
        <time>2021-09-04T08:22:26Z</time>
      </trkpt>
      <trkpt lat="44.06601" lon="2.84752">
        <ele>410</ele>
        <time>2021-09-04T08:22:28Z</time>
      </trkpt>
      <trkpt lat="44.06607" lon="2.84759">
        <ele>409</ele>
        <time>2021-09-04T08:22:29Z</time>
      </trkpt>
      <trkpt lat="44.06674" lon="2.84791">
        <ele>403</ele>
        <time>2021-09-04T08:22:37Z</time>
      </trkpt>
      <trkpt lat="44.06688" lon="2.84806">
        <ele>402</ele>
        <time>2021-09-04T08:22:39Z</time>
      </trkpt>
      <trkpt lat="44.06693" lon="2.84814">
        <ele>402</ele>
        <time>2021-09-04T08:22:40Z</time>
      </trkpt>
      <trkpt lat="44.06696" lon="2.84834">
        <ele>401</ele>
        <time>2021-09-04T08:22:42Z</time>
      </trkpt>
      <trkpt lat="44.06698" lon="2.84892">
        <ele>395</ele>
        <time>2021-09-04T08:22:47Z</time>
      </trkpt>
      <trkpt lat="44.067" lon="2.84903">
        <ele>393</ele>
        <time>2021-09-04T08:22:48Z</time>
      </trkpt>
      <trkpt lat="44.06704" lon="2.84913">
        <ele>393</ele>
        <time>2021-09-04T08:22:49Z</time>
      </trkpt>
      <trkpt lat="44.06717" lon="2.84929">
        <ele>390</ele>
        <time>2021-09-04T08:22:51Z</time>
      </trkpt>
      <trkpt lat="44.06771" lon="2.84956">
        <ele>385</ele>
        <time>2021-09-04T08:22:57Z</time>
      </trkpt>
      <trkpt lat="44.06808" lon="2.84963">
        <ele>382</ele>
        <time>2021-09-04T08:23:01Z</time>
      </trkpt>
      <trkpt lat="44.06883" lon="2.84954">
        <ele>377</ele>
        <time>2021-09-04T08:23:09Z</time>
      </trkpt>
      <trkpt lat="44.06901" lon="2.84958">
        <ele>376</ele>
        <time>2021-09-04T08:23:11Z</time>
      </trkpt>
      <trkpt lat="44.06909" lon="2.84962">
        <ele>376</ele>
        <time>2021-09-04T08:23:12Z</time>
      </trkpt>
      <trkpt lat="44.06917" lon="2.8497">
        <ele>376</ele>
        <time>2021-09-04T08:23:13Z</time>
      </trkpt>
      <trkpt lat="44.06923" lon="2.8498">
        <ele>376</ele>
        <time>2021-09-04T08:23:14Z</time>
      </trkpt>
      <trkpt lat="44.06928" lon="2.84991">
        <ele>375</ele>
        <time>2021-09-04T08:23:15Z</time>
      </trkpt>
      <trkpt lat="44.06929" lon="2.85003">
        <ele>375</ele>
        <time>2021-09-04T08:23:16Z</time>
      </trkpt>
      <trkpt lat="44.06928" lon="2.85015">
        <ele>375</ele>
        <time>2021-09-04T08:23:17Z</time>
      </trkpt>
      <trkpt lat="44.06925" lon="2.85025">
        <ele>374</ele>
        <time>2021-09-04T08:23:18Z</time>
      </trkpt>
      <trkpt lat="44.06919" lon="2.85034">
        <ele>374</ele>
        <time>2021-09-04T08:23:19Z</time>
      </trkpt>
      <trkpt lat="44.06832" lon="2.8511">
        <ele>371</ele>
        <time>2021-09-04T08:23:51Z</time>
      </trkpt>
      <trkpt lat="44.06777" lon="2.8514">
        <ele>385</ele>
        <time>2021-09-04T08:24:16Z</time>
      </trkpt>
      <trkpt lat="44.06771" lon="2.85144">
        <ele>385</ele>
        <time>2021-09-04T08:24:20Z</time>
      </trkpt>
      <trkpt lat="44.06772" lon="2.8515">
        <ele>388</ele>
        <time>2021-09-04T08:27:19Z</time>
      </trkpt>
      <trkpt lat="44.06769" lon="2.85159">
        <ele>388</ele>
        <time>2021-09-04T08:27:29Z</time>
      </trkpt>
      <trkpt lat="44.06761" lon="2.8517">
        <ele>393</ele>
        <time>2021-09-04T08:27:34Z</time>
      </trkpt>
      <trkpt lat="44.06721" lon="2.85233">
        <ele>396</ele>
        <time>2021-09-04T08:28:07Z</time>
      </trkpt>
      <trkpt lat="44.06715" lon="2.85247">
        <ele>395</ele>
        <time>2021-09-04T08:28:13Z</time>
      </trkpt>
      <trkpt lat="44.06707" lon="2.85269">
        <ele>394</ele>
        <time>2021-09-04T08:28:22Z</time>
      </trkpt>
      <trkpt lat="44.067" lon="2.85328">
        <ele>395</ele>
        <time>2021-09-04T08:28:44Z</time>
      </trkpt>
      <trkpt lat="44.0667" lon="2.85415">
        <ele>391</ele>
        <time>2021-09-04T08:29:14Z</time>
      </trkpt>
      <trkpt lat="44.06649" lon="2.85493">
        <ele>394</ele>
        <time>2021-09-04T08:29:43Z</time>
      </trkpt>
      <trkpt lat="44.06641" lon="2.85557">
        <ele>397</ele>
        <time>2021-09-04T08:29:59Z</time>
      </trkpt>
      <trkpt lat="44.06643" lon="2.85591">
        <ele>397</ele>
        <time>2021-09-04T08:30:04Z</time>
      </trkpt>
      <trkpt lat="44.06642" lon="2.85615">
        <ele>397</ele>
        <time>2021-09-04T08:30:07Z</time>
      </trkpt>
      <trkpt lat="44.0663" lon="2.8567">
        <ele>395</ele>
        <time>2021-09-04T08:30:14Z</time>
      </trkpt>
      <trkpt lat="44.06629" lon="2.85688">
        <ele>395</ele>
        <time>2021-09-04T08:30:16Z</time>
      </trkpt>
      <trkpt lat="44.06642" lon="2.85853">
        <ele>387</ele>
        <time>2021-09-04T08:30:31Z</time>
      </trkpt>
      <trkpt lat="44.06634" lon="2.85937">
        <ele>382</ele>
        <time>2021-09-04T08:30:42Z</time>
      </trkpt>
      <trkpt lat="44.06632" lon="2.85944">
        <ele>381</ele>
        <time>2021-09-04T08:30:44Z</time>
      </trkpt>
      <trkpt lat="44.06641" lon="2.85985">
        <ele>377</ele>
        <time>2021-09-04T08:30:53Z</time>
      </trkpt>
      <trkpt lat="44.06641" lon="2.86001">
        <ele>376</ele>
        <time>2021-09-04T08:30:55Z</time>
      </trkpt>
      <trkpt lat="44.06638" lon="2.86017">
        <ele>376</ele>
        <time>2021-09-04T08:30:57Z</time>
      </trkpt>
      <trkpt lat="44.0663" lon="2.8604">
        <ele>376</ele>
        <time>2021-09-04T08:31:00Z</time>
      </trkpt>
      <trkpt lat="44.06622" lon="2.86053">
        <ele>376</ele>
        <time>2021-09-04T08:31:02Z</time>
      </trkpt>
      <trkpt lat="44.06591" lon="2.86075">
        <ele>376</ele>
        <time>2021-09-04T08:31:08Z</time>
      </trkpt>
      <trkpt lat="44.06524" lon="2.86114">
        <ele>379</ele>
        <time>2021-09-04T08:31:24Z</time>
      </trkpt>
      <trkpt lat="44.06515" lon="2.86117">
        <ele>380</ele>
        <time>2021-09-04T08:34:21Z</time>
      </trkpt>
      <trkpt lat="44.06516" lon="2.86123">
        <ele>380</ele>
        <time>2021-09-04T08:34:31Z</time>
      </trkpt>
      <trkpt lat="44.06511" lon="2.86141">
        <ele>379</ele>
        <time>2021-09-04T08:34:35Z</time>
      </trkpt>
      <trkpt lat="44.06508" lon="2.8616">
        <ele>378</ele>
        <time>2021-09-04T08:34:38Z</time>
      </trkpt>
      <trkpt lat="44.06511" lon="2.86175">
        <ele>376</ele>
        <time>2021-09-04T08:34:40Z</time>
      </trkpt>
      <trkpt lat="44.06518" lon="2.86188">
        <ele>374</ele>
        <time>2021-09-04T08:34:42Z</time>
      </trkpt>
      <trkpt lat="44.06542" lon="2.86218">
        <ele>371</ele>
        <time>2021-09-04T08:34:47Z</time>
      </trkpt>
      <trkpt lat="44.0655" lon="2.86232">
        <ele>370</ele>
        <time>2021-09-04T08:34:49Z</time>
      </trkpt>
      <trkpt lat="44.06553" lon="2.86249">
        <ele>370</ele>
        <time>2021-09-04T08:34:51Z</time>
      </trkpt>
      <trkpt lat="44.06553" lon="2.86258">
        <ele>369</ele>
        <time>2021-09-04T08:34:52Z</time>
      </trkpt>
      <trkpt lat="44.06549" lon="2.86275">
        <ele>369</ele>
        <time>2021-09-04T08:34:54Z</time>
      </trkpt>
      <trkpt lat="44.06545" lon="2.86282">
        <ele>368</ele>
        <time>2021-09-04T08:34:55Z</time>
      </trkpt>
      <trkpt lat="44.06533" lon="2.86296">
        <ele>369</ele>
        <time>2021-09-04T08:34:57Z</time>
      </trkpt>
      <trkpt lat="44.06519" lon="2.863">
        <ele>368</ele>
        <time>2021-09-04T08:34:59Z</time>
      </trkpt>
      <trkpt lat="44.06428" lon="2.86292">
        <ele>364</ele>
        <time>2021-09-04T08:35:12Z</time>
      </trkpt>
      <trkpt lat="44.064" lon="2.86296">
        <ele>364</ele>
        <time>2021-09-04T08:35:16Z</time>
      </trkpt>
      <trkpt lat="44.06381" lon="2.86307">
        <ele>364</ele>
        <time>2021-09-04T08:35:19Z</time>
      </trkpt>
      <trkpt lat="44.06359" lon="2.86333">
        <ele>362</ele>
        <time>2021-09-04T08:35:23Z</time>
      </trkpt>
      <trkpt lat="44.06322" lon="2.86396">
        <ele>360</ele>
        <time>2021-09-04T08:35:31Z</time>
      </trkpt>
      <trkpt lat="44.06309" lon="2.86406">
        <ele>359</ele>
        <time>2021-09-04T08:35:33Z</time>
      </trkpt>
      <trkpt lat="44.06287" lon="2.8641">
        <ele>360</ele>
        <time>2021-09-04T08:35:36Z</time>
      </trkpt>
      <trkpt lat="44.06192" lon="2.86419">
        <ele>355</ele>
        <time>2021-09-04T08:35:49Z</time>
      </trkpt>
      <trkpt lat="44.06178" lon="2.86423">
        <ele>354</ele>
        <time>2021-09-04T08:35:51Z</time>
      </trkpt>
      <trkpt lat="44.06165" lon="2.86434">
        <ele>352</ele>
        <time>2021-09-04T08:35:53Z</time>
      </trkpt>
      <trkpt lat="44.06085" lon="2.86564">
        <ele>341</ele>
        <time>2021-09-04T08:36:08Z</time>
      </trkpt>
      <trkpt lat="44.05986" lon="2.86635">
        <ele>327</ele>
        <time>2021-09-04T08:36:21Z</time>
      </trkpt>
      <trkpt lat="44.05947" lon="2.86658">
        <ele>322</ele>
        <time>2021-09-04T08:36:26Z</time>
      </trkpt>
      <trkpt lat="44.05906" lon="2.86703">
        <ele>316</ele>
        <time>2021-09-04T08:36:32Z</time>
      </trkpt>
      <trkpt lat="44.05888" lon="2.86729">
        <ele>313</ele>
        <time>2021-09-04T08:36:35Z</time>
      </trkpt>
      <trkpt lat="44.05875" lon="2.8674">
        <ele>312</ele>
        <time>2021-09-04T08:36:37Z</time>
      </trkpt>
      <trkpt lat="44.05848" lon="2.86748">
        <ele>309</ele>
        <time>2021-09-04T08:36:43Z</time>
      </trkpt>
      <trkpt lat="44.05844" lon="2.86752">
        <ele>309</ele>
        <time>2021-09-04T08:36:45Z</time>
      </trkpt>
      <trkpt lat="44.05808" lon="2.86815">
        <ele>303</ele>
        <time>2021-09-04T08:37:05Z</time>
      </trkpt>
      <trkpt lat="44.05792" lon="2.86836">
        <ele>297</ele>
        <time>2021-09-04T08:37:13Z</time>
      </trkpt>
      <trkpt lat="44.05789" lon="2.86841">
        <ele>297</ele>
        <time>2021-09-04T08:37:15Z</time>
      </trkpt>
      <trkpt lat="44.05786" lon="2.86853">
        <ele>295</ele>
        <time>2021-09-04T08:37:19Z</time>
      </trkpt>
      <trkpt lat="44.05783" lon="2.8689">
        <ele>294</ele>
        <time>2021-09-04T08:37:29Z</time>
      </trkpt>
      <trkpt lat="44.05782" lon="2.86905">
        <ele>293</ele>
        <time>2021-09-04T08:37:35Z</time>
      </trkpt>
      <trkpt lat="44.05784" lon="2.86922">
        <ele>296</ele>
        <time>2021-09-04T08:37:42Z</time>
      </trkpt>
      <trkpt lat="44.05792" lon="2.86939">
        <ele>298</ele>
        <time>2021-09-04T08:37:46Z</time>
      </trkpt>
      <trkpt lat="44.05798" lon="2.86945">
        <ele>298</ele>
        <time>2021-09-04T08:37:48Z</time>
      </trkpt>
      <trkpt lat="44.0586" lon="2.86983">
        <ele>305</ele>
        <time>2021-09-04T08:38:04Z</time>
      </trkpt>
      <trkpt lat="44.05874" lon="2.86987">
        <ele>307</ele>
        <time>2021-09-04T08:38:08Z</time>
      </trkpt>
      <trkpt lat="44.05904" lon="2.86983">
        <ele>312</ele>
        <time>2021-09-04T08:38:16Z</time>
      </trkpt>
      <trkpt lat="44.05913" lon="2.86995">
        <ele>313</ele>
        <time>2021-09-04T08:38:20Z</time>
      </trkpt>
      <trkpt lat="44.05914" lon="2.87014">
        <ele>314</ele>
        <time>2021-09-04T08:38:24Z</time>
      </trkpt>
      <trkpt lat="44.0591" lon="2.87061">
        <ele>313</ele>
        <time>2021-09-04T08:38:32Z</time>
      </trkpt>
      <trkpt lat="44.05909" lon="2.87068">
        <ele>313</ele>
        <time>2021-09-04T08:38:33Z</time>
      </trkpt>
      <trkpt lat="44.05908" lon="2.87074">
        <ele>313</ele>
        <time>2021-09-04T08:38:34Z</time>
      </trkpt>
      <trkpt lat="44.05904" lon="2.87079">
        <ele>313</ele>
        <time>2021-09-04T08:38:35Z</time>
      </trkpt>
      <trkpt lat="44.05901" lon="2.87083">
        <ele>313</ele>
        <time>2021-09-04T08:38:36Z</time>
      </trkpt>
      <trkpt lat="44.05894" lon="2.87087">
        <ele>313</ele>
        <time>2021-09-04T08:38:38Z</time>
      </trkpt>
      <trkpt lat="44.05867" lon="2.87079">
        <ele>317</ele>
        <time>2021-09-04T08:38:50Z</time>
      </trkpt>
      <trkpt lat="44.05846" lon="2.8708">
        <ele>318</ele>
        <time>2021-09-04T08:39:02Z</time>
      </trkpt>
      <trkpt lat="44.05794" lon="2.87088">
        <ele>323</ele>
        <time>2021-09-04T08:39:33Z</time>
      </trkpt>
      <trkpt lat="44.05789" lon="2.87089">
        <ele>324</ele>
        <time>2021-09-04T08:39:36Z</time>
      </trkpt>
      <trkpt lat="44.05772" lon="2.87097">
        <ele>327</ele>
        <time>2021-09-04T08:39:45Z</time>
      </trkpt>
      <trkpt lat="44.05768" lon="2.87101">
        <ele>327</ele>
        <time>2021-09-04T08:39:48Z</time>
      </trkpt>
      <trkpt lat="44.05766" lon="2.87107">
        <ele>328</ele>
        <time>2021-09-04T08:39:51Z</time>
      </trkpt>
      <trkpt lat="44.05764" lon="2.87114">
        <ele>327</ele>
        <time>2021-09-04T08:39:53Z</time>
      </trkpt>
      <trkpt lat="44.05745" lon="2.87143">
        <ele>326</ele>
        <time>2021-09-04T08:40:01Z</time>
      </trkpt>
      <trkpt lat="44.05674" lon="2.87273">
        <ele>312</ele>
        <time>2021-09-04T08:40:31Z</time>
      </trkpt>
      <trkpt lat="44.05626" lon="2.87369">
        <ele>309</ele>
        <time>2021-09-04T08:40:46Z</time>
      </trkpt>
      <trkpt lat="44.0554" lon="2.87617">
        <ele>303</ele>
        <time>2021-09-04T08:41:15Z</time>
      </trkpt>
      <trkpt lat="44.055" lon="2.87842">
        <ele>299</ele>
        <time>2021-09-04T08:41:45Z</time>
      </trkpt>
      <trkpt lat="44.05486" lon="2.87902">
        <ele>298</ele>
        <time>2021-09-04T08:41:54Z</time>
      </trkpt>
      <trkpt lat="44.05441" lon="2.88">
        <ele>296</ele>
        <time>2021-09-04T08:42:11Z</time>
      </trkpt>
      <trkpt lat="44.05394" lon="2.88068">
        <ele>298</ele>
        <time>2021-09-04T08:42:25Z</time>
      </trkpt>
      <trkpt lat="44.05277" lon="2.88176">
        <ele>306</ele>
        <time>2021-09-04T08:42:57Z</time>
      </trkpt>
      <trkpt lat="44.05236" lon="2.88201">
        <ele>305</ele>
        <time>2021-09-04T08:43:07Z</time>
      </trkpt>
      <trkpt lat="44.05101" lon="2.88252">
        <ele>312</ele>
        <time>2021-09-04T08:43:37Z</time>
      </trkpt>
      <trkpt lat="44.05029" lon="2.88301">
        <ele>312</ele>
        <time>2021-09-04T08:43:54Z</time>
      </trkpt>
      <trkpt lat="44.04946" lon="2.88383">
        <ele>309</ele>
        <time>2021-09-04T08:44:16Z</time>
      </trkpt>
      <trkpt lat="44.04926" lon="2.88417">
        <ele>308</ele>
        <time>2021-09-04T08:44:23Z</time>
      </trkpt>
      <trkpt lat="44.04905" lon="2.88477">
        <ele>308</ele>
        <time>2021-09-04T08:44:33Z</time>
      </trkpt>
      <trkpt lat="44.04897" lon="2.88512">
        <ele>308</ele>
        <time>2021-09-04T08:44:39Z</time>
      </trkpt>
      <trkpt lat="44.04889" lon="2.88737">
        <ele>304</ele>
        <time>2021-09-04T08:45:10Z</time>
      </trkpt>
      <trkpt lat="44.04894" lon="2.8878">
        <ele>302</ele>
        <time>2021-09-04T08:45:15Z</time>
      </trkpt>
      <trkpt lat="44.04925" lon="2.8886">
        <ele>301</ele>
        <time>2021-09-04T08:45:28Z</time>
      </trkpt>
      <trkpt lat="44.04982" lon="2.88954">
        <ele>306</ele>
        <time>2021-09-04T08:45:49Z</time>
      </trkpt>
      <trkpt lat="44.05074" lon="2.89084">
        <ele>305</ele>
        <time>2021-09-04T08:46:19Z</time>
      </trkpt>
      <trkpt lat="44.05125" lon="2.89165">
        <ele>304</ele>
        <time>2021-09-04T08:46:36Z</time>
      </trkpt>
      <trkpt lat="44.05191" lon="2.89328">
        <ele>308</ele>
        <time>2021-09-04T08:47:06Z</time>
      </trkpt>
      <trkpt lat="44.05206" lon="2.89372">
        <ele>306</ele>
        <time>2021-09-04T08:47:16Z</time>
      </trkpt>
      <trkpt lat="44.05207" lon="2.89378">
        <ele>305</ele>
        <time>2021-09-04T08:47:18Z</time>
      </trkpt>
      <trkpt lat="44.05206" lon="2.89384">
        <ele>305</ele>
        <time>2021-09-04T08:47:21Z</time>
      </trkpt>
      <trkpt lat="44.0521" lon="2.89391">
        <ele>307</ele>
        <time>2021-09-04T08:47:51Z</time>
      </trkpt>
      <trkpt lat="44.05225" lon="2.89453">
        <ele>311</ele>
        <time>2021-09-04T08:48:22Z</time>
      </trkpt>
      <trkpt lat="44.05235" lon="2.89483">
        <ele>311</ele>
        <time>2021-09-04T08:48:30Z</time>
      </trkpt>
      <trkpt lat="44.05257" lon="2.89521">
        <ele>309</ele>
        <time>2021-09-04T08:48:40Z</time>
      </trkpt>
      <trkpt lat="44.05348" lon="2.89646">
        <ele>306</ele>
        <time>2021-09-04T08:49:12Z</time>
      </trkpt>
      <trkpt lat="44.05437" lon="2.89713">
        <ele>304</ele>
        <time>2021-09-04T08:49:34Z</time>
      </trkpt>
      <trkpt lat="44.05564" lon="2.89765">
        <ele>285</ele>
        <time>2021-09-04T08:50:04Z</time>
      </trkpt>
      <trkpt lat="44.05669" lon="2.89804">
        <ele>282</ele>
        <time>2021-09-04T08:50:27Z</time>
      </trkpt>
      <trkpt lat="44.05724" lon="2.89845">
        <ele>286</ele>
        <time>2021-09-04T08:50:41Z</time>
      </trkpt>
      <trkpt lat="44.0578" lon="2.89915">
        <ele>282</ele>
        <time>2021-09-04T08:50:59Z</time>
      </trkpt>
      <trkpt lat="44.05802" lon="2.89947">
        <ele>279</ele>
        <time>2021-09-04T08:51:07Z</time>
      </trkpt>
      <trkpt lat="44.05813" lon="2.89963">
        <ele>276</ele>
        <time>2021-09-04T08:51:11Z</time>
      </trkpt>
      <trkpt lat="44.05836" lon="2.90005">
        <ele>276</ele>
        <time>2021-09-04T08:51:19Z</time>
      </trkpt>
      <trkpt lat="44.05894" lon="2.90166">
        <ele>288</ele>
        <time>2021-09-04T08:51:50Z</time>
      </trkpt>
      <trkpt lat="44.05896" lon="2.90172">
        <ele>289</ele>
        <time>2021-09-04T08:51:51Z</time>
      </trkpt>
      <trkpt lat="44.05895" lon="2.90191">
        <ele>291</ele>
        <time>2021-09-04T08:51:55Z</time>
      </trkpt>
      <trkpt lat="44.05893" lon="2.90197">
        <ele>293</ele>
        <time>2021-09-04T08:51:57Z</time>
      </trkpt>
      <trkpt lat="44.05889" lon="2.90204">
        <ele>295</ele>
        <time>2021-09-04T08:53:31Z</time>
      </trkpt>
      <trkpt lat="44.05883" lon="2.90206">
        <ele>297</ele>
        <time>2021-09-04T08:53:33Z</time>
      </trkpt>
      <trkpt lat="44.05763" lon="2.9024">
        <ele>306</ele>
        <time>2021-09-04T08:54:01Z</time>
      </trkpt>
      <trkpt lat="44.05757" lon="2.90241">
        <ele>307</ele>
        <time>2021-09-04T08:54:02Z</time>
      </trkpt>
      <trkpt lat="44.05746" lon="2.90239">
        <ele>309</ele>
        <time>2021-09-04T08:54:04Z</time>
      </trkpt>
      <trkpt lat="44.05741" lon="2.90236">
        <ele>309</ele>
        <time>2021-09-04T08:54:05Z</time>
      </trkpt>
      <trkpt lat="44.05724" lon="2.90217">
        <ele>312</ele>
        <time>2021-09-04T08:54:11Z</time>
      </trkpt>
      <trkpt lat="44.05701" lon="2.90162">
        <ele>316</ele>
        <time>2021-09-04T08:54:28Z</time>
      </trkpt>
      <trkpt lat="44.05686" lon="2.90143">
        <ele>320</ele>
        <time>2021-09-04T08:54:37Z</time>
      </trkpt>
      <trkpt lat="44.05682" lon="2.90138">
        <ele>321</ele>
        <time>2021-09-04T08:54:40Z</time>
      </trkpt>
      <trkpt lat="44.05678" lon="2.90133">
        <ele>322</ele>
        <time>2021-09-04T08:54:43Z</time>
      </trkpt>
      <trkpt lat="44.05673" lon="2.90129">
        <ele>323</ele>
        <time>2021-09-04T08:54:46Z</time>
      </trkpt>
      <trkpt lat="44.05657" lon="2.90121">
        <ele>327</ele>
        <time>2021-09-04T08:54:55Z</time>
      </trkpt>
      <trkpt lat="44.05652" lon="2.90118">
        <ele>328</ele>
        <time>2021-09-04T08:54:58Z</time>
      </trkpt>
      <trkpt lat="44.05646" lon="2.90115">
        <ele>330</ele>
        <time>2021-09-04T08:55:01Z</time>
      </trkpt>
      <trkpt lat="44.05635" lon="2.90109">
        <ele>332</ele>
        <time>2021-09-04T08:55:07Z</time>
      </trkpt>
      <trkpt lat="44.05625" lon="2.90102">
        <ele>334</ele>
        <time>2021-09-04T08:55:13Z</time>
      </trkpt>
      <trkpt lat="44.056" lon="2.9009">
        <ele>336</ele>
        <time>2021-09-04T08:55:28Z</time>
      </trkpt>
      <trkpt lat="44.05594" lon="2.90088">
        <ele>336</ele>
        <time>2021-09-04T08:55:31Z</time>
      </trkpt>
      <trkpt lat="44.05588" lon="2.90086">
        <ele>336</ele>
        <time>2021-09-04T08:55:34Z</time>
      </trkpt>
      <trkpt lat="44.05563" lon="2.90073">
        <ele>339</ele>
        <time>2021-09-04T08:55:49Z</time>
      </trkpt>
      <trkpt lat="44.05557" lon="2.90072">
        <ele>339</ele>
        <time>2021-09-04T08:55:52Z</time>
      </trkpt>
      <trkpt lat="44.05552" lon="2.90069">
        <ele>339</ele>
        <time>2021-09-04T08:55:55Z</time>
      </trkpt>
      <trkpt lat="44.05548" lon="2.90067">
        <ele>340</ele>
        <time>2021-09-04T08:55:58Z</time>
      </trkpt>
      <trkpt lat="44.05543" lon="2.90065">
        <ele>341</ele>
        <time>2021-09-04T08:56:01Z</time>
      </trkpt>
      <trkpt lat="44.05534" lon="2.90061">
        <ele>343</ele>
        <time>2021-09-04T08:56:07Z</time>
      </trkpt>
      <trkpt lat="44.05475" lon="2.90033">
        <ele>348</ele>
        <time>2021-09-04T08:56:40Z</time>
      </trkpt>
      <trkpt lat="44.05464" lon="2.90029">
        <ele>349</ele>
        <time>2021-09-04T08:56:46Z</time>
      </trkpt>
      <trkpt lat="44.05405" lon="2.9003">
        <ele>354</ele>
        <time>2021-09-04T08:57:16Z</time>
      </trkpt>
      <trkpt lat="44.05388" lon="2.90027">
        <ele>356</ele>
        <time>2021-09-04T08:57:24Z</time>
      </trkpt>
      <trkpt lat="44.05327" lon="2.89995">
        <ele>361</ele>
        <time>2021-09-04T08:57:56Z</time>
      </trkpt>
      <trkpt lat="44.05279" lon="2.89977">
        <ele>365</ele>
        <time>2021-09-04T08:58:16Z</time>
      </trkpt>
      <trkpt lat="44.05217" lon="2.89961">
        <ele>375</ele>
        <time>2021-09-04T08:58:45Z</time>
      </trkpt>
      <trkpt lat="44.05155" lon="2.89937">
        <ele>382</ele>
        <time>2021-09-04T08:59:16Z</time>
      </trkpt>
      <trkpt lat="44.05096" lon="2.89894">
        <ele>386</ele>
        <time>2021-09-04T08:59:47Z</time>
      </trkpt>
      <trkpt lat="44.05065" lon="2.89878">
        <ele>386</ele>
        <time>2021-09-04T09:00:02Z</time>
      </trkpt>
      <trkpt lat="44.0506" lon="2.89875">
        <ele>386</ele>
        <time>2021-09-04T09:00:05Z</time>
      </trkpt>
      <trkpt lat="44.0505" lon="2.8987">
        <ele>386</ele>
        <time>2021-09-04T09:00:09Z</time>
      </trkpt>
      <trkpt lat="44.05046" lon="2.89864">
        <ele>386</ele>
        <time>2021-09-04T09:00:12Z</time>
      </trkpt>
      <trkpt lat="44.04984" lon="2.89822">
        <ele>387</ele>
        <time>2021-09-04T09:00:44Z</time>
      </trkpt>
      <trkpt lat="44.04955" lon="2.89811">
        <ele>390</ele>
        <time>2021-09-04T09:00:59Z</time>
      </trkpt>
      <trkpt lat="44.04949" lon="2.89811">
        <ele>390</ele>
        <time>2021-09-04T09:01:09Z</time>
      </trkpt>
      <trkpt lat="44.04944" lon="2.89807">
        <ele>390</ele>
        <time>2021-09-04T09:01:13Z</time>
      </trkpt>
      <trkpt lat="44.04939" lon="2.89802">
        <ele>389</ele>
        <time>2021-09-04T09:01:15Z</time>
      </trkpt>
      <trkpt lat="44.04898" lon="2.89764">
        <ele>388</ele>
        <time>2021-09-04T09:01:36Z</time>
      </trkpt>
      <trkpt lat="44.04894" lon="2.89759">
        <ele>389</ele>
        <time>2021-09-04T09:01:38Z</time>
      </trkpt>
      <trkpt lat="44.04892" lon="2.89754">
        <ele>389</ele>
        <time>2021-09-04T09:01:43Z</time>
      </trkpt>
      <trkpt lat="44.04888" lon="2.8975">
        <ele>390</ele>
        <time>2021-09-04T09:01:56Z</time>
      </trkpt>
      <trkpt lat="44.04882" lon="2.89747">
        <ele>389</ele>
        <time>2021-09-04T09:01:59Z</time>
      </trkpt>
      <trkpt lat="44.04877" lon="2.89749">
        <ele>388</ele>
        <time>2021-09-04T09:02:11Z</time>
      </trkpt>
      <trkpt lat="44.04867" lon="2.89752">
        <ele>386</ele>
        <time>2021-09-04T09:02:17Z</time>
      </trkpt>
      <trkpt lat="44.0487" lon="2.89747">
        <ele>383</ele>
        <time>2021-09-04T09:02:21Z</time>
      </trkpt>
      <trkpt lat="44.04871" lon="2.8974">
        <ele>381</ele>
        <time>2021-09-04T09:02:23Z</time>
      </trkpt>
      <trkpt lat="44.04872" lon="2.89734">
        <ele>379</ele>
        <time>2021-09-04T09:02:25Z</time>
      </trkpt>
      <trkpt lat="44.04868" lon="2.89728">
        <ele>376</ele>
        <time>2021-09-04T09:02:29Z</time>
      </trkpt>
      <trkpt lat="44.04859" lon="2.89719">
        <ele>374</ele>
        <time>2021-09-04T09:02:34Z</time>
      </trkpt>
      <trkpt lat="44.04855" lon="2.89716">
        <ele>374</ele>
        <time>2021-09-04T09:02:40Z</time>
      </trkpt>
      <trkpt lat="44.0485" lon="2.89716">
        <ele>375</ele>
        <time>2021-09-04T09:02:44Z</time>
      </trkpt>
      <trkpt lat="44.04845" lon="2.89712">
        <ele>374</ele>
        <time>2021-09-04T09:02:47Z</time>
      </trkpt>
      <trkpt lat="44.04844" lon="2.89704">
        <ele>374</ele>
        <time>2021-09-04T09:02:49Z</time>
      </trkpt>
      <trkpt lat="44.04842" lon="2.89696">
        <ele>374</ele>
        <time>2021-09-04T09:02:52Z</time>
      </trkpt>
      <trkpt lat="44.04838" lon="2.89692">
        <ele>372</ele>
        <time>2021-09-04T09:02:56Z</time>
      </trkpt>
      <trkpt lat="44.04832" lon="2.89691">
        <ele>372</ele>
        <time>2021-09-04T09:02:59Z</time>
      </trkpt>
      <trkpt lat="44.04826" lon="2.89688">
        <ele>373</ele>
        <time>2021-09-04T09:03:02Z</time>
      </trkpt>
      <trkpt lat="44.0482" lon="2.89682">
        <ele>373</ele>
        <time>2021-09-04T09:03:05Z</time>
      </trkpt>
      <trkpt lat="44.0482" lon="2.89673">
        <ele>372</ele>
        <time>2021-09-04T09:03:08Z</time>
      </trkpt>
      <trkpt lat="44.04824" lon="2.89639">
        <ele>369</ele>
        <time>2021-09-04T09:03:16Z</time>
      </trkpt>
      <trkpt lat="44.04825" lon="2.89629">
        <ele>368</ele>
        <time>2021-09-04T09:03:19Z</time>
      </trkpt>
      <trkpt lat="44.04825" lon="2.89622">
        <ele>367</ele>
        <time>2021-09-04T09:03:22Z</time>
      </trkpt>
      <trkpt lat="44.04819" lon="2.89621">
        <ele>368</ele>
        <time>2021-09-04T09:03:49Z</time>
      </trkpt>
      <trkpt lat="44.04814" lon="2.89638">
        <ele>370</ele>
        <time>2021-09-04T09:04:08Z</time>
      </trkpt>
      <trkpt lat="44.04818" lon="2.89631">
        <ele>370</ele>
        <time>2021-09-04T09:04:28Z</time>
      </trkpt>
      <trkpt lat="44.04792" lon="2.89575">
        <ele>270</ele>
        <time>2021-09-04T09:07:40Z</time>
      </trkpt>
      <trkpt lat="44.04798" lon="2.89569">
        <ele>261</ele>
        <time>2021-09-04T09:07:44Z</time>
      </trkpt>
      <trkpt lat="44.04803" lon="2.89583">
        <ele>259</ele>
        <time>2021-09-04T09:07:49Z</time>
      </trkpt>
      <trkpt lat="44.04806" lon="2.89598">
        <ele>276</ele>
        <time>2021-09-04T09:07:53Z</time>
      </trkpt>
      <trkpt lat="44.04811" lon="2.89603">
        <ele>286</ele>
        <time>2021-09-04T09:07:55Z</time>
      </trkpt>
      <trkpt lat="44.04812" lon="2.89613">
        <ele>309</ele>
        <time>2021-09-04T09:08:01Z</time>
      </trkpt>
      <trkpt lat="44.0481" lon="2.89629">
        <ele>318</ele>
        <time>2021-09-04T09:08:23Z</time>
      </trkpt>
      <trkpt lat="44.04818" lon="2.89648">
        <ele>343</ele>
        <time>2021-09-04T09:08:44Z</time>
      </trkpt>
      <trkpt lat="44.04818" lon="2.89657">
        <ele>406</ele>
        <time>2021-09-04T09:08:47Z</time>
      </trkpt>
      <trkpt lat="44.04813" lon="2.8964">
        <ele>407</ele>
        <time>2021-09-04T09:08:53Z</time>
      </trkpt>
      <trkpt lat="44.04815" lon="2.89646">
        <ele>386</ele>
        <time>2021-09-04T09:09:14Z</time>
      </trkpt>
      <trkpt lat="44.04822" lon="2.89651">
        <ele>392</ele>
        <time>2021-09-04T09:09:20Z</time>
      </trkpt>
      <trkpt lat="44.04824" lon="2.8966">
        <ele>399</ele>
        <time>2021-09-04T09:09:25Z</time>
      </trkpt>
      <trkpt lat="44.04821" lon="2.89675">
        <ele>403</ele>
        <time>2021-09-04T09:09:30Z</time>
      </trkpt>
      <trkpt lat="44.0482" lon="2.89683">
        <ele>406</ele>
        <time>2021-09-04T09:09:33Z</time>
      </trkpt>
      <trkpt lat="44.04822" lon="2.89689">
        <ele>407</ele>
        <time>2021-09-04T09:09:36Z</time>
      </trkpt>
      <trkpt lat="44.04826" lon="2.89693">
        <ele>409</ele>
        <time>2021-09-04T09:09:40Z</time>
      </trkpt>
      <trkpt lat="44.0483" lon="2.89695">
        <ele>408</ele>
        <time>2021-09-04T09:09:44Z</time>
      </trkpt>
      <trkpt lat="44.04834" lon="2.89691">
        <ele>407</ele>
        <time>2021-09-04T09:09:47Z</time>
      </trkpt>
      <trkpt lat="44.04839" lon="2.89692">
        <ele>404</ele>
        <time>2021-09-04T09:10:30Z</time>
      </trkpt>
      <trkpt lat="44.04844" lon="2.89693">
        <ele>402</ele>
        <time>2021-09-04T09:10:51Z</time>
      </trkpt>
      <trkpt lat="44.04843" lon="2.89697">
        <ele>381</ele>
        <time>2021-09-04T09:15:13Z</time>
      </trkpt>
      <trkpt lat="44.0485" lon="2.89712">
        <ele>384</ele>
        <time>2021-09-04T09:15:19Z</time>
      </trkpt>
      <trkpt lat="44.04863" lon="2.89724">
        <ele>389</ele>
        <time>2021-09-04T09:15:29Z</time>
      </trkpt>
      <trkpt lat="44.04867" lon="2.89728">
        <ele>390</ele>
        <time>2021-09-04T09:15:32Z</time>
      </trkpt>
      <trkpt lat="44.04866" lon="2.89736">
        <ele>391</ele>
        <time>2021-09-04T09:15:35Z</time>
      </trkpt>
      <trkpt lat="44.04868" lon="2.89737">
        <ele>394</ele>
        <time>2021-09-04T09:15:45Z</time>
      </trkpt>
      <trkpt lat="44.04874" lon="2.89735">
        <ele>395</ele>
        <time>2021-09-04T09:15:48Z</time>
      </trkpt>
      <trkpt lat="44.04879" lon="2.89735">
        <ele>397</ele>
        <time>2021-09-04T09:15:51Z</time>
      </trkpt>
      <trkpt lat="44.04882" lon="2.8974">
        <ele>398</ele>
        <time>2021-09-04T09:15:54Z</time>
      </trkpt>
      <trkpt lat="44.04883" lon="2.89747">
        <ele>398</ele>
        <time>2021-09-04T09:16:23Z</time>
      </trkpt>
      <trkpt lat="44.04887" lon="2.8975">
        <ele>398</ele>
        <time>2021-09-04T09:16:26Z</time>
      </trkpt>
      <trkpt lat="44.04901" lon="2.89761">
        <ele>401</ele>
        <time>2021-09-04T09:17:00Z</time>
      </trkpt>
      <trkpt lat="44.04913" lon="2.89777">
        <ele>400</ele>
        <time>2021-09-04T09:17:09Z</time>
      </trkpt>
      <trkpt lat="44.04918" lon="2.89781">
        <ele>400</ele>
        <time>2021-09-04T09:17:11Z</time>
      </trkpt>
      <trkpt lat="44.04927" lon="2.89793">
        <ele>399</ele>
        <time>2021-09-04T09:17:15Z</time>
      </trkpt>
      <trkpt lat="44.04945" lon="2.89805">
        <ele>398</ele>
        <time>2021-09-04T09:17:21Z</time>
      </trkpt>
      <trkpt lat="44.05038" lon="2.8986">
        <ele>391</ele>
        <time>2021-09-04T09:17:36Z</time>
      </trkpt>
      <trkpt lat="44.05154" lon="2.89935">
        <ele>385</ele>
        <time>2021-09-04T09:17:53Z</time>
      </trkpt>
      <trkpt lat="44.05395" lon="2.9003">
        <ele>367</ele>
        <time>2021-09-04T09:18:23Z</time>
      </trkpt>
      <trkpt lat="44.05465" lon="2.90034">
        <ele>361</ele>
        <time>2021-09-04T09:18:31Z</time>
      </trkpt>
      <trkpt lat="44.05662" lon="2.90129">
        <ele>345</ele>
        <time>2021-09-04T09:18:53Z</time>
      </trkpt>
      <trkpt lat="44.05685" lon="2.9015">
        <ele>342</ele>
        <time>2021-09-04T09:18:56Z</time>
      </trkpt>
      <trkpt lat="44.05716" lon="2.90202">
        <ele>338</ele>
        <time>2021-09-04T09:19:01Z</time>
      </trkpt>
      <trkpt lat="44.05734" lon="2.90241">
        <ele>336</ele>
        <time>2021-09-04T09:19:06Z</time>
      </trkpt>
      <trkpt lat="44.05738" lon="2.90246">
        <ele>336</ele>
        <time>2021-09-04T09:19:07Z</time>
      </trkpt>
      <trkpt lat="44.05744" lon="2.90248">
        <ele>336</ele>
        <time>2021-09-04T09:19:08Z</time>
      </trkpt>
      <trkpt lat="44.05757" lon="2.90246">
        <ele>336</ele>
        <time>2021-09-04T09:19:10Z</time>
      </trkpt>
      <trkpt lat="44.05862" lon="2.90212">
        <ele>341</ele>
        <time>2021-09-04T09:19:32Z</time>
      </trkpt>
      <trkpt lat="44.0587" lon="2.90209">
        <ele>341</ele>
        <time>2021-09-04T09:19:34Z</time>
      </trkpt>
      <trkpt lat="44.05875" lon="2.90218">
        <ele>341</ele>
        <time>2021-09-04T09:19:36Z</time>
      </trkpt>
      <trkpt lat="44.05831" lon="2.90478">
        <ele>332</ele>
        <time>2021-09-04T09:20:06Z</time>
      </trkpt>
      <trkpt lat="44.05771" lon="2.90641">
        <ele>324</ele>
        <time>2021-09-04T09:20:36Z</time>
      </trkpt>
      <trkpt lat="44.05748" lon="2.90678">
        <ele>323</ele>
        <time>2021-09-04T09:20:46Z</time>
      </trkpt>
      <trkpt lat="44.05716" lon="2.90711">
        <ele>325</ele>
        <time>2021-09-04T09:20:58Z</time>
      </trkpt>
      <trkpt lat="44.05711" lon="2.90718">
        <ele>325</ele>
        <time>2021-09-04T09:21:00Z</time>
      </trkpt>
      <trkpt lat="44.05695" lon="2.90736">
        <ele>325</ele>
        <time>2021-09-04T09:21:06Z</time>
      </trkpt>
      <trkpt lat="44.0566" lon="2.90784">
        <ele>327</ele>
        <time>2021-09-04T09:21:20Z</time>
      </trkpt>
      <trkpt lat="44.05593" lon="2.90847">
        <ele>326</ele>
        <time>2021-09-04T09:21:37Z</time>
      </trkpt>
      <trkpt lat="44.05525" lon="2.90962">
        <ele>324</ele>
        <time>2021-09-04T09:21:59Z</time>
      </trkpt>
      <trkpt lat="44.05499" lon="2.91051">
        <ele>326</ele>
        <time>2021-09-04T09:22:13Z</time>
      </trkpt>
      <trkpt lat="44.05495" lon="2.91074">
        <ele>325</ele>
        <time>2021-09-04T09:22:17Z</time>
      </trkpt>
      <trkpt lat="44.05498" lon="2.91108">
        <ele>325</ele>
        <time>2021-09-04T09:22:23Z</time>
      </trkpt>
      <trkpt lat="44.05555" lon="2.91266">
        <ele>319</ele>
        <time>2021-09-04T09:22:53Z</time>
      </trkpt>
      <trkpt lat="44.05577" lon="2.91327">
        <ele>318</ele>
        <time>2021-09-04T09:23:03Z</time>
      </trkpt>
      <trkpt lat="44.05643" lon="2.91422">
        <ele>321</ele>
        <time>2021-09-04T09:23:22Z</time>
      </trkpt>
      <trkpt lat="44.05754" lon="2.91527">
        <ele>324</ele>
        <time>2021-09-04T09:23:54Z</time>
      </trkpt>
      <trkpt lat="44.05853" lon="2.91587">
        <ele>325</ele>
        <time>2021-09-04T09:24:20Z</time>
      </trkpt>
      <trkpt lat="44.05976" lon="2.91643">
        <ele>328</ele>
        <time>2021-09-04T09:24:51Z</time>
      </trkpt>
      <trkpt lat="44.06116" lon="2.91674">
        <ele>333</ele>
        <time>2021-09-04T09:25:21Z</time>
      </trkpt>
      <trkpt lat="44.06232" lon="2.91711">
        <ele>336</ele>
        <time>2021-09-04T09:25:46Z</time>
      </trkpt>
      <trkpt lat="44.06267" lon="2.91703">
        <ele>337</ele>
        <time>2021-09-04T09:25:53Z</time>
      </trkpt>
      <trkpt lat="44.06283" lon="2.91697">
        <ele>337</ele>
        <time>2021-09-04T09:25:56Z</time>
      </trkpt>
      <trkpt lat="44.06322" lon="2.91669">
        <ele>337</ele>
        <time>2021-09-04T09:26:04Z</time>
      </trkpt>
      <trkpt lat="44.0639" lon="2.91649">
        <ele>338</ele>
        <time>2021-09-04T09:26:16Z</time>
      </trkpt>
      <trkpt lat="44.06409" lon="2.91632">
        <ele>338</ele>
        <time>2021-09-04T09:26:20Z</time>
      </trkpt>
      <trkpt lat="44.06456" lon="2.91573">
        <ele>338</ele>
        <time>2021-09-04T09:26:31Z</time>
      </trkpt>
      <trkpt lat="44.06527" lon="2.91539">
        <ele>340</ele>
        <time>2021-09-04T09:26:44Z</time>
      </trkpt>
      <trkpt lat="44.06691" lon="2.91483">
        <ele>344</ele>
        <time>2021-09-04T09:27:14Z</time>
      </trkpt>
      <trkpt lat="44.06715" lon="2.91467">
        <ele>344</ele>
        <time>2021-09-04T09:27:19Z</time>
      </trkpt>
      <trkpt lat="44.06772" lon="2.914">
        <ele>348</ele>
        <time>2021-09-04T09:27:33Z</time>
      </trkpt>
      <trkpt lat="44.06816" lon="2.91316">
        <ele>344</ele>
        <time>2021-09-04T09:27:48Z</time>
      </trkpt>
      <trkpt lat="44.0688" lon="2.91256">
        <ele>347</ele>
        <time>2021-09-04T09:28:05Z</time>
      </trkpt>
      <trkpt lat="44.06887" lon="2.91246">
        <ele>347</ele>
        <time>2021-09-04T09:28:07Z</time>
      </trkpt>
      <trkpt lat="44.07004" lon="2.91132">
        <ele>348</ele>
        <time>2021-09-04T09:28:38Z</time>
      </trkpt>
      <trkpt lat="44.07055" lon="2.91091">
        <ele>345</ele>
        <time>2021-09-04T09:28:50Z</time>
      </trkpt>
      <trkpt lat="44.07144" lon="2.91046">
        <ele>347</ele>
        <time>2021-09-04T09:29:10Z</time>
      </trkpt>
      <trkpt lat="44.0723" lon="2.91029">
        <ele>346</ele>
        <time>2021-09-04T09:29:27Z</time>
      </trkpt>
      <trkpt lat="44.07242" lon="2.9103">
        <ele>345</ele>
        <time>2021-09-04T09:29:29Z</time>
      </trkpt>
      <trkpt lat="44.0727" lon="2.9104">
        <ele>341</ele>
        <time>2021-09-04T09:29:34Z</time>
      </trkpt>
      <trkpt lat="44.07305" lon="2.91068">
        <ele>339</ele>
        <time>2021-09-04T09:29:42Z</time>
      </trkpt>
      <trkpt lat="44.07331" lon="2.91104">
        <ele>337</ele>
        <time>2021-09-04T09:29:50Z</time>
      </trkpt>
      <trkpt lat="44.07362" lon="2.91149">
        <ele>337</ele>
        <time>2021-09-04T09:29:58Z</time>
      </trkpt>
      <trkpt lat="44.0747" lon="2.91294">
        <ele>333</ele>
        <time>2021-09-04T09:30:28Z</time>
      </trkpt>
      <trkpt lat="44.07498" lon="2.91344">
        <ele>330</ele>
        <time>2021-09-04T09:30:38Z</time>
      </trkpt>
      <trkpt lat="44.0754" lon="2.91383">
        <ele>330</ele>
        <time>2021-09-04T09:30:48Z</time>
      </trkpt>
      <trkpt lat="44.07549" lon="2.91401">
        <ele>330</ele>
        <time>2021-09-04T09:30:51Z</time>
      </trkpt>
      <trkpt lat="44.07558" lon="2.91427">
        <ele>329</ele>
        <time>2021-09-04T09:30:55Z</time>
      </trkpt>
      <trkpt lat="44.07573" lon="2.91506">
        <ele>325</ele>
        <time>2021-09-04T09:31:08Z</time>
      </trkpt>
      <trkpt lat="44.07574" lon="2.91537">
        <ele>325</ele>
        <time>2021-09-04T09:32:01Z</time>
      </trkpt>
      <trkpt lat="44.07578" lon="2.91559">
        <ele>325</ele>
        <time>2021-09-04T09:32:10Z</time>
      </trkpt>
      <trkpt lat="44.07582" lon="2.91559">
        <ele>324</ele>
        <time>2021-09-04T09:34:11Z</time>
      </trkpt>
      <trkpt lat="44.07589" lon="2.91583">
        <ele>325</ele>
        <time>2021-09-04T09:34:20Z</time>
      </trkpt>
      <trkpt lat="44.07596" lon="2.91592">
        <ele>326</ele>
        <time>2021-09-04T09:34:24Z</time>
      </trkpt>
      <trkpt lat="44.07685" lon="2.91661">
        <ele>321</ele>
        <time>2021-09-04T09:34:56Z</time>
      </trkpt>
      <trkpt lat="44.07799" lon="2.91736">
        <ele>323</ele>
        <time>2021-09-04T09:35:28Z</time>
      </trkpt>
      <trkpt lat="44.07853" lon="2.91786">
        <ele>324</ele>
        <time>2021-09-04T09:35:44Z</time>
      </trkpt>
      <trkpt lat="44.07943" lon="2.91912">
        <ele>321</ele>
        <time>2021-09-04T09:36:16Z</time>
      </trkpt>
      <trkpt lat="44.07958" lon="2.91937">
        <ele>321</ele>
        <time>2021-09-04T09:36:22Z</time>
      </trkpt>
      <trkpt lat="44.07963" lon="2.91944">
        <ele>321</ele>
        <time>2021-09-04T09:36:24Z</time>
      </trkpt>
      <trkpt lat="44.07977" lon="2.91962">
        <ele>321</ele>
        <time>2021-09-04T09:36:30Z</time>
      </trkpt>
      <trkpt lat="44.08097" lon="2.92037">
        <ele>325</ele>
        <time>2021-09-04T09:37:02Z</time>
      </trkpt>
      <trkpt lat="44.08103" lon="2.92044">
        <ele>326</ele>
        <time>2021-09-04T09:37:04Z</time>
      </trkpt>
      <trkpt lat="44.08146" lon="2.92067">
        <ele>331</ele>
        <time>2021-09-04T09:37:16Z</time>
      </trkpt>
      <trkpt lat="44.08173" lon="2.92079">
        <ele>332</ele>
        <time>2021-09-04T09:37:24Z</time>
      </trkpt>
      <trkpt lat="44.0818" lon="2.92082">
        <ele>332</ele>
        <time>2021-09-04T09:37:26Z</time>
      </trkpt>
      <trkpt lat="44.08185" lon="2.92089">
        <ele>332</ele>
        <time>2021-09-04T09:37:28Z</time>
      </trkpt>
      <trkpt lat="44.08188" lon="2.92101">
        <ele>332</ele>
        <time>2021-09-04T09:37:30Z</time>
      </trkpt>
      <trkpt lat="44.0818" lon="2.92127">
        <ele>333</ele>
        <time>2021-09-04T09:37:34Z</time>
      </trkpt>
      <trkpt lat="44.08173" lon="2.92195">
        <ele>331</ele>
        <time>2021-09-04T09:37:44Z</time>
      </trkpt>
      <trkpt lat="44.08173" lon="2.92204">
        <ele>332</ele>
        <time>2021-09-04T09:37:46Z</time>
      </trkpt>
      <trkpt lat="44.08198" lon="2.92204">
        <ele>333</ele>
        <time>2021-09-04T09:37:54Z</time>
      </trkpt>
      <trkpt lat="44.08268" lon="2.92181">
        <ele>345</ele>
        <time>2021-09-04T09:38:27Z</time>
      </trkpt>
      <trkpt lat="44.08293" lon="2.92164">
        <ele>346</ele>
        <time>2021-09-04T09:39:10Z</time>
      </trkpt>
      <trkpt lat="44.08345" lon="2.92123">
        <ele>349</ele>
        <time>2021-09-04T09:39:43Z</time>
      </trkpt>
      <trkpt lat="44.08364" lon="2.92109">
        <ele>350</ele>
        <time>2021-09-04T09:39:55Z</time>
      </trkpt>
      <trkpt lat="44.08376" lon="2.92103">
        <ele>352</ele>
        <time>2021-09-04T09:40:01Z</time>
      </trkpt>
      <trkpt lat="44.08448" lon="2.92085">
        <ele>359</ele>
        <time>2021-09-04T09:40:33Z</time>
      </trkpt>
      <trkpt lat="44.08482" lon="2.92077">
        <ele>362</ele>
        <time>2021-09-04T09:40:47Z</time>
      </trkpt>
      <trkpt lat="44.08558" lon="2.9208">
        <ele>369</ele>
        <time>2021-09-04T09:41:18Z</time>
      </trkpt>
      <trkpt lat="44.08596" lon="2.92066">
        <ele>372</ele>
        <time>2021-09-04T09:41:34Z</time>
      </trkpt>
      <trkpt lat="44.0867" lon="2.92023">
        <ele>375</ele>
        <time>2021-09-04T09:42:05Z</time>
      </trkpt>
      <trkpt lat="44.08695" lon="2.92016">
        <ele>376</ele>
        <time>2021-09-04T09:42:15Z</time>
      </trkpt>
      <trkpt lat="44.08725" lon="2.92016">
        <ele>376</ele>
        <time>2021-09-04T09:42:27Z</time>
      </trkpt>
      <trkpt lat="44.08746" lon="2.92021">
        <ele>377</ele>
        <time>2021-09-04T09:42:35Z</time>
      </trkpt>
      <trkpt lat="44.08757" lon="2.92027">
        <ele>377</ele>
        <time>2021-09-04T09:42:39Z</time>
      </trkpt>
      <trkpt lat="44.08766" lon="2.92037">
        <ele>378</ele>
        <time>2021-09-04T09:42:43Z</time>
      </trkpt>
      <trkpt lat="44.0877" lon="2.92043">
        <ele>378</ele>
        <time>2021-09-04T09:42:45Z</time>
      </trkpt>
      <trkpt lat="44.08773" lon="2.92051">
        <ele>378</ele>
        <time>2021-09-04T09:42:47Z</time>
      </trkpt>
      <trkpt lat="44.08776" lon="2.92067">
        <ele>378</ele>
        <time>2021-09-04T09:42:51Z</time>
      </trkpt>
      <trkpt lat="44.08776" lon="2.92087">
        <ele>378</ele>
        <time>2021-09-04T09:42:57Z</time>
      </trkpt>
      <trkpt lat="44.08777" lon="2.92094">
        <ele>379</ele>
        <time>2021-09-04T09:42:59Z</time>
      </trkpt>
      <trkpt lat="44.0878" lon="2.92101">
        <ele>379</ele>
        <time>2021-09-04T09:43:01Z</time>
      </trkpt>
      <trkpt lat="44.08785" lon="2.92108">
        <ele>379</ele>
        <time>2021-09-04T09:43:03Z</time>
      </trkpt>
      <trkpt lat="44.08817" lon="2.9211">
        <ele>383</ele>
        <time>2021-09-04T09:43:15Z</time>
      </trkpt>
      <trkpt lat="44.08834" lon="2.92122">
        <ele>384</ele>
        <time>2021-09-04T09:43:22Z</time>
      </trkpt>
      <trkpt lat="44.08857" lon="2.92153">
        <ele>387</ele>
        <time>2021-09-04T09:43:34Z</time>
      </trkpt>
      <trkpt lat="44.08862" lon="2.92158">
        <ele>387</ele>
        <time>2021-09-04T09:43:36Z</time>
      </trkpt>
      <trkpt lat="44.08954" lon="2.92166">
        <ele>392</ele>
        <time>2021-09-04T09:44:06Z</time>
      </trkpt>
      <trkpt lat="44.09041" lon="2.92165">
        <ele>396</ele>
        <time>2021-09-04T09:44:36Z</time>
      </trkpt>
      <trkpt lat="44.09143" lon="2.92199">
        <ele>400</ele>
        <time>2021-09-04T09:45:08Z</time>
      </trkpt>
      <trkpt lat="44.09154" lon="2.92205">
        <ele>399</ele>
        <time>2021-09-04T09:45:12Z</time>
      </trkpt>
      <trkpt lat="44.09162" lon="2.92216">
        <ele>399</ele>
        <time>2021-09-04T09:45:16Z</time>
      </trkpt>
      <trkpt lat="44.09171" lon="2.92244">
        <ele>400</ele>
        <time>2021-09-04T09:45:22Z</time>
      </trkpt>
      <trkpt lat="44.09175" lon="2.92254">
        <ele>399</ele>
        <time>2021-09-04T09:45:24Z</time>
      </trkpt>
      <trkpt lat="44.09181" lon="2.92259">
        <ele>399</ele>
        <time>2021-09-04T09:45:26Z</time>
      </trkpt>
      <trkpt lat="44.09201" lon="2.92254">
        <ele>400</ele>
        <time>2021-09-04T09:45:31Z</time>
      </trkpt>
      <trkpt lat="44.09226" lon="2.92239">
        <ele>401</ele>
        <time>2021-09-04T09:45:39Z</time>
      </trkpt>
      <trkpt lat="44.09343" lon="2.92239">
        <ele>399</ele>
        <time>2021-09-04T09:46:11Z</time>
      </trkpt>
      <trkpt lat="44.09358" lon="2.92238">
        <ele>399</ele>
        <time>2021-09-04T09:46:15Z</time>
      </trkpt>
      <trkpt lat="44.09372" lon="2.92242">
        <ele>399</ele>
        <time>2021-09-04T09:46:19Z</time>
      </trkpt>
      <trkpt lat="44.09392" lon="2.92255">
        <ele>398</ele>
        <time>2021-09-04T09:46:25Z</time>
      </trkpt>
      <trkpt lat="44.09399" lon="2.92257">
        <ele>397</ele>
        <time>2021-09-04T09:46:27Z</time>
      </trkpt>
      <trkpt lat="44.09415" lon="2.92256">
        <ele>397</ele>
        <time>2021-09-04T09:46:31Z</time>
      </trkpt>
      <trkpt lat="44.09454" lon="2.92238">
        <ele>397</ele>
        <time>2021-09-04T09:46:43Z</time>
      </trkpt>
      <trkpt lat="44.09475" lon="2.92238">
        <ele>398</ele>
        <time>2021-09-04T09:46:49Z</time>
      </trkpt>
      <trkpt lat="44.09504" lon="2.92248">
        <ele>398</ele>
        <time>2021-09-04T09:46:57Z</time>
      </trkpt>
      <trkpt lat="44.09518" lon="2.92255">
        <ele>399</ele>
        <time>2021-09-04T09:47:01Z</time>
      </trkpt>
      <trkpt lat="44.09537" lon="2.92275">
        <ele>399</ele>
        <time>2021-09-04T09:47:07Z</time>
      </trkpt>
      <trkpt lat="44.09552" lon="2.92301">
        <ele>399</ele>
        <time>2021-09-04T09:47:13Z</time>
      </trkpt>
      <trkpt lat="44.09557" lon="2.92322">
        <ele>398</ele>
        <time>2021-09-04T09:47:17Z</time>
      </trkpt>
      <trkpt lat="44.09564" lon="2.92481">
        <ele>390</ele>
        <time>2021-09-04T09:47:47Z</time>
      </trkpt>
      <trkpt lat="44.09583" lon="2.92625">
        <ele>389</ele>
        <time>2021-09-04T09:48:13Z</time>
      </trkpt>
      <trkpt lat="44.09601" lon="2.92707">
        <ele>390</ele>
        <time>2021-09-04T09:48:29Z</time>
      </trkpt>
      <trkpt lat="44.09603" lon="2.9276">
        <ele>390</ele>
        <time>2021-09-04T09:48:40Z</time>
      </trkpt>
      <trkpt lat="44.09605" lon="2.9277">
        <ele>389</ele>
        <time>2021-09-04T09:48:41Z</time>
      </trkpt>
      <trkpt lat="44.09637" lon="2.92836">
        <ele>388</ele>
        <time>2021-09-04T09:48:54Z</time>
      </trkpt>
      <trkpt lat="44.0965" lon="2.92853">
        <ele>389</ele>
        <time>2021-09-04T09:48:58Z</time>
      </trkpt>
      <trkpt lat="44.09684" lon="2.9288">
        <ele>393</ele>
        <time>2021-09-04T09:49:55Z</time>
      </trkpt>
      <trkpt lat="44.09689" lon="2.92884">
        <ele>393</ele>
        <time>2021-09-04T09:49:58Z</time>
      </trkpt>
      <trkpt lat="44.09756" lon="2.92958">
        <ele>399</ele>
        <time>2021-09-04T09:50:29Z</time>
      </trkpt>
      <trkpt lat="44.09853" lon="2.93041">
        <ele>400</ele>
        <time>2021-09-04T09:50:59Z</time>
      </trkpt>
      <trkpt lat="44.09866" lon="2.93052">
        <ele>400</ele>
        <time>2021-09-04T09:51:03Z</time>
      </trkpt>
      <trkpt lat="44.09876" lon="2.93069">
        <ele>400</ele>
        <time>2021-09-04T09:51:07Z</time>
      </trkpt>
      <trkpt lat="44.0988" lon="2.93079">
        <ele>399</ele>
        <time>2021-09-04T09:51:09Z</time>
      </trkpt>
      <trkpt lat="44.09877" lon="2.93144">
        <ele>398</ele>
        <time>2021-09-04T09:51:21Z</time>
      </trkpt>
      <trkpt lat="44.09879" lon="2.93155">
        <ele>398</ele>
        <time>2021-09-04T09:51:23Z</time>
      </trkpt>
      <trkpt lat="44.09885" lon="2.93162">
        <ele>398</ele>
        <time>2021-09-04T09:51:25Z</time>
      </trkpt>
      <trkpt lat="44.09893" lon="2.93165">
        <ele>398</ele>
        <time>2021-09-04T09:51:27Z</time>
      </trkpt>
      <trkpt lat="44.09899" lon="2.9316">
        <ele>400</ele>
        <time>2021-09-04T09:51:29Z</time>
      </trkpt>
      <trkpt lat="44.0994" lon="2.93105">
        <ele>401</ele>
        <time>2021-09-04T09:51:43Z</time>
      </trkpt>
      <trkpt lat="44.09954" lon="2.93093">
        <ele>401</ele>
        <time>2021-09-04T09:51:47Z</time>
      </trkpt>
      <trkpt lat="44.09968" lon="2.93086">
        <ele>402</ele>
        <time>2021-09-04T09:51:51Z</time>
      </trkpt>
      <trkpt lat="44.09992" lon="2.93087">
        <ele>402</ele>
        <time>2021-09-04T09:51:57Z</time>
      </trkpt>
      <trkpt lat="44.10007" lon="2.93091">
        <ele>403</ele>
        <time>2021-09-04T09:52:01Z</time>
      </trkpt>
      <trkpt lat="44.10022" lon="2.93102">
        <ele>403</ele>
        <time>2021-09-04T09:52:05Z</time>
      </trkpt>
      <trkpt lat="44.10035" lon="2.93115">
        <ele>404</ele>
        <time>2021-09-04T09:52:09Z</time>
      </trkpt>
      <trkpt lat="44.10068" lon="2.93178">
        <ele>406</ele>
        <time>2021-09-04T09:52:25Z</time>
      </trkpt>
      <trkpt lat="44.10084" lon="2.93215">
        <ele>405</ele>
        <time>2021-09-04T09:52:35Z</time>
      </trkpt>
      <trkpt lat="44.10087" lon="2.9322">
        <ele>405</ele>
        <time>2021-09-04T09:52:37Z</time>
      </trkpt>
      <trkpt lat="44.10092" lon="2.93222">
        <ele>405</ele>
        <time>2021-09-04T09:52:40Z</time>
      </trkpt>
      <trkpt lat="44.10102" lon="2.93245">
        <ele>405</ele>
        <time>2021-09-04T09:52:49Z</time>
      </trkpt>
      <trkpt lat="44.10141" lon="2.93308">
        <ele>398</ele>
        <time>2021-09-04T09:53:05Z</time>
      </trkpt>
      <trkpt lat="44.10189" lon="2.9339">
        <ele>399</ele>
        <time>2021-09-04T09:53:31Z</time>
      </trkpt>
      <trkpt lat="44.10193" lon="2.93396">
        <ele>400</ele>
        <time>2021-09-04T09:53:33Z</time>
      </trkpt>
      <trkpt lat="44.10197" lon="2.93401">
        <ele>401</ele>
        <time>2021-09-04T09:53:35Z</time>
      </trkpt>
      <trkpt lat="44.10208" lon="2.93401">
        <ele>403</ele>
        <time>2021-09-04T09:53:39Z</time>
      </trkpt>
      <trkpt lat="44.10216" lon="2.93392">
        <ele>404</ele>
        <time>2021-09-04T09:53:43Z</time>
      </trkpt>
      <trkpt lat="44.10222" lon="2.93329">
        <ele>408</ele>
        <time>2021-09-04T09:54:02Z</time>
      </trkpt>
      <trkpt lat="44.10232" lon="2.93322">
        <ele>410</ele>
        <time>2021-09-04T09:54:07Z</time>
      </trkpt>
      <trkpt lat="44.1031" lon="2.93348">
        <ele>421</ele>
        <time>2021-09-04T09:54:38Z</time>
      </trkpt>
      <trkpt lat="44.10394" lon="2.93351">
        <ele>426</ele>
        <time>2021-09-04T09:55:08Z</time>
      </trkpt>
      <trkpt lat="44.10465" lon="2.9329">
        <ele>430</ele>
        <time>2021-09-04T09:55:38Z</time>
      </trkpt>
      <trkpt lat="44.10539" lon="2.93226">
        <ele>433</ele>
        <time>2021-09-04T09:56:10Z</time>
      </trkpt>
      <trkpt lat="44.10595" lon="2.93203">
        <ele>436</ele>
        <time>2021-09-04T09:56:30Z</time>
      </trkpt>
      <trkpt lat="44.10601" lon="2.93208">
        <ele>436</ele>
        <time>2021-09-04T09:56:32Z</time>
      </trkpt>
      <trkpt lat="44.10605" lon="2.93215">
        <ele>436</ele>
        <time>2021-09-04T09:56:34Z</time>
      </trkpt>
      <trkpt lat="44.10608" lon="2.93244">
        <ele>436</ele>
        <time>2021-09-04T09:56:40Z</time>
      </trkpt>
      <trkpt lat="44.10609" lon="2.93461">
        <ele>430</ele>
        <time>2021-09-04T09:57:08Z</time>
      </trkpt>
      <trkpt lat="44.10611" lon="2.93478">
        <ele>429</ele>
        <time>2021-09-04T09:57:10Z</time>
      </trkpt>
      <trkpt lat="44.10643" lon="2.93571">
        <ele>427</ele>
        <time>2021-09-04T09:57:23Z</time>
      </trkpt>
      <trkpt lat="44.10682" lon="2.93625">
        <ele>426</ele>
        <time>2021-09-04T09:57:32Z</time>
      </trkpt>
      <trkpt lat="44.10689" lon="2.93645">
        <ele>424</ele>
        <time>2021-09-04T09:57:35Z</time>
      </trkpt>
      <trkpt lat="44.10693" lon="2.93669">
        <ele>422</ele>
        <time>2021-09-04T09:57:38Z</time>
      </trkpt>
      <trkpt lat="44.10695" lon="2.93742">
        <ele>419</ele>
        <time>2021-09-04T09:57:46Z</time>
      </trkpt>
      <trkpt lat="44.10696" lon="2.93749">
        <ele>418</ele>
        <time>2021-09-04T09:57:47Z</time>
      </trkpt>
      <trkpt lat="44.10699" lon="2.93757">
        <ele>418</ele>
        <time>2021-09-04T09:57:48Z</time>
      </trkpt>
      <trkpt lat="44.10702" lon="2.93765">
        <ele>417</ele>
        <time>2021-09-04T09:57:49Z</time>
      </trkpt>
      <trkpt lat="44.10708" lon="2.9377">
        <ele>417</ele>
        <time>2021-09-04T09:57:50Z</time>
      </trkpt>
      <trkpt lat="44.10714" lon="2.93773">
        <ele>418</ele>
        <time>2021-09-04T09:57:51Z</time>
      </trkpt>
      <trkpt lat="44.10719" lon="2.93772">
        <ele>419</ele>
        <time>2021-09-04T09:57:52Z</time>
      </trkpt>
      <trkpt lat="44.10724" lon="2.93769">
        <ele>421</ele>
        <time>2021-09-04T09:57:53Z</time>
      </trkpt>
      <trkpt lat="44.10762" lon="2.93679">
        <ele>425</ele>
        <time>2021-09-04T09:58:20Z</time>
      </trkpt>
      <trkpt lat="44.10773" lon="2.93665">
        <ele>425</ele>
        <time>2021-09-04T09:58:26Z</time>
      </trkpt>
      <trkpt lat="44.10796" lon="2.9366">
        <ele>426</ele>
        <time>2021-09-04T09:58:37Z</time>
      </trkpt>
      <trkpt lat="44.10849" lon="2.9365">
        <ele>433</ele>
        <time>2021-09-04T09:59:04Z</time>
      </trkpt>
      <trkpt lat="44.10888" lon="2.93626">
        <ele>435</ele>
        <time>2021-09-04T09:59:25Z</time>
      </trkpt>
      <trkpt lat="44.10946" lon="2.93573">
        <ele>442</ele>
        <time>2021-09-04T09:59:58Z</time>
      </trkpt>
      <trkpt lat="44.10994" lon="2.93545">
        <ele>446</ele>
        <time>2021-09-04T10:00:21Z</time>
      </trkpt>
      <trkpt lat="44.11014" lon="2.9354">
        <ele>448</ele>
        <time>2021-09-04T10:00:29Z</time>
      </trkpt>
      <trkpt lat="44.11024" lon="2.93541">
        <ele>448</ele>
        <time>2021-09-04T10:00:33Z</time>
      </trkpt>
      <trkpt lat="44.11029" lon="2.93543">
        <ele>449</ele>
        <time>2021-09-04T10:00:35Z</time>
      </trkpt>
      <trkpt lat="44.11034" lon="2.93547">
        <ele>448</ele>
        <time>2021-09-04T10:00:37Z</time>
      </trkpt>
      <trkpt lat="44.11078" lon="2.93622">
        <ele>451</ele>
        <time>2021-09-04T10:01:03Z</time>
      </trkpt>
      <trkpt lat="44.11089" lon="2.93631">
        <ele>451</ele>
        <time>2021-09-04T10:01:09Z</time>
      </trkpt>
      <trkpt lat="44.11099" lon="2.93636">
        <ele>451</ele>
        <time>2021-09-04T10:01:14Z</time>
      </trkpt>
      <trkpt lat="44.11111" lon="2.93636">
        <ele>450</ele>
        <time>2021-09-04T10:01:19Z</time>
      </trkpt>
      <trkpt lat="44.11118" lon="2.93619">
        <ele>450</ele>
        <time>2021-09-04T10:01:25Z</time>
      </trkpt>
      <trkpt lat="44.11115" lon="2.93567">
        <ele>450</ele>
        <time>2021-09-04T10:01:40Z</time>
      </trkpt>
      <trkpt lat="44.11118" lon="2.93559">
        <ele>450</ele>
        <time>2021-09-04T10:01:43Z</time>
      </trkpt>
      <trkpt lat="44.11185" lon="2.93535">
        <ele>458</ele>
        <time>2021-09-04T10:02:14Z</time>
      </trkpt>
      <trkpt lat="44.11255" lon="2.93508">
        <ele>463</ele>
        <time>2021-09-04T10:02:46Z</time>
      </trkpt>
      <trkpt lat="44.11309" lon="2.93492">
        <ele>465</ele>
        <time>2021-09-04T10:03:11Z</time>
      </trkpt>
      <trkpt lat="44.11327" lon="2.93502">
        <ele>467</ele>
        <time>2021-09-04T10:03:19Z</time>
      </trkpt>
      <trkpt lat="44.11348" lon="2.93517">
        <ele>469</ele>
        <time>2021-09-04T10:03:29Z</time>
      </trkpt>
      <trkpt lat="44.11396" lon="2.93546">
        <ele>474</ele>
        <time>2021-09-04T10:03:50Z</time>
      </trkpt>
      <trkpt lat="44.1142" lon="2.93563">
        <ele>477</ele>
        <time>2021-09-04T10:04:01Z</time>
      </trkpt>
      <trkpt lat="44.11436" lon="2.93565">
        <ele>479</ele>
        <time>2021-09-04T10:04:07Z</time>
      </trkpt>
      <trkpt lat="44.11503" lon="2.9353">
        <ele>479</ele>
        <time>2021-09-04T10:04:37Z</time>
      </trkpt>
      <trkpt lat="44.11573" lon="2.93474">
        <ele>480</ele>
        <time>2021-09-04T10:05:07Z</time>
      </trkpt>
      <trkpt lat="44.11633" lon="2.93447">
        <ele>484</ele>
        <time>2021-09-04T10:05:31Z</time>
      </trkpt>
      <trkpt lat="44.11652" lon="2.93458">
        <ele>487</ele>
        <time>2021-09-04T10:05:39Z</time>
      </trkpt>
      <trkpt lat="44.11681" lon="2.93489">
        <ele>493</ele>
        <time>2021-09-04T10:05:54Z</time>
      </trkpt>
      <trkpt lat="44.11704" lon="2.93528">
        <ele>494</ele>
        <time>2021-09-04T10:06:05Z</time>
      </trkpt>
      <trkpt lat="44.11713" lon="2.93546">
        <ele>494</ele>
        <time>2021-09-04T10:06:11Z</time>
      </trkpt>
      <trkpt lat="44.11716" lon="2.93553">
        <ele>494</ele>
        <time>2021-09-04T10:06:13Z</time>
      </trkpt>
      <trkpt lat="44.11727" lon="2.93583">
        <ele>495</ele>
        <time>2021-09-04T10:06:23Z</time>
      </trkpt>
      <trkpt lat="44.11735" lon="2.93638">
        <ele>497</ele>
        <time>2021-09-04T10:06:39Z</time>
      </trkpt>
      <trkpt lat="44.11737" lon="2.93669">
        <ele>496</ele>
        <time>2021-09-04T10:06:48Z</time>
      </trkpt>
      <trkpt lat="44.11738" lon="2.93676">
        <ele>495</ele>
        <time>2021-09-04T10:06:51Z</time>
      </trkpt>
      <trkpt lat="44.11738" lon="2.93691">
        <ele>493</ele>
        <time>2021-09-04T10:06:55Z</time>
      </trkpt>
      <trkpt lat="44.11739" lon="2.937">
        <ele>491</ele>
        <time>2021-09-04T10:06:57Z</time>
      </trkpt>
      <trkpt lat="44.11739" lon="2.9371">
        <ele>489</ele>
        <time>2021-09-04T10:06:59Z</time>
      </trkpt>
      <trkpt lat="44.11739" lon="2.93718">
        <ele>488</ele>
        <time>2021-09-04T10:07:01Z</time>
      </trkpt>
      <trkpt lat="44.11744" lon="2.93732">
        <ele>488</ele>
        <time>2021-09-04T10:07:06Z</time>
      </trkpt>
      <trkpt lat="44.11821" lon="2.93759">
        <ele>502</ele>
        <time>2021-09-04T10:07:37Z</time>
      </trkpt>
      <trkpt lat="44.11842" lon="2.93766">
        <ele>504</ele>
        <time>2021-09-04T10:07:45Z</time>
      </trkpt>
      <trkpt lat="44.11847" lon="2.93768">
        <ele>505</ele>
        <time>2021-09-04T10:07:47Z</time>
      </trkpt>
      <trkpt lat="44.11854" lon="2.93778">
        <ele>505</ele>
        <time>2021-09-04T10:07:51Z</time>
      </trkpt>
      <trkpt lat="44.11859" lon="2.93791">
        <ele>505</ele>
        <time>2021-09-04T10:07:55Z</time>
      </trkpt>
      <trkpt lat="44.1186" lon="2.93806">
        <ele>506</ele>
        <time>2021-09-04T10:07:59Z</time>
      </trkpt>
      <trkpt lat="44.11848" lon="2.93862">
        <ele>500</ele>
        <time>2021-09-04T10:08:17Z</time>
      </trkpt>
      <trkpt lat="44.11846" lon="2.93884">
        <ele>495</ele>
        <time>2021-09-04T10:08:24Z</time>
      </trkpt>
      <trkpt lat="44.11849" lon="2.93915">
        <ele>499</ele>
        <time>2021-09-04T10:08:32Z</time>
      </trkpt>
      <trkpt lat="44.11859" lon="2.93938">
        <ele>501</ele>
        <time>2021-09-04T10:08:40Z</time>
      </trkpt>
      <trkpt lat="44.11862" lon="2.93952">
        <ele>501</ele>
        <time>2021-09-04T10:08:44Z</time>
      </trkpt>
      <trkpt lat="44.11861" lon="2.93971">
        <ele>499</ele>
        <time>2021-09-04T10:08:50Z</time>
      </trkpt>
      <trkpt lat="44.11847" lon="2.94057">
        <ele>492</ele>
        <time>2021-09-04T10:09:17Z</time>
      </trkpt>
      <trkpt lat="44.11827" lon="2.941">
        <ele>479</ele>
        <time>2021-09-04T10:09:35Z</time>
      </trkpt>
      <trkpt lat="44.11822" lon="2.94109">
        <ele>477</ele>
        <time>2021-09-04T10:09:38Z</time>
      </trkpt>
      <trkpt lat="44.11794" lon="2.94152">
        <ele>457</ele>
        <time>2021-09-04T10:09:59Z</time>
      </trkpt>
      <trkpt lat="44.11789" lon="2.94165">
        <ele>453</ele>
        <time>2021-09-04T10:10:04Z</time>
      </trkpt>
      <trkpt lat="44.11786" lon="2.9418">
        <ele>444</ele>
        <time>2021-09-04T10:10:10Z</time>
      </trkpt>
      <trkpt lat="44.11784" lon="2.94196">
        <ele>442</ele>
        <time>2021-09-04T10:10:16Z</time>
      </trkpt>
      <trkpt lat="44.11781" lon="2.94213">
        <ele>436</ele>
        <time>2021-09-04T10:10:22Z</time>
      </trkpt>
      <trkpt lat="44.11778" lon="2.9423">
        <ele>434</ele>
        <time>2021-09-04T10:10:28Z</time>
      </trkpt>
      <trkpt lat="44.11767" lon="2.94337">
        <ele>413</ele>
        <time>2021-09-04T10:11:04Z</time>
      </trkpt>
      <trkpt lat="44.11763" lon="2.94353">
        <ele>415</ele>
        <time>2021-09-04T10:11:07Z</time>
      </trkpt>
      <trkpt lat="44.11761" lon="2.94369">
        <ele>419</ele>
        <time>2021-09-04T10:11:12Z</time>
      </trkpt>
      <trkpt lat="44.11757" lon="2.94404">
        <ele>420</ele>
        <time>2021-09-04T10:11:23Z</time>
      </trkpt>
      <trkpt lat="44.11758" lon="2.94425">
        <ele>417</ele>
        <time>2021-09-04T10:11:29Z</time>
      </trkpt>
      <trkpt lat="44.11763" lon="2.94443">
        <ele>416</ele>
        <time>2021-09-04T10:11:34Z</time>
      </trkpt>
      <trkpt lat="44.11778" lon="2.94451">
        <ele>420</ele>
        <time>2021-09-04T10:11:38Z</time>
      </trkpt>
      <trkpt lat="44.11787" lon="2.94441">
        <ele>430</ele>
        <time>2021-09-04T10:11:43Z</time>
      </trkpt>
      <trkpt lat="44.11792" lon="2.94428">
        <ele>434</ele>
        <time>2021-09-04T10:11:48Z</time>
      </trkpt>
      <trkpt lat="44.11835" lon="2.94389">
        <ele>496</ele>
        <time>2021-09-04T10:12:18Z</time>
      </trkpt>
      <trkpt lat="44.11842" lon="2.94387">
        <ele>497</ele>
        <time>2021-09-04T10:12:21Z</time>
      </trkpt>
      <trkpt lat="44.1185" lon="2.94385">
        <ele>500</ele>
        <time>2021-09-04T10:12:24Z</time>
      </trkpt>
      <trkpt lat="44.11868" lon="2.94374">
        <ele>504</ele>
        <time>2021-09-04T10:12:32Z</time>
      </trkpt>
      <trkpt lat="44.11896" lon="2.94276">
        <ele>519</ele>
        <time>2021-09-04T10:13:02Z</time>
      </trkpt>
      <trkpt lat="44.11904" lon="2.94266">
        <ele>522</ele>
        <time>2021-09-04T10:13:06Z</time>
      </trkpt>
      <trkpt lat="44.11975" lon="2.94233">
        <ele>535</ele>
        <time>2021-09-04T10:13:37Z</time>
      </trkpt>
      <trkpt lat="44.12034" lon="2.94162">
        <ele>541</ele>
        <time>2021-09-04T10:14:09Z</time>
      </trkpt>
      <trkpt lat="44.12102" lon="2.94121">
        <ele>548</ele>
        <time>2021-09-04T10:14:41Z</time>
      </trkpt>
      <trkpt lat="44.12133" lon="2.94065">
        <ele>552</ele>
        <time>2021-09-04T10:15:01Z</time>
      </trkpt>
      <trkpt lat="44.12136" lon="2.9406">
        <ele>552</ele>
        <time>2021-09-04T10:15:03Z</time>
      </trkpt>
      <trkpt lat="44.12139" lon="2.94054">
        <ele>553</ele>
        <time>2021-09-04T10:15:05Z</time>
      </trkpt>
      <trkpt lat="44.12182" lon="2.93989">
        <ele>559</ele>
        <time>2021-09-04T10:15:31Z</time>
      </trkpt>
      <trkpt lat="44.1221" lon="2.93968">
        <ele>562</ele>
        <time>2021-09-04T10:15:46Z</time>
      </trkpt>
      <trkpt lat="44.1222" lon="2.93967">
        <ele>563</ele>
        <time>2021-09-04T10:15:50Z</time>
      </trkpt>
      <trkpt lat="44.12225" lon="2.93969">
        <ele>563</ele>
        <time>2021-09-04T10:15:52Z</time>
      </trkpt>
      <trkpt lat="44.1223" lon="2.93972">
        <ele>564</ele>
        <time>2021-09-04T10:15:54Z</time>
      </trkpt>
      <trkpt lat="44.12233" lon="2.93977">
        <ele>564</ele>
        <time>2021-09-04T10:15:56Z</time>
      </trkpt>
      <trkpt lat="44.12237" lon="2.9399">
        <ele>565</ele>
        <time>2021-09-04T10:16:00Z</time>
      </trkpt>
      <trkpt lat="44.12238" lon="2.94003">
        <ele>566</ele>
        <time>2021-09-04T10:16:04Z</time>
      </trkpt>
      <trkpt lat="44.12235" lon="2.94016">
        <ele>567</ele>
        <time>2021-09-04T10:16:08Z</time>
      </trkpt>
      <trkpt lat="44.12205" lon="2.94124">
        <ele>562</ele>
        <time>2021-09-04T10:16:40Z</time>
      </trkpt>
      <trkpt lat="44.12196" lon="2.94159">
        <ele>561</ele>
        <time>2021-09-04T10:16:50Z</time>
      </trkpt>
      <trkpt lat="44.12191" lon="2.94192">
        <ele>562</ele>
        <time>2021-09-04T10:16:58Z</time>
      </trkpt>
      <trkpt lat="44.12203" lon="2.94294">
        <ele>562</ele>
        <time>2021-09-04T10:17:22Z</time>
      </trkpt>
      <trkpt lat="44.12227" lon="2.94383">
        <ele>564</ele>
        <time>2021-09-04T10:17:40Z</time>
      </trkpt>
      <trkpt lat="44.12249" lon="2.94431">
        <ele>566</ele>
        <time>2021-09-04T10:17:49Z</time>
      </trkpt>
      <trkpt lat="44.12254" lon="2.94449">
        <ele>567</ele>
        <time>2021-09-04T10:17:52Z</time>
      </trkpt>
      <trkpt lat="44.12255" lon="2.94462">
        <ele>567</ele>
        <time>2021-09-04T10:17:54Z</time>
      </trkpt>
      <trkpt lat="44.12244" lon="2.94505">
        <ele>568</ele>
        <time>2021-09-04T10:18:02Z</time>
      </trkpt>
      <trkpt lat="44.12229" lon="2.94542">
        <ele>567</ele>
        <time>2021-09-04T10:18:09Z</time>
      </trkpt>
      <trkpt lat="44.12226" lon="2.94554">
        <ele>567</ele>
        <time>2021-09-04T10:18:11Z</time>
      </trkpt>
      <trkpt lat="44.12228" lon="2.94573">
        <ele>568</ele>
        <time>2021-09-04T10:18:14Z</time>
      </trkpt>
      <trkpt lat="44.12229" lon="2.9458">
        <ele>568</ele>
        <time>2021-09-04T10:18:15Z</time>
      </trkpt>
      <trkpt lat="44.12237" lon="2.94599">
        <ele>571</ele>
        <time>2021-09-04T10:18:18Z</time>
      </trkpt>
      <trkpt lat="44.12282" lon="2.94681">
        <ele>577</ele>
        <time>2021-09-04T10:18:37Z</time>
      </trkpt>
      <trkpt lat="44.12312" lon="2.94811">
        <ele>578</ele>
        <time>2021-09-04T10:18:59Z</time>
      </trkpt>
      <trkpt lat="44.12325" lon="2.94834">
        <ele>579</ele>
        <time>2021-09-04T10:19:03Z</time>
      </trkpt>
      <trkpt lat="44.12337" lon="2.94847">
        <ele>580</ele>
        <time>2021-09-04T10:19:06Z</time>
      </trkpt>
      <trkpt lat="44.12396" lon="2.94892">
        <ele>584</ele>
        <time>2021-09-04T10:19:22Z</time>
      </trkpt>
      <trkpt lat="44.1241" lon="2.94913">
        <ele>586</ele>
        <time>2021-09-04T10:19:28Z</time>
      </trkpt>
      <trkpt lat="44.12423" lon="2.94961">
        <ele>588</ele>
        <time>2021-09-04T10:19:40Z</time>
      </trkpt>
      <trkpt lat="44.12423" lon="2.94968">
        <ele>588</ele>
        <time>2021-09-04T10:19:42Z</time>
      </trkpt>
      <trkpt lat="44.12423" lon="2.94976">
        <ele>588</ele>
        <time>2021-09-04T10:19:45Z</time>
      </trkpt>
      <trkpt lat="44.12424" lon="2.94979">
        <ele>588</ele>
        <time>2021-09-04T10:20:57Z</time>
      </trkpt>
      <trkpt lat="44.12429" lon="2.94974">
        <ele>588</ele>
        <time>2021-09-04T10:20:59Z</time>
      </trkpt>
      <trkpt lat="44.12501" lon="2.94929">
        <ele>582</ele>
        <time>2021-09-04T10:21:17Z</time>
      </trkpt>
      <trkpt lat="44.12548" lon="2.94854">
        <ele>583</ele>
        <time>2021-09-04T10:21:38Z</time>
      </trkpt>
      <trkpt lat="44.12553" lon="2.94852">
        <ele>583</ele>
        <time>2021-09-04T10:21:40Z</time>
      </trkpt>
      <trkpt lat="44.12557" lon="2.94846">
        <ele>582</ele>
        <time>2021-09-04T10:21:43Z</time>
      </trkpt>
      <trkpt lat="44.1256" lon="2.9484">
        <ele>581</ele>
        <time>2021-09-04T10:21:45Z</time>
      </trkpt>
      <trkpt lat="44.12566" lon="2.94828">
        <ele>581</ele>
        <time>2021-09-04T10:21:49Z</time>
      </trkpt>
      <trkpt lat="44.1257" lon="2.94823">
        <ele>581</ele>
        <time>2021-09-04T10:21:52Z</time>
      </trkpt>
      <trkpt lat="44.12575" lon="2.94821">
        <ele>580</ele>
        <time>2021-09-04T10:21:55Z</time>
      </trkpt>
      <trkpt lat="44.12584" lon="2.94819">
        <ele>581</ele>
        <time>2021-09-04T10:22:04Z</time>
      </trkpt>
      <trkpt lat="44.12607" lon="2.94811">
        <ele>580</ele>
        <time>2021-09-04T10:22:13Z</time>
      </trkpt>
      <trkpt lat="44.12617" lon="2.94803">
        <ele>580</ele>
        <time>2021-09-04T10:22:18Z</time>
      </trkpt>
      <trkpt lat="44.12631" lon="2.94796">
        <ele>581</ele>
        <time>2021-09-04T10:22:25Z</time>
      </trkpt>
      <trkpt lat="44.12637" lon="2.94793">
        <ele>581</ele>
        <time>2021-09-04T10:22:28Z</time>
      </trkpt>
      <trkpt lat="44.12641" lon="2.94789">
        <ele>581</ele>
        <time>2021-09-04T10:22:31Z</time>
      </trkpt>
      <trkpt lat="44.12645" lon="2.94785">
        <ele>581</ele>
        <time>2021-09-04T10:22:36Z</time>
      </trkpt>
      <trkpt lat="44.12667" lon="2.94775">
        <ele>580</ele>
        <time>2021-09-04T10:22:47Z</time>
      </trkpt>
      <trkpt lat="44.12668" lon="2.94778">
        <ele>581</ele>
        <time>2021-09-04T10:22:56Z</time>
      </trkpt>
      <trkpt lat="44.12651" lon="2.9478">
        <ele>582</ele>
        <time>2021-09-04T10:23:05Z</time>
      </trkpt>
      <trkpt lat="44.12646" lon="2.94787">
        <ele>581</ele>
        <time>2021-09-04T10:23:08Z</time>
      </trkpt>
      <trkpt lat="44.1264" lon="2.94793">
        <ele>580</ele>
        <time>2021-09-04T10:23:10Z</time>
      </trkpt>
      <trkpt lat="44.12599" lon="2.94814">
        <ele>577</ele>
        <time>2021-09-04T10:23:20Z</time>
      </trkpt>
      <trkpt lat="44.12581" lon="2.94817">
        <ele>574</ele>
        <time>2021-09-04T10:23:27Z</time>
      </trkpt>
      <trkpt lat="44.12571" lon="2.94822">
        <ele>572</ele>
        <time>2021-09-04T10:23:32Z</time>
      </trkpt>
      <trkpt lat="44.12552" lon="2.94845">
        <ele>570</ele>
        <time>2021-09-04T10:23:38Z</time>
      </trkpt>
      <trkpt lat="44.12547" lon="2.94852">
        <ele>568</ele>
        <time>2021-09-04T10:23:40Z</time>
      </trkpt>
      <trkpt lat="44.12542" lon="2.9486">
        <ele>565</ele>
        <time>2021-09-04T10:23:42Z</time>
      </trkpt>
      <trkpt lat="44.12521" lon="2.94886">
        <ele>560</ele>
        <time>2021-09-04T10:23:49Z</time>
      </trkpt>
      <trkpt lat="44.12503" lon="2.94913">
        <ele>557</ele>
        <time>2021-09-04T10:23:57Z</time>
      </trkpt>
      <trkpt lat="44.12469" lon="2.94945">
        <ele>558</ele>
        <time>2021-09-04T10:24:09Z</time>
      </trkpt>
      <trkpt lat="44.12456" lon="2.94954">
        <ele>560</ele>
        <time>2021-09-04T10:24:13Z</time>
      </trkpt>
      <trkpt lat="44.1244" lon="2.94965">
        <ele>565</ele>
        <time>2021-09-04T10:24:19Z</time>
      </trkpt>
      <trkpt lat="44.12428" lon="2.94978">
        <ele>567</ele>
        <time>2021-09-04T10:24:25Z</time>
      </trkpt>
      <trkpt lat="44.12424" lon="2.94982">
        <ele>568</ele>
        <time>2021-09-04T10:24:27Z</time>
      </trkpt>
      <trkpt lat="44.12416" lon="2.94991">
        <ele>569</ele>
        <time>2021-09-04T10:24:31Z</time>
      </trkpt>
      <trkpt lat="44.12399" lon="2.95043">
        <ele>566</ele>
        <time>2021-09-04T10:24:43Z</time>
      </trkpt>
      <trkpt lat="44.12389" lon="2.95105">
        <ele>561</ele>
        <time>2021-09-04T10:24:52Z</time>
      </trkpt>
      <trkpt lat="44.12392" lon="2.95198">
        <ele>563</ele>
        <time>2021-09-04T10:25:02Z</time>
      </trkpt>
      <trkpt lat="44.12398" lon="2.95229">
        <ele>563</ele>
        <time>2021-09-04T10:25:05Z</time>
      </trkpt>
      <trkpt lat="44.12425" lon="2.95303">
        <ele>562</ele>
        <time>2021-09-04T10:25:12Z</time>
      </trkpt>
      <trkpt lat="44.12427" lon="2.95314">
        <ele>562</ele>
        <time>2021-09-04T10:25:13Z</time>
      </trkpt>
      <trkpt lat="44.12429" lon="2.95326">
        <ele>562</ele>
        <time>2021-09-04T10:25:14Z</time>
      </trkpt>
      <trkpt lat="44.12426" lon="2.95349">
        <ele>561</ele>
        <time>2021-09-04T10:25:16Z</time>
      </trkpt>
      <trkpt lat="44.12417" lon="2.95371">
        <ele>560</ele>
        <time>2021-09-04T10:25:18Z</time>
      </trkpt>
      <trkpt lat="44.12404" lon="2.95389">
        <ele>559</ele>
        <time>2021-09-04T10:25:20Z</time>
      </trkpt>
      <trkpt lat="44.1239" lon="2.95401">
        <ele>557</ele>
        <time>2021-09-04T10:25:22Z</time>
      </trkpt>
      <trkpt lat="44.12312" lon="2.95439">
        <ele>551</ele>
        <time>2021-09-04T10:25:31Z</time>
      </trkpt>
      <trkpt lat="44.12298" lon="2.95454">
        <ele>550</ele>
        <time>2021-09-04T10:25:33Z</time>
      </trkpt>
      <trkpt lat="44.12293" lon="2.95464">
        <ele>550</ele>
        <time>2021-09-04T10:25:34Z</time>
      </trkpt>
      <trkpt lat="44.12289" lon="2.95475">
        <ele>549</ele>
        <time>2021-09-04T10:25:35Z</time>
      </trkpt>
      <trkpt lat="44.12284" lon="2.95523">
        <ele>547</ele>
        <time>2021-09-04T10:25:39Z</time>
      </trkpt>
      <trkpt lat="44.12277" lon="2.95545">
        <ele>545</ele>
        <time>2021-09-04T10:25:41Z</time>
      </trkpt>
      <trkpt lat="44.12244" lon="2.95605">
        <ele>541</ele>
        <time>2021-09-04T10:25:47Z</time>
      </trkpt>
      <trkpt lat="44.12233" lon="2.95638">
        <ele>539</ele>
        <time>2021-09-04T10:25:50Z</time>
      </trkpt>
      <trkpt lat="44.12229" lon="2.95659">
        <ele>538</ele>
        <time>2021-09-04T10:25:52Z</time>
      </trkpt>
      <trkpt lat="44.12229" lon="2.9567">
        <ele>538</ele>
        <time>2021-09-04T10:25:53Z</time>
      </trkpt>
      <trkpt lat="44.12235" lon="2.95692">
        <ele>539</ele>
        <time>2021-09-04T10:25:55Z</time>
      </trkpt>
      <trkpt lat="44.12241" lon="2.957">
        <ele>541</ele>
        <time>2021-09-04T10:25:56Z</time>
      </trkpt>
      <trkpt lat="44.12247" lon="2.95705">
        <ele>541</ele>
        <time>2021-09-04T10:25:57Z</time>
      </trkpt>
      <trkpt lat="44.12254" lon="2.95707">
        <ele>541</ele>
        <time>2021-09-04T10:25:58Z</time>
      </trkpt>
      <trkpt lat="44.12261" lon="2.95706">
        <ele>541</ele>
        <time>2021-09-04T10:25:59Z</time>
      </trkpt>
      <trkpt lat="44.12275" lon="2.95695">
        <ele>541</ele>
        <time>2021-09-04T10:26:02Z</time>
      </trkpt>
      <trkpt lat="44.12284" lon="2.95692">
        <ele>541</ele>
        <time>2021-09-04T10:26:04Z</time>
      </trkpt>
      <trkpt lat="44.12297" lon="2.95683">
        <ele>541</ele>
        <time>2021-09-04T10:26:07Z</time>
      </trkpt>
      <trkpt lat="44.12438" lon="2.95634">
        <ele>541</ele>
        <time>2021-09-04T10:26:30Z</time>
      </trkpt>
      <trkpt lat="44.12535" lon="2.95649">
        <ele>539</ele>
        <time>2021-09-04T10:26:44Z</time>
      </trkpt>
      <trkpt lat="44.12549" lon="2.95658">
        <ele>538</ele>
        <time>2021-09-04T10:26:46Z</time>
      </trkpt>
      <trkpt lat="44.1256" lon="2.95672">
        <ele>538</ele>
        <time>2021-09-04T10:26:48Z</time>
      </trkpt>
      <trkpt lat="44.12564" lon="2.9568">
        <ele>538</ele>
        <time>2021-09-04T10:26:49Z</time>
      </trkpt>
      <trkpt lat="44.12591" lon="2.95829">
        <ele>531</ele>
        <time>2021-09-04T10:27:04Z</time>
      </trkpt>
      <trkpt lat="44.12597" lon="2.95922">
        <ele>529</ele>
        <time>2021-09-04T10:27:13Z</time>
      </trkpt>
      <trkpt lat="44.12599" lon="2.95932">
        <ele>529</ele>
        <time>2021-09-04T10:27:14Z</time>
      </trkpt>
      <trkpt lat="44.12603" lon="2.9594">
        <ele>529</ele>
        <time>2021-09-04T10:27:15Z</time>
      </trkpt>
      <trkpt lat="44.12693" lon="2.96036">
        <ele>533</ele>
        <time>2021-09-04T10:27:45Z</time>
      </trkpt>
      <trkpt lat="44.12734" lon="2.96077">
        <ele>535</ele>
        <time>2021-09-04T10:28:05Z</time>
      </trkpt>
      <trkpt lat="44.12756" lon="2.96091">
        <ele>535</ele>
        <time>2021-09-04T10:28:13Z</time>
      </trkpt>
      <trkpt lat="44.12842" lon="2.96059">
        <ele>537</ele>
        <time>2021-09-04T10:28:44Z</time>
      </trkpt>
      <trkpt lat="44.1293" lon="2.9599">
        <ele>544</ele>
        <time>2021-09-04T10:29:16Z</time>
      </trkpt>
      <trkpt lat="44.1299" lon="2.95961">
        <ele>545</ele>
        <time>2021-09-04T10:29:36Z</time>
      </trkpt>
      <trkpt lat="44.12996" lon="2.95964">
        <ele>545</ele>
        <time>2021-09-04T10:29:38Z</time>
      </trkpt>
      <trkpt lat="44.13007" lon="2.95973">
        <ele>545</ele>
        <time>2021-09-04T10:29:42Z</time>
      </trkpt>
      <trkpt lat="44.1302" lon="2.95995">
        <ele>545</ele>
        <time>2021-09-04T10:29:48Z</time>
      </trkpt>
      <trkpt lat="44.13055" lon="2.96082">
        <ele>545</ele>
        <time>2021-09-04T10:30:05Z</time>
      </trkpt>
      <trkpt lat="44.13059" lon="2.96095">
        <ele>545</ele>
        <time>2021-09-04T10:30:07Z</time>
      </trkpt>
      <trkpt lat="44.13073" lon="2.96129">
        <ele>548</ele>
        <time>2021-09-04T10:30:12Z</time>
      </trkpt>
      <trkpt lat="44.13142" lon="2.96223">
        <ele>544</ele>
        <time>2021-09-04T10:30:31Z</time>
      </trkpt>
      <trkpt lat="44.13268" lon="2.96373">
        <ele>539</ele>
        <time>2021-09-04T10:30:59Z</time>
      </trkpt>
      <trkpt lat="44.13279" lon="2.96379">
        <ele>538</ele>
        <time>2021-09-04T10:31:01Z</time>
      </trkpt>
      <trkpt lat="44.13285" lon="2.9638">
        <ele>537</ele>
        <time>2021-09-04T10:31:02Z</time>
      </trkpt>
      <trkpt lat="44.13291" lon="2.96379">
        <ele>537</ele>
        <time>2021-09-04T10:31:03Z</time>
      </trkpt>
      <trkpt lat="44.13297" lon="2.96377">
        <ele>536</ele>
        <time>2021-09-04T10:31:04Z</time>
      </trkpt>
      <trkpt lat="44.13307" lon="2.96366">
        <ele>536</ele>
        <time>2021-09-04T10:31:06Z</time>
      </trkpt>
      <trkpt lat="44.13314" lon="2.96351">
        <ele>536</ele>
        <time>2021-09-04T10:31:08Z</time>
      </trkpt>
      <trkpt lat="44.13345" lon="2.96227">
        <ele>537</ele>
        <time>2021-09-04T10:31:32Z</time>
      </trkpt>
      <trkpt lat="44.13383" lon="2.96176">
        <ele>533</ele>
        <time>2021-09-04T10:31:44Z</time>
      </trkpt>
      <trkpt lat="44.13419" lon="2.96149">
        <ele>535</ele>
        <time>2021-09-04T10:31:53Z</time>
      </trkpt>
      <trkpt lat="44.13444" lon="2.96145">
        <ele>537</ele>
        <time>2021-09-04T10:31:59Z</time>
      </trkpt>
      <trkpt lat="44.13461" lon="2.96145">
        <ele>539</ele>
        <time>2021-09-04T10:32:03Z</time>
      </trkpt>
      <trkpt lat="44.13499" lon="2.96153">
        <ele>544</ele>
        <time>2021-09-04T10:32:13Z</time>
      </trkpt>
      <trkpt lat="44.13512" lon="2.96162">
        <ele>546</ele>
        <time>2021-09-04T10:32:17Z</time>
      </trkpt>
      <trkpt lat="44.13553" lon="2.96221">
        <ele>547</ele>
        <time>2021-09-04T10:32:35Z</time>
      </trkpt>
      <trkpt lat="44.13587" lon="2.9627">
        <ele>549</ele>
        <time>2021-09-04T10:32:49Z</time>
      </trkpt>
      <trkpt lat="44.13624" lon="2.96323">
        <ele>546</ele>
        <time>2021-09-04T10:33:02Z</time>
      </trkpt>
      <trkpt lat="44.13666" lon="2.96369">
        <ele>545</ele>
        <time>2021-09-04T10:33:16Z</time>
      </trkpt>
      <trkpt lat="44.13695" lon="2.96389">
        <ele>545</ele>
        <time>2021-09-04T10:33:26Z</time>
      </trkpt>
      <trkpt lat="44.13721" lon="2.96394">
        <ele>544</ele>
        <time>2021-09-04T10:33:34Z</time>
      </trkpt>
      <trkpt lat="44.13747" lon="2.96386">
        <ele>541</ele>
        <time>2021-09-04T10:33:42Z</time>
      </trkpt>
      <trkpt lat="44.13785" lon="2.96375">
        <ele>539</ele>
        <time>2021-09-04T10:33:52Z</time>
      </trkpt>
      <trkpt lat="44.13804" lon="2.96377">
        <ele>539</ele>
        <time>2021-09-04T10:33:56Z</time>
      </trkpt>
      <trkpt lat="44.1388" lon="2.96417">
        <ele>542</ele>
        <time>2021-09-04T10:34:13Z</time>
      </trkpt>
      <trkpt lat="44.13906" lon="2.96424">
        <ele>540</ele>
        <time>2021-09-04T10:34:18Z</time>
      </trkpt>
      <trkpt lat="44.13941" lon="2.96429">
        <ele>540</ele>
        <time>2021-09-04T10:34:26Z</time>
      </trkpt>
      <trkpt lat="44.13945" lon="2.9643">
        <ele>540</ele>
        <time>2021-09-04T10:34:28Z</time>
      </trkpt>
      <trkpt lat="44.1395" lon="2.96429">
        <ele>540</ele>
        <time>2021-09-04T10:34:30Z</time>
      </trkpt>
      <trkpt lat="44.13955" lon="2.96429">
        <ele>540</ele>
        <time>2021-09-04T10:34:32Z</time>
      </trkpt>
      <trkpt lat="44.13959" lon="2.96426">
        <ele>541</ele>
        <time>2021-09-04T10:34:59Z</time>
      </trkpt>
      <trkpt lat="44.13978" lon="2.96359">
        <ele>544</ele>
        <time>2021-09-04T10:35:19Z</time>
      </trkpt>
      <trkpt lat="44.13993" lon="2.96353">
        <ele>545</ele>
        <time>2021-09-04T10:35:25Z</time>
      </trkpt>
      <trkpt lat="44.14055" lon="2.9634">
        <ele>548</ele>
        <time>2021-09-04T10:35:55Z</time>
      </trkpt>
      <trkpt lat="44.14109" lon="2.96311">
        <ele>551</ele>
        <time>2021-09-04T10:36:26Z</time>
      </trkpt>
      <trkpt lat="44.14155" lon="2.96249">
        <ele>555</ele>
        <time>2021-09-04T10:36:57Z</time>
      </trkpt>
      <trkpt lat="44.14189" lon="2.9616">
        <ele>563</ele>
        <time>2021-09-04T10:37:30Z</time>
      </trkpt>
      <trkpt lat="44.14238" lon="2.96061">
        <ele>563</ele>
        <time>2021-09-04T10:38:01Z</time>
      </trkpt>
      <trkpt lat="44.14268" lon="2.96003">
        <ele>563</ele>
        <time>2021-09-04T10:38:14Z</time>
      </trkpt>
      <trkpt lat="44.14298" lon="2.95897">
        <ele>566</ele>
        <time>2021-09-04T10:38:29Z</time>
      </trkpt>
      <trkpt lat="44.14305" lon="2.95807">
        <ele>566</ele>
        <time>2021-09-04T10:38:41Z</time>
      </trkpt>
      <trkpt lat="44.14307" lon="2.95799">
        <ele>566</ele>
        <time>2021-09-04T10:38:42Z</time>
      </trkpt>
      <trkpt lat="44.14312" lon="2.95762">
        <ele>565</ele>
        <time>2021-09-04T10:38:47Z</time>
      </trkpt>
      <trkpt lat="44.14326" lon="2.95712">
        <ele>565</ele>
        <time>2021-09-04T10:38:53Z</time>
      </trkpt>
      <trkpt lat="44.14344" lon="2.95677">
        <ele>565</ele>
        <time>2021-09-04T10:38:58Z</time>
      </trkpt>
      <trkpt lat="44.14364" lon="2.95649">
        <ele>569</ele>
        <time>2021-09-04T10:39:04Z</time>
      </trkpt>
      <trkpt lat="44.14391" lon="2.95607">
        <ele>571</ele>
        <time>2021-09-04T10:39:16Z</time>
      </trkpt>
      <trkpt lat="44.14395" lon="2.95602">
        <ele>571</ele>
        <time>2021-09-04T10:39:18Z</time>
      </trkpt>
      <trkpt lat="44.14421" lon="2.95574">
        <ele>571</ele>
        <time>2021-09-04T10:39:28Z</time>
      </trkpt>
      <trkpt lat="44.14469" lon="2.95537">
        <ele>563</ele>
        <time>2021-09-04T10:39:49Z</time>
      </trkpt>
      <trkpt lat="44.14522" lon="2.95492">
        <ele>556</ele>
        <time>2021-09-04T10:40:14Z</time>
      </trkpt>
      <trkpt lat="44.14527" lon="2.95489">
        <ele>555</ele>
        <time>2021-09-04T10:40:17Z</time>
      </trkpt>
      <trkpt lat="44.14532" lon="2.95487">
        <ele>555</ele>
        <time>2021-09-04T10:40:19Z</time>
      </trkpt>
      <trkpt lat="44.14538" lon="2.95484">
        <ele>555</ele>
        <time>2021-09-04T10:40:21Z</time>
      </trkpt>
      <trkpt lat="44.14543" lon="2.9548">
        <ele>555</ele>
        <time>2021-09-04T10:40:23Z</time>
      </trkpt>
      <trkpt lat="44.14589" lon="2.9545">
        <ele>560</ele>
        <time>2021-09-04T10:40:43Z</time>
      </trkpt>
      <trkpt lat="44.14594" lon="2.95448">
        <ele>560</ele>
        <time>2021-09-04T10:40:45Z</time>
      </trkpt>
      <trkpt lat="44.14603" lon="2.95443">
        <ele>562</ele>
        <time>2021-09-04T10:40:49Z</time>
      </trkpt>
      <trkpt lat="44.14608" lon="2.95441">
        <ele>562</ele>
        <time>2021-09-04T10:40:51Z</time>
      </trkpt>
      <trkpt lat="44.14635" lon="2.95433">
        <ele>561</ele>
        <time>2021-09-04T10:41:03Z</time>
      </trkpt>
      <trkpt lat="44.14646" lon="2.95427">
        <ele>561</ele>
        <time>2021-09-04T10:41:08Z</time>
      </trkpt>
      <trkpt lat="44.14713" lon="2.95413">
        <ele>556</ele>
        <time>2021-09-04T10:41:39Z</time>
      </trkpt>
      <trkpt lat="44.14732" lon="2.95408">
        <ele>555</ele>
        <time>2021-09-04T10:41:47Z</time>
      </trkpt>
      <trkpt lat="44.14738" lon="2.95406">
        <ele>554</ele>
        <time>2021-09-04T10:41:50Z</time>
      </trkpt>
      <trkpt lat="44.14767" lon="2.95402">
        <ele>553</ele>
        <time>2021-09-04T10:42:01Z</time>
      </trkpt>
      <trkpt lat="44.14778" lon="2.954">
        <ele>554</ele>
        <time>2021-09-04T10:42:05Z</time>
      </trkpt>
      <trkpt lat="44.14843" lon="2.95399">
        <ele>555</ele>
        <time>2021-09-04T10:42:31Z</time>
      </trkpt>
      <trkpt lat="44.14912" lon="2.95395">
        <ele>566</ele>
        <time>2021-09-04T10:43:00Z</time>
      </trkpt>
      <trkpt lat="44.14922" lon="2.95393">
        <ele>567</ele>
        <time>2021-09-04T10:43:04Z</time>
      </trkpt>
      <trkpt lat="44.14932" lon="2.95386">
        <ele>568</ele>
        <time>2021-09-04T10:43:08Z</time>
      </trkpt>
      <trkpt lat="44.14945" lon="2.9537">
        <ele>570</ele>
        <time>2021-09-04T10:43:14Z</time>
      </trkpt>
      <trkpt lat="44.14954" lon="2.95347">
        <ele>573</ele>
        <time>2021-09-04T10:43:20Z</time>
      </trkpt>
      <trkpt lat="44.14958" lon="2.95317">
        <ele>575</ele>
        <time>2021-09-04T10:43:26Z</time>
      </trkpt>
      <trkpt lat="44.14963" lon="2.95299">
        <ele>577</ele>
        <time>2021-09-04T10:43:29Z</time>
      </trkpt>
      <trkpt lat="44.14972" lon="2.95279">
        <ele>579</ele>
        <time>2021-09-04T10:43:33Z</time>
      </trkpt>
      <trkpt lat="44.14977" lon="2.95271">
        <ele>579</ele>
        <time>2021-09-04T10:43:35Z</time>
      </trkpt>
      <trkpt lat="44.14984" lon="2.95266">
        <ele>579</ele>
        <time>2021-09-04T10:43:37Z</time>
      </trkpt>
      <trkpt lat="44.15096" lon="2.95227">
        <ele>582</ele>
        <time>2021-09-04T10:44:09Z</time>
      </trkpt>
      <trkpt lat="44.15104" lon="2.9523">
        <ele>581</ele>
        <time>2021-09-04T10:44:11Z</time>
      </trkpt>
      <trkpt lat="44.15109" lon="2.95236">
        <ele>581</ele>
        <time>2021-09-04T10:44:13Z</time>
      </trkpt>
      <trkpt lat="44.15115" lon="2.9524">
        <ele>581</ele>
        <time>2021-09-04T10:44:15Z</time>
      </trkpt>
      <trkpt lat="44.15131" lon="2.95275">
        <ele>578</ele>
        <time>2021-09-04T10:44:23Z</time>
      </trkpt>
      <trkpt lat="44.15141" lon="2.95294">
        <ele>577</ele>
        <time>2021-09-04T10:44:27Z</time>
      </trkpt>
      <trkpt lat="44.15174" lon="2.95323">
        <ele>578</ele>
        <time>2021-09-04T10:44:37Z</time>
      </trkpt>
      <trkpt lat="44.15194" lon="2.95337">
        <ele>578</ele>
        <time>2021-09-04T10:44:43Z</time>
      </trkpt>
      <trkpt lat="44.152" lon="2.95339">
        <ele>578</ele>
        <time>2021-09-04T10:44:45Z</time>
      </trkpt>
      <trkpt lat="44.15221" lon="2.95335">
        <ele>580</ele>
        <time>2021-09-04T10:44:51Z</time>
      </trkpt>
      <trkpt lat="44.15267" lon="2.95309">
        <ele>585</ele>
        <time>2021-09-04T10:45:05Z</time>
      </trkpt>
      <trkpt lat="44.1528" lon="2.95304">
        <ele>586</ele>
        <time>2021-09-04T10:45:09Z</time>
      </trkpt>
      <trkpt lat="44.15309" lon="2.95306">
        <ele>585</ele>
        <time>2021-09-04T10:45:17Z</time>
      </trkpt>
      <trkpt lat="44.1535" lon="2.95317">
        <ele>584</ele>
        <time>2021-09-04T10:45:29Z</time>
      </trkpt>
      <trkpt lat="44.15366" lon="2.95326">
        <ele>584</ele>
        <time>2021-09-04T10:45:33Z</time>
      </trkpt>
      <trkpt lat="44.15374" lon="2.95331">
        <ele>584</ele>
        <time>2021-09-04T10:45:35Z</time>
      </trkpt>
      <trkpt lat="44.15402" lon="2.95384">
        <ele>582</ele>
        <time>2021-09-04T10:45:47Z</time>
      </trkpt>
      <trkpt lat="44.15425" lon="2.95417">
        <ele>582</ele>
        <time>2021-09-04T10:45:57Z</time>
      </trkpt>
      <trkpt lat="44.15451" lon="2.95445">
        <ele>585</ele>
        <time>2021-09-04T10:46:07Z</time>
      </trkpt>
      <trkpt lat="44.15462" lon="2.95451">
        <ele>586</ele>
        <time>2021-09-04T10:46:11Z</time>
      </trkpt>
      <trkpt lat="44.15496" lon="2.95429">
        <ele>589</ele>
        <time>2021-09-04T10:46:22Z</time>
      </trkpt>
      <trkpt lat="44.15514" lon="2.95406">
        <ele>589</ele>
        <time>2021-09-04T10:46:28Z</time>
      </trkpt>
      <trkpt lat="44.15529" lon="2.95399">
        <ele>590</ele>
        <time>2021-09-04T10:46:31Z</time>
      </trkpt>
      <trkpt lat="44.15541" lon="2.95398">
        <ele>590</ele>
        <time>2021-09-04T10:46:33Z</time>
      </trkpt>
      <trkpt lat="44.15557" lon="2.95401">
        <ele>590</ele>
        <time>2021-09-04T10:46:36Z</time>
      </trkpt>
      <trkpt lat="44.15738" lon="2.95507">
        <ele>585</ele>
        <time>2021-09-04T10:47:06Z</time>
      </trkpt>
      <trkpt lat="44.15751" lon="2.95511">
        <ele>584</ele>
        <time>2021-09-04T10:47:08Z</time>
      </trkpt>
      <trkpt lat="44.15757" lon="2.95511">
        <ele>584</ele>
        <time>2021-09-04T10:47:09Z</time>
      </trkpt>
      <trkpt lat="44.15768" lon="2.95505">
        <ele>584</ele>
        <time>2021-09-04T10:47:11Z</time>
      </trkpt>
      <trkpt lat="44.15796" lon="2.95467">
        <ele>581</ele>
        <time>2021-09-04T10:47:19Z</time>
      </trkpt>
      <trkpt lat="44.15806" lon="2.95447">
        <ele>579</ele>
        <time>2021-09-04T10:47:22Z</time>
      </trkpt>
      <trkpt lat="44.15819" lon="2.95419">
        <ele>577</ele>
        <time>2021-09-04T10:47:26Z</time>
      </trkpt>
      <trkpt lat="44.15824" lon="2.95408">
        <ele>576</ele>
        <time>2021-09-04T10:47:28Z</time>
      </trkpt>
      <trkpt lat="44.15833" lon="2.954">
        <ele>575</ele>
        <time>2021-09-04T10:47:30Z</time>
      </trkpt>
      <trkpt lat="44.15844" lon="2.95402">
        <ele>575</ele>
        <time>2021-09-04T10:47:32Z</time>
      </trkpt>
      <trkpt lat="44.1585" lon="2.95406">
        <ele>575</ele>
        <time>2021-09-04T10:47:33Z</time>
      </trkpt>
      <trkpt lat="44.15858" lon="2.95417">
        <ele>576</ele>
        <time>2021-09-04T10:47:35Z</time>
      </trkpt>
      <trkpt lat="44.15861" lon="2.95422">
        <ele>576</ele>
        <time>2021-09-04T10:47:36Z</time>
      </trkpt>
      <trkpt lat="44.15866" lon="2.95433">
        <ele>578</ele>
        <time>2021-09-04T10:47:38Z</time>
      </trkpt>
      <trkpt lat="44.15873" lon="2.95452">
        <ele>580</ele>
        <time>2021-09-04T10:47:42Z</time>
      </trkpt>
      <trkpt lat="44.15881" lon="2.95461">
        <ele>582</ele>
        <time>2021-09-04T10:47:46Z</time>
      </trkpt>
      <trkpt lat="44.15888" lon="2.95471">
        <ele>584</ele>
        <time>2021-09-04T10:47:50Z</time>
      </trkpt>
      <trkpt lat="44.15896" lon="2.95482">
        <ele>586</ele>
        <time>2021-09-04T10:47:55Z</time>
      </trkpt>
      <trkpt lat="44.1591" lon="2.95495">
        <ele>590</ele>
        <time>2021-09-04T10:48:07Z</time>
      </trkpt>
      <trkpt lat="44.15958" lon="2.95489">
        <ele>598</ele>
        <time>2021-09-04T10:48:37Z</time>
      </trkpt>
      <trkpt lat="44.16004" lon="2.95478">
        <ele>603</ele>
        <time>2021-09-04T10:48:58Z</time>
      </trkpt>
      <trkpt lat="44.16008" lon="2.95476">
        <ele>603</ele>
        <time>2021-09-04T10:49:01Z</time>
      </trkpt>
      <trkpt lat="44.16023" lon="2.9548">
        <ele>606</ele>
        <time>2021-09-04T10:50:00Z</time>
      </trkpt>
      <trkpt lat="44.16028" lon="2.95481">
        <ele>607</ele>
        <time>2021-09-04T10:50:43Z</time>
      </trkpt>
      <trkpt lat="44.16078" lon="2.95478">
        <ele>603</ele>
        <time>2021-09-04T10:51:06Z</time>
      </trkpt>
      <trkpt lat="44.16103" lon="2.95484">
        <ele>605</ele>
        <time>2021-09-04T10:51:16Z</time>
      </trkpt>
      <trkpt lat="44.16113" lon="2.95491">
        <ele>606</ele>
        <time>2021-09-04T10:51:21Z</time>
      </trkpt>
      <trkpt lat="44.16122" lon="2.95495">
        <ele>605</ele>
        <time>2021-09-04T10:51:25Z</time>
      </trkpt>
      <trkpt lat="44.16147" lon="2.95492">
        <ele>605</ele>
        <time>2021-09-04T10:51:37Z</time>
      </trkpt>
      <trkpt lat="44.16158" lon="2.95496">
        <ele>606</ele>
        <time>2021-09-04T10:51:41Z</time>
      </trkpt>
      <trkpt lat="44.1617" lon="2.95507">
        <ele>609</ele>
        <time>2021-09-04T10:51:47Z</time>
      </trkpt>
      <trkpt lat="44.16203" lon="2.95584">
        <ele>616</ele>
        <time>2021-09-04T10:52:16Z</time>
      </trkpt>
      <trkpt lat="44.16241" lon="2.95652">
        <ele>620</ele>
        <time>2021-09-04T10:52:46Z</time>
      </trkpt>
      <trkpt lat="44.16244" lon="2.9567">
        <ele>622</ele>
        <time>2021-09-04T10:52:52Z</time>
      </trkpt>
      <trkpt lat="44.16244" lon="2.95677">
        <ele>622</ele>
        <time>2021-09-04T10:52:54Z</time>
      </trkpt>
      <trkpt lat="44.16246" lon="2.95693">
        <ele>624</ele>
        <time>2021-09-04T10:52:59Z</time>
      </trkpt>
      <trkpt lat="44.16254" lon="2.95707">
        <ele>625</ele>
        <time>2021-09-04T10:53:05Z</time>
      </trkpt>
      <trkpt lat="44.16258" lon="2.9571">
        <ele>626</ele>
        <time>2021-09-04T10:53:07Z</time>
      </trkpt>
      <trkpt lat="44.16263" lon="2.9571">
        <ele>626</ele>
        <time>2021-09-04T10:53:10Z</time>
      </trkpt>
      <trkpt lat="44.16271" lon="2.9572">
        <ele>628</ele>
        <time>2021-09-04T10:53:19Z</time>
      </trkpt>
      <trkpt lat="44.16278" lon="2.95732">
        <ele>629</ele>
        <time>2021-09-04T10:53:27Z</time>
      </trkpt>
      <trkpt lat="44.16284" lon="2.95745">
        <ele>628</ele>
        <time>2021-09-04T10:53:31Z</time>
      </trkpt>
      <trkpt lat="44.16288" lon="2.9575">
        <ele>627</ele>
        <time>2021-09-04T10:53:33Z</time>
      </trkpt>
      <trkpt lat="44.16292" lon="2.95758">
        <ele>627</ele>
        <time>2021-09-04T10:53:36Z</time>
      </trkpt>
      <trkpt lat="44.16289" lon="2.95757">
        <ele>627</ele>
        <time>2021-09-04T10:53:44Z</time>
      </trkpt>
      <trkpt lat="44.16287" lon="2.9575">
        <ele>627</ele>
        <time>2021-09-04T10:53:46Z</time>
      </trkpt>
      <trkpt lat="44.16269" lon="2.95708">
        <ele>634</ele>
        <time>2021-09-04T10:54:01Z</time>
      </trkpt>
      <trkpt lat="44.16272" lon="2.95702">
        <ele>635</ele>
        <time>2021-09-04T10:54:04Z</time>
      </trkpt>
      <trkpt lat="44.16277" lon="2.95701">
        <ele>634</ele>
        <time>2021-09-04T10:54:07Z</time>
      </trkpt>
      <trkpt lat="44.16291" lon="2.95712">
        <ele>633</ele>
        <time>2021-09-04T10:54:14Z</time>
      </trkpt>
      <trkpt lat="44.16293" lon="2.95717">
        <ele>632</ele>
        <time>2021-09-04T10:54:16Z</time>
      </trkpt>
      <trkpt lat="44.16294" lon="2.95713">
        <ele>632</ele>
        <time>2021-09-04T10:54:26Z</time>
      </trkpt>
      <trkpt lat="44.16288" lon="2.9571">
        <ele>632</ele>
        <time>2021-09-04T10:54:28Z</time>
      </trkpt>
      <trkpt lat="44.16279" lon="2.95701">
        <ele>633</ele>
        <time>2021-09-04T10:54:32Z</time>
      </trkpt>
      <trkpt lat="44.16265" lon="2.95692">
        <ele>633</ele>
        <time>2021-09-04T10:54:38Z</time>
      </trkpt>
      <trkpt lat="44.16256" lon="2.95687">
        <ele>633</ele>
        <time>2021-09-04T10:58:29Z</time>
      </trkpt>
      <trkpt lat="44.16255" lon="2.95693">
        <ele>638</ele>
        <time>2021-09-04T11:19:50Z</time>
      </trkpt>
      <trkpt lat="44.16256" lon="2.95689">
        <ele>637</ele>
        <time>2021-09-04T11:22:48Z</time>
      </trkpt>
      <trkpt lat="44.16264" lon="2.95701">
        <ele>636</ele>
        <time>2021-09-04T11:22:53Z</time>
      </trkpt>
      <trkpt lat="44.16271" lon="2.95718">
        <ele>636</ele>
        <time>2021-09-04T11:22:56Z</time>
      </trkpt>
      <trkpt lat="44.1629" lon="2.95754">
        <ele>634</ele>
        <time>2021-09-04T11:23:02Z</time>
      </trkpt>
      <trkpt lat="44.16305" lon="2.9577">
        <ele>634</ele>
        <time>2021-09-04T11:23:06Z</time>
      </trkpt>
      <trkpt lat="44.16338" lon="2.95797">
        <ele>631</ele>
        <time>2021-09-04T11:23:16Z</time>
      </trkpt>
      <trkpt lat="44.16379" lon="2.95844">
        <ele>624</ele>
        <time>2021-09-04T11:23:27Z</time>
      </trkpt>
      <trkpt lat="44.16413" lon="2.95867">
        <ele>622</ele>
        <time>2021-09-04T11:23:33Z</time>
      </trkpt>
      <trkpt lat="44.16437" lon="2.95877">
        <ele>619</ele>
        <time>2021-09-04T11:23:38Z</time>
      </trkpt>
      <trkpt lat="44.16484" lon="2.9586">
        <ele>618</ele>
        <time>2021-09-04T11:23:45Z</time>
      </trkpt>
      <trkpt lat="44.16526" lon="2.95843">
        <ele>617</ele>
        <time>2021-09-04T11:23:51Z</time>
      </trkpt>
      <trkpt lat="44.1662" lon="2.95833">
        <ele>614</ele>
        <time>2021-09-04T11:24:07Z</time>
      </trkpt>
      <trkpt lat="44.16656" lon="2.95839">
        <ele>614</ele>
        <time>2021-09-04T11:24:17Z</time>
      </trkpt>
      <trkpt lat="44.16676" lon="2.95848">
        <ele>613</ele>
        <time>2021-09-04T11:24:22Z</time>
      </trkpt>
      <trkpt lat="44.16691" lon="2.9586">
        <ele>611</ele>
        <time>2021-09-04T11:24:30Z</time>
      </trkpt>
      <trkpt lat="44.16694" lon="2.95865">
        <ele>610</ele>
        <time>2021-09-04T11:25:28Z</time>
      </trkpt>
      <trkpt lat="44.16696" lon="2.95872">
        <ele>610</ele>
        <time>2021-09-04T11:27:28Z</time>
      </trkpt>
      <trkpt lat="44.167" lon="2.95868">
        <ele>621</ele>
        <time>2021-09-04T11:29:20Z</time>
      </trkpt>
      <trkpt lat="44.16702" lon="2.95866">
        <ele>635</ele>
        <time>2021-09-04T11:30:12Z</time>
      </trkpt>
      <trkpt lat="44.16706" lon="2.95865">
        <ele>636</ele>
        <time>2021-09-04T11:36:52Z</time>
      </trkpt>
      <trkpt lat="44.16708" lon="2.95872">
        <ele>636</ele>
        <time>2021-09-04T11:42:07Z</time>
      </trkpt>
      <trkpt lat="44.16711" lon="2.95878">
        <ele>636</ele>
        <time>2021-09-04T11:42:09Z</time>
      </trkpt>
      <trkpt lat="44.16788" lon="2.96036">
        <ele>624</ele>
        <time>2021-09-04T11:42:39Z</time>
      </trkpt>
      <trkpt lat="44.16838" lon="2.96097">
        <ele>621</ele>
        <time>2021-09-04T11:42:48Z</time>
      </trkpt>
      <trkpt lat="44.16859" lon="2.96111">
        <ele>621</ele>
        <time>2021-09-04T11:42:52Z</time>
      </trkpt>
      <trkpt lat="44.16976" lon="2.96156">
        <ele>620</ele>
        <time>2021-09-04T11:43:14Z</time>
      </trkpt>
      <trkpt lat="44.17068" lon="2.96236">
        <ele>619</ele>
        <time>2021-09-04T11:43:35Z</time>
      </trkpt>
      <trkpt lat="44.17113" lon="2.96261">
        <ele>616</ele>
        <time>2021-09-04T11:43:47Z</time>
      </trkpt>
      <trkpt lat="44.17146" lon="2.96293">
        <ele>614</ele>
        <time>2021-09-04T11:43:57Z</time>
      </trkpt>
      <trkpt lat="44.17166" lon="2.96326">
        <ele>612</ele>
        <time>2021-09-04T11:44:05Z</time>
      </trkpt>
      <trkpt lat="44.1723" lon="2.9648">
        <ele>613</ele>
        <time>2021-09-04T11:44:37Z</time>
      </trkpt>
      <trkpt lat="44.17244" lon="2.96501">
        <ele>614</ele>
        <time>2021-09-04T11:44:43Z</time>
      </trkpt>
      <trkpt lat="44.17257" lon="2.96514">
        <ele>614</ele>
        <time>2021-09-04T11:44:47Z</time>
      </trkpt>
      <trkpt lat="44.17371" lon="2.96587">
        <ele>619</ele>
        <time>2021-09-04T11:45:17Z</time>
      </trkpt>
      <trkpt lat="44.17412" lon="2.96622">
        <ele>619</ele>
        <time>2021-09-04T11:45:28Z</time>
      </trkpt>
      <trkpt lat="44.17423" lon="2.96639">
        <ele>619</ele>
        <time>2021-09-04T11:45:32Z</time>
      </trkpt>
      <trkpt lat="44.17474" lon="2.96746">
        <ele>622</ele>
        <time>2021-09-04T11:45:55Z</time>
      </trkpt>
      <trkpt lat="44.17496" lon="2.96788">
        <ele>620</ele>
        <time>2021-09-04T11:46:03Z</time>
      </trkpt>
      <trkpt lat="44.1751" lon="2.96827">
        <ele>619</ele>
        <time>2021-09-04T11:46:11Z</time>
      </trkpt>
      <trkpt lat="44.17545" lon="2.96971">
        <ele>622</ele>
        <time>2021-09-04T11:46:41Z</time>
      </trkpt>
      <trkpt lat="44.17549" lon="2.96994">
        <ele>621</ele>
        <time>2021-09-04T11:46:45Z</time>
      </trkpt>
      <trkpt lat="44.17548" lon="2.97013">
        <ele>622</ele>
        <time>2021-09-04T11:46:49Z</time>
      </trkpt>
      <trkpt lat="44.17544" lon="2.97033">
        <ele>622</ele>
        <time>2021-09-04T11:46:53Z</time>
      </trkpt>
      <trkpt lat="44.17536" lon="2.97061">
        <ele>622</ele>
        <time>2021-09-04T11:46:59Z</time>
      </trkpt>
      <trkpt lat="44.17533" lon="2.97093">
        <ele>622</ele>
        <time>2021-09-04T11:47:05Z</time>
      </trkpt>
      <trkpt lat="44.1753" lon="2.97171">
        <ele>620</ele>
        <time>2021-09-04T11:47:19Z</time>
      </trkpt>
      <trkpt lat="44.17505" lon="2.97354">
        <ele>617</ele>
        <time>2021-09-04T11:47:49Z</time>
      </trkpt>
      <trkpt lat="44.17505" lon="2.97392">
        <ele>616</ele>
        <time>2021-09-04T11:47:55Z</time>
      </trkpt>
      <trkpt lat="44.17506" lon="2.97403">
        <ele>616</ele>
        <time>2021-09-04T11:47:57Z</time>
      </trkpt>
      <trkpt lat="44.17506" lon="2.97414">
        <ele>615</ele>
        <time>2021-09-04T11:47:59Z</time>
      </trkpt>
      <trkpt lat="44.17516" lon="2.97536">
        <ele>618</ele>
        <time>2021-09-04T11:48:20Z</time>
      </trkpt>
      <trkpt lat="44.17515" lon="2.97547">
        <ele>618</ele>
        <time>2021-09-04T11:48:22Z</time>
      </trkpt>
      <trkpt lat="44.17513" lon="2.97556">
        <ele>618</ele>
        <time>2021-09-04T11:48:24Z</time>
      </trkpt>
      <trkpt lat="44.17491" lon="2.97588">
        <ele>620</ele>
        <time>2021-09-04T11:48:34Z</time>
      </trkpt>
      <trkpt lat="44.17487" lon="2.97599">
        <ele>620</ele>
        <time>2021-09-04T11:48:36Z</time>
      </trkpt>
      <trkpt lat="44.17486" lon="2.97608">
        <ele>620</ele>
        <time>2021-09-04T11:48:37Z</time>
      </trkpt>
      <trkpt lat="44.1749" lon="2.97646">
        <ele>621</ele>
        <time>2021-09-04T11:48:42Z</time>
      </trkpt>
      <trkpt lat="44.17516" lon="2.97755">
        <ele>623</ele>
        <time>2021-09-04T11:48:59Z</time>
      </trkpt>
      <trkpt lat="44.17522" lon="2.97786">
        <ele>627</ele>
        <time>2021-09-04T11:49:05Z</time>
      </trkpt>
      <trkpt lat="44.17533" lon="2.97847">
        <ele>628</ele>
        <time>2021-09-04T11:49:21Z</time>
      </trkpt>
      <trkpt lat="44.17537" lon="2.97919">
        <ele>629</ele>
        <time>2021-09-04T11:49:45Z</time>
      </trkpt>
      <trkpt lat="44.17533" lon="2.98009">
        <ele>634</ele>
        <time>2021-09-04T11:50:18Z</time>
      </trkpt>
      <trkpt lat="44.17527" lon="2.981">
        <ele>639</ele>
        <time>2021-09-04T11:50:49Z</time>
      </trkpt>
      <trkpt lat="44.17524" lon="2.98159">
        <ele>639</ele>
        <time>2021-09-04T11:51:11Z</time>
      </trkpt>
      <trkpt lat="44.17526" lon="2.98209">
        <ele>640</ele>
        <time>2021-09-04T11:51:29Z</time>
      </trkpt>
      <trkpt lat="44.17525" lon="2.98216">
        <ele>639</ele>
        <time>2021-09-04T11:51:32Z</time>
      </trkpt>
      <trkpt lat="44.1753" lon="2.98257">
        <ele>642</ele>
        <time>2021-09-04T11:51:47Z</time>
      </trkpt>
      <trkpt lat="44.17532" lon="2.98264">
        <ele>643</ele>
        <time>2021-09-04T11:51:50Z</time>
      </trkpt>
      <trkpt lat="44.17534" lon="2.9827">
        <ele>644</ele>
        <time>2021-09-04T11:51:54Z</time>
      </trkpt>
      <trkpt lat="44.17537" lon="2.98287">
        <ele>646</ele>
        <time>2021-09-04T11:51:59Z</time>
      </trkpt>
      <trkpt lat="44.17538" lon="2.98296">
        <ele>647</ele>
        <time>2021-09-04T11:52:03Z</time>
      </trkpt>
      <trkpt lat="44.17539" lon="2.98306">
        <ele>648</ele>
        <time>2021-09-04T11:52:06Z</time>
      </trkpt>
      <trkpt lat="44.1754" lon="2.98315">
        <ele>650</ele>
        <time>2021-09-04T11:52:09Z</time>
      </trkpt>
      <trkpt lat="44.17543" lon="2.98323">
        <ele>649</ele>
        <time>2021-09-04T11:52:12Z</time>
      </trkpt>
      <trkpt lat="44.17555" lon="2.98343">
        <ele>652</ele>
        <time>2021-09-04T11:52:22Z</time>
      </trkpt>
      <trkpt lat="44.17562" lon="2.98354">
        <ele>654</ele>
        <time>2021-09-04T11:52:29Z</time>
      </trkpt>
      <trkpt lat="44.17566" lon="2.98359">
        <ele>655</ele>
        <time>2021-09-04T11:52:31Z</time>
      </trkpt>
      <trkpt lat="44.1757" lon="2.98372">
        <ele>656</ele>
        <time>2021-09-04T11:52:42Z</time>
      </trkpt>
      <trkpt lat="44.17571" lon="2.98373">
        <ele>653</ele>
        <time>2021-09-04T11:53:35Z</time>
      </trkpt>
      <trkpt lat="44.17576" lon="2.98377">
        <ele>653</ele>
        <time>2021-09-04T11:53:40Z</time>
      </trkpt>
      <trkpt lat="44.17574" lon="2.98383">
        <ele>654</ele>
        <time>2021-09-04T11:53:45Z</time>
      </trkpt>
      <trkpt lat="44.17582" lon="2.98412">
        <ele>656</ele>
        <time>2021-09-04T11:53:55Z</time>
      </trkpt>
      <trkpt lat="44.17584" lon="2.98418">
        <ele>656</ele>
        <time>2021-09-04T11:53:57Z</time>
      </trkpt>
      <trkpt lat="44.17587" lon="2.98424">
        <ele>656</ele>
        <time>2021-09-04T11:53:59Z</time>
      </trkpt>
      <trkpt lat="44.17595" lon="2.98452">
        <ele>657</ele>
        <time>2021-09-04T11:54:09Z</time>
      </trkpt>
      <trkpt lat="44.17581" lon="2.9851">
        <ele>660</ele>
        <time>2021-09-04T11:54:33Z</time>
      </trkpt>
      <trkpt lat="44.17555" lon="2.98584">
        <ele>663</ele>
        <time>2021-09-04T11:55:06Z</time>
      </trkpt>
      <trkpt lat="44.17548" lon="2.98604">
        <ele>662</ele>
        <time>2021-09-04T11:55:15Z</time>
      </trkpt>
      <trkpt lat="44.17527" lon="2.98654">
        <ele>664</ele>
        <time>2021-09-04T11:55:39Z</time>
      </trkpt>
      <trkpt lat="44.1751" lon="2.98688">
        <ele>667</ele>
        <time>2021-09-04T11:55:54Z</time>
      </trkpt>
      <trkpt lat="44.17501" lon="2.98708">
        <ele>668</ele>
        <time>2021-09-04T11:56:03Z</time>
      </trkpt>
      <trkpt lat="44.17499" lon="2.98722">
        <ele>669</ele>
        <time>2021-09-04T11:56:08Z</time>
      </trkpt>
      <trkpt lat="44.17498" lon="2.98744">
        <ele>670</ele>
        <time>2021-09-04T11:56:16Z</time>
      </trkpt>
      <trkpt lat="44.17507" lon="2.98822">
        <ele>679</ele>
        <time>2021-09-04T11:56:48Z</time>
      </trkpt>
      <trkpt lat="44.1751" lon="2.98838">
        <ele>680</ele>
        <time>2021-09-04T11:56:54Z</time>
      </trkpt>
      <trkpt lat="44.1752" lon="2.98893">
        <ele>687</ele>
        <time>2021-09-04T11:57:15Z</time>
      </trkpt>
      <trkpt lat="44.17521" lon="2.98927">
        <ele>689</ele>
        <time>2021-09-04T11:57:27Z</time>
      </trkpt>
      <trkpt lat="44.1752" lon="2.98942">
        <ele>690</ele>
        <time>2021-09-04T11:57:33Z</time>
      </trkpt>
      <trkpt lat="44.17496" lon="2.99014">
        <ele>698</ele>
        <time>2021-09-04T11:58:04Z</time>
      </trkpt>
      <trkpt lat="44.17478" lon="2.99054">
        <ele>698</ele>
        <time>2021-09-04T11:58:21Z</time>
      </trkpt>
      <trkpt lat="44.17472" lon="2.99069">
        <ele>698</ele>
        <time>2021-09-04T11:58:27Z</time>
      </trkpt>
      <trkpt lat="44.17466" lon="2.99083">
        <ele>701</ele>
        <time>2021-09-04T11:58:33Z</time>
      </trkpt>
      <trkpt lat="44.17458" lon="2.99103">
        <ele>703</ele>
        <time>2021-09-04T11:58:42Z</time>
      </trkpt>
      <trkpt lat="44.17455" lon="2.9911">
        <ele>704</ele>
        <time>2021-09-04T11:58:45Z</time>
      </trkpt>
      <trkpt lat="44.17452" lon="2.99117">
        <ele>705</ele>
        <time>2021-09-04T11:58:48Z</time>
      </trkpt>
      <trkpt lat="44.17443" lon="2.99136">
        <ele>706</ele>
        <time>2021-09-04T11:58:57Z</time>
      </trkpt>
      <trkpt lat="44.1744" lon="2.99142">
        <ele>707</ele>
        <time>2021-09-04T11:59:00Z</time>
      </trkpt>
      <trkpt lat="44.17435" lon="2.99158">
        <ele>708</ele>
        <time>2021-09-04T11:59:07Z</time>
      </trkpt>
      <trkpt lat="44.17433" lon="2.9918">
        <ele>708</ele>
        <time>2021-09-04T11:59:14Z</time>
      </trkpt>
      <trkpt lat="44.17432" lon="2.99196">
        <ele>707</ele>
        <time>2021-09-04T11:59:19Z</time>
      </trkpt>
      <trkpt lat="44.17437" lon="2.9922">
        <ele>709</ele>
        <time>2021-09-04T11:59:28Z</time>
      </trkpt>
      <trkpt lat="44.17475" lon="2.99287">
        <ele>709</ele>
        <time>2021-09-04T11:59:58Z</time>
      </trkpt>
      <trkpt lat="44.17478" lon="2.99294">
        <ele>709</ele>
        <time>2021-09-04T12:00:01Z</time>
      </trkpt>
      <trkpt lat="44.17481" lon="2.99301">
        <ele>709</ele>
        <time>2021-09-04T12:00:04Z</time>
      </trkpt>
      <trkpt lat="44.17497" lon="2.99334">
        <ele>711</ele>
        <time>2021-09-04T12:00:18Z</time>
      </trkpt>
      <trkpt lat="44.17502" lon="2.99341">
        <ele>712</ele>
        <time>2021-09-04T12:00:21Z</time>
      </trkpt>
      <trkpt lat="44.17518" lon="2.99373">
        <ele>715</ele>
        <time>2021-09-04T12:00:36Z</time>
      </trkpt>
      <trkpt lat="44.17541" lon="2.9945">
        <ele>717</ele>
        <time>2021-09-04T12:01:06Z</time>
      </trkpt>
      <trkpt lat="44.17543" lon="2.99457">
        <ele>717</ele>
        <time>2021-09-04T12:01:09Z</time>
      </trkpt>
      <trkpt lat="44.17545" lon="2.99479">
        <ele>719</ele>
        <time>2021-09-04T12:01:18Z</time>
      </trkpt>
      <trkpt lat="44.1756" lon="2.99558">
        <ele>723</ele>
        <time>2021-09-04T12:01:48Z</time>
      </trkpt>
      <trkpt lat="44.17562" lon="2.99566">
        <ele>723</ele>
        <time>2021-09-04T12:01:51Z</time>
      </trkpt>
      <trkpt lat="44.17563" lon="2.9959">
        <ele>726</ele>
        <time>2021-09-04T12:02:00Z</time>
      </trkpt>
      <trkpt lat="44.17563" lon="2.99599">
        <ele>727</ele>
        <time>2021-09-04T12:02:04Z</time>
      </trkpt>
      <trkpt lat="44.17563" lon="2.99607">
        <ele>728</ele>
        <time>2021-09-04T12:02:07Z</time>
      </trkpt>
      <trkpt lat="44.17562" lon="2.99647">
        <ele>732</ele>
        <time>2021-09-04T12:02:22Z</time>
      </trkpt>
      <trkpt lat="44.17563" lon="2.99655">
        <ele>733</ele>
        <time>2021-09-04T12:02:25Z</time>
      </trkpt>
      <trkpt lat="44.17563" lon="2.99664">
        <ele>733</ele>
        <time>2021-09-04T12:02:28Z</time>
      </trkpt>
      <trkpt lat="44.17564" lon="2.99674">
        <ele>733</ele>
        <time>2021-09-04T12:02:31Z</time>
      </trkpt>
      <trkpt lat="44.17566" lon="2.9976">
        <ele>739</ele>
        <time>2021-09-04T12:03:04Z</time>
      </trkpt>
      <trkpt lat="44.17567" lon="2.99839">
        <ele>743</ele>
        <time>2021-09-04T12:03:34Z</time>
      </trkpt>
      <trkpt lat="44.17571" lon="2.99871">
        <ele>744</ele>
        <time>2021-09-04T12:03:46Z</time>
      </trkpt>
      <trkpt lat="44.1758" lon="2.9992">
        <ele>745</ele>
        <time>2021-09-04T12:04:03Z</time>
      </trkpt>
      <trkpt lat="44.17582" lon="2.99927">
        <ele>746</ele>
        <time>2021-09-04T12:04:06Z</time>
      </trkpt>
      <trkpt lat="44.17604" lon="3.00006">
        <ele>754</ele>
        <time>2021-09-04T12:04:38Z</time>
      </trkpt>
      <trkpt lat="44.17607" lon="3.00014">
        <ele>755</ele>
        <time>2021-09-04T12:04:41Z</time>
      </trkpt>
      <trkpt lat="44.17609" lon="3.00021">
        <ele>755</ele>
        <time>2021-09-04T12:04:43Z</time>
      </trkpt>
      <trkpt lat="44.17633" lon="3.00097">
        <ele>759</ele>
        <time>2021-09-04T12:05:16Z</time>
      </trkpt>
      <trkpt lat="44.17656" lon="3.00172">
        <ele>762</ele>
        <time>2021-09-04T12:05:46Z</time>
      </trkpt>
      <trkpt lat="44.17682" lon="3.00252">
        <ele>767</ele>
        <time>2021-09-04T12:06:18Z</time>
      </trkpt>
      <trkpt lat="44.17691" lon="3.0028">
        <ele>770</ele>
        <time>2021-09-04T12:06:30Z</time>
      </trkpt>
      <trkpt lat="44.17693" lon="3.00286">
        <ele>770</ele>
        <time>2021-09-04T12:06:32Z</time>
      </trkpt>
      <trkpt lat="44.17711" lon="3.00323">
        <ele>770</ele>
        <time>2021-09-04T12:06:46Z</time>
      </trkpt>
      <trkpt lat="44.17756" lon="3.00413">
        <ele>767</ele>
        <time>2021-09-04T12:07:17Z</time>
      </trkpt>
      <trkpt lat="44.17764" lon="3.0044">
        <ele>767</ele>
        <time>2021-09-04T12:07:25Z</time>
      </trkpt>
      <trkpt lat="44.17768" lon="3.00463">
        <ele>768</ele>
        <time>2021-09-04T12:07:31Z</time>
      </trkpt>
      <trkpt lat="44.17765" lon="3.00608">
        <ele>772</ele>
        <time>2021-09-04T12:07:59Z</time>
      </trkpt>
      <trkpt lat="44.17763" lon="3.0064">
        <ele>769</ele>
        <time>2021-09-04T12:08:04Z</time>
      </trkpt>
      <trkpt lat="44.17767" lon="3.00817">
        <ele>760</ele>
        <time>2021-09-04T12:08:27Z</time>
      </trkpt>
      <trkpt lat="44.17771" lon="3.00821">
        <ele>760</ele>
        <time>2021-09-04T12:09:31Z</time>
      </trkpt>
      <trkpt lat="44.17775" lon="3.00829">
        <ele>758</ele>
        <time>2021-09-04T12:09:43Z</time>
      </trkpt>
      <trkpt lat="44.17914" lon="3.00858">
        <ele>744</ele>
        <time>2021-09-04T12:10:13Z</time>
      </trkpt>
      <trkpt lat="44.18028" lon="3.00883">
        <ele>748</ele>
        <time>2021-09-04T12:10:44Z</time>
      </trkpt>
      <trkpt lat="44.18126" lon="3.00905">
        <ele>752</ele>
        <time>2021-09-04T12:11:16Z</time>
      </trkpt>
      <trkpt lat="44.18217" lon="3.009">
        <ele>764</ele>
        <time>2021-09-04T12:11:48Z</time>
      </trkpt>
      <trkpt lat="44.18292" lon="3.00877">
        <ele>762</ele>
        <time>2021-09-04T12:12:19Z</time>
      </trkpt>
      <trkpt lat="44.18376" lon="3.00861">
        <ele>765</ele>
        <time>2021-09-04T12:12:49Z</time>
      </trkpt>
      <trkpt lat="44.18445" lon="3.00838">
        <ele>766</ele>
        <time>2021-09-04T12:13:11Z</time>
      </trkpt>
      <trkpt lat="44.18561" lon="3.00823">
        <ele>768</ele>
        <time>2021-09-04T12:13:41Z</time>
      </trkpt>
      <trkpt lat="44.18689" lon="3.00788">
        <ele>767</ele>
        <time>2021-09-04T12:14:11Z</time>
      </trkpt>
      <trkpt lat="44.18822" lon="3.00738">
        <ele>770</ele>
        <time>2021-09-04T12:14:42Z</time>
      </trkpt>
      <trkpt lat="44.18944" lon="3.00672">
        <ele>770</ele>
        <time>2021-09-04T12:15:12Z</time>
      </trkpt>
      <trkpt lat="44.1896" lon="3.00662">
        <ele>770</ele>
        <time>2021-09-04T12:15:16Z</time>
      </trkpt>
      <trkpt lat="44.18976" lon="3.0066">
        <ele>769</ele>
        <time>2021-09-04T12:15:19Z</time>
      </trkpt>
      <trkpt lat="44.19026" lon="3.00671">
        <ele>769</ele>
        <time>2021-09-04T12:15:29Z</time>
      </trkpt>
      <trkpt lat="44.19031" lon="3.00669">
        <ele>769</ele>
        <time>2021-09-04T12:15:30Z</time>
      </trkpt>
      <trkpt lat="44.19041" lon="3.00662">
        <ele>769</ele>
        <time>2021-09-04T12:15:32Z</time>
      </trkpt>
      <trkpt lat="44.19045" lon="3.00658">
        <ele>769</ele>
        <time>2021-09-04T12:15:33Z</time>
      </trkpt>
      <trkpt lat="44.19048" lon="3.00652">
        <ele>769</ele>
        <time>2021-09-04T12:15:34Z</time>
      </trkpt>
      <trkpt lat="44.19051" lon="3.0064">
        <ele>769</ele>
        <time>2021-09-04T12:15:36Z</time>
      </trkpt>
      <trkpt lat="44.19052" lon="3.00627">
        <ele>769</ele>
        <time>2021-09-04T12:15:38Z</time>
      </trkpt>
      <trkpt lat="44.19053" lon="3.00615">
        <ele>770</ele>
        <time>2021-09-04T12:15:40Z</time>
      </trkpt>
      <trkpt lat="44.1906" lon="3.00595">
        <ele>771</ele>
        <time>2021-09-04T12:15:44Z</time>
      </trkpt>
      <trkpt lat="44.1907" lon="3.0058">
        <ele>772</ele>
        <time>2021-09-04T12:15:50Z</time>
      </trkpt>
      <trkpt lat="44.19109" lon="3.00542">
        <ele>776</ele>
        <time>2021-09-04T12:16:08Z</time>
      </trkpt>
      <trkpt lat="44.19159" lon="3.00509">
        <ele>783</ele>
        <time>2021-09-04T12:16:33Z</time>
      </trkpt>
      <trkpt lat="44.19197" lon="3.005">
        <ele>785</ele>
        <time>2021-09-04T12:16:49Z</time>
      </trkpt>
      <trkpt lat="44.19201" lon="3.00498">
        <ele>785</ele>
        <time>2021-09-04T12:16:51Z</time>
      </trkpt>
      <trkpt lat="44.19275" lon="3.00502">
        <ele>791</ele>
        <time>2021-09-04T12:17:24Z</time>
      </trkpt>
      <trkpt lat="44.19342" lon="3.00512">
        <ele>794</ele>
        <time>2021-09-04T12:17:54Z</time>
      </trkpt>
      <trkpt lat="44.19411" lon="3.00528">
        <ele>798</ele>
        <time>2021-09-04T12:18:24Z</time>
      </trkpt>
      <trkpt lat="44.19453" lon="3.00538">
        <ele>799</ele>
        <time>2021-09-04T12:18:42Z</time>
      </trkpt>
      <trkpt lat="44.19483" lon="3.00549">
        <ele>801</ele>
        <time>2021-09-04T12:18:55Z</time>
      </trkpt>
      <trkpt lat="44.19501" lon="3.00552">
        <ele>801</ele>
        <time>2021-09-04T12:19:03Z</time>
      </trkpt>
      <trkpt lat="44.19506" lon="3.00553">
        <ele>801</ele>
        <time>2021-09-04T12:19:05Z</time>
      </trkpt>
      <trkpt lat="44.19511" lon="3.00553">
        <ele>801</ele>
        <time>2021-09-04T12:19:07Z</time>
      </trkpt>
      <trkpt lat="44.1953" lon="3.00558">
        <ele>800</ele>
        <time>2021-09-04T12:19:13Z</time>
      </trkpt>
      <trkpt lat="44.1972" lon="3.00579">
        <ele>789</ele>
        <time>2021-09-04T12:19:40Z</time>
      </trkpt>
      <trkpt lat="44.19737" lon="3.00574">
        <ele>788</ele>
        <time>2021-09-04T12:19:42Z</time>
      </trkpt>
      <trkpt lat="44.19824" lon="3.00511">
        <ele>785</ele>
        <time>2021-09-04T12:19:54Z</time>
      </trkpt>
      <trkpt lat="44.19842" lon="3.00508">
        <ele>784</ele>
        <time>2021-09-04T12:19:57Z</time>
      </trkpt>
      <trkpt lat="44.19882" lon="3.00511">
        <ele>783</ele>
        <time>2021-09-04T12:20:04Z</time>
      </trkpt>
      <trkpt lat="44.19897" lon="3.00507">
        <ele>784</ele>
        <time>2021-09-04T12:20:07Z</time>
      </trkpt>
      <trkpt lat="44.19919" lon="3.00491">
        <ele>785</ele>
        <time>2021-09-04T12:20:12Z</time>
      </trkpt>
      <trkpt lat="44.19934" lon="3.00477">
        <ele>785</ele>
        <time>2021-09-04T12:20:16Z</time>
      </trkpt>
      <trkpt lat="44.20052" lon="3.00393">
        <ele>791</ele>
        <time>2021-09-04T12:20:47Z</time>
      </trkpt>
      <trkpt lat="44.2013" lon="3.00372">
        <ele>792</ele>
        <time>2021-09-04T12:21:05Z</time>
      </trkpt>
      <trkpt lat="44.20174" lon="3.00378">
        <ele>792</ele>
        <time>2021-09-04T12:21:15Z</time>
      </trkpt>
      <trkpt lat="44.20207" lon="3.00388">
        <ele>793</ele>
        <time>2021-09-04T12:21:23Z</time>
      </trkpt>
      <trkpt lat="44.20225" lon="3.00389">
        <ele>794</ele>
        <time>2021-09-04T12:21:27Z</time>
      </trkpt>
      <trkpt lat="44.20233" lon="3.00387">
        <ele>794</ele>
        <time>2021-09-04T12:21:29Z</time>
      </trkpt>
      <trkpt lat="44.20255" lon="3.00372">
        <ele>794</ele>
        <time>2021-09-04T12:21:35Z</time>
      </trkpt>
      <trkpt lat="44.20336" lon="3.00275">
        <ele>798</ele>
        <time>2021-09-04T12:22:05Z</time>
      </trkpt>
      <trkpt lat="44.20387" lon="3.00226">
        <ele>802</ele>
        <time>2021-09-04T12:22:25Z</time>
      </trkpt>
      <trkpt lat="44.20415" lon="3.00203">
        <ele>804</ele>
        <time>2021-09-04T12:22:35Z</time>
      </trkpt>
      <trkpt lat="44.20449" lon="3.00191">
        <ele>804</ele>
        <time>2021-09-04T12:22:45Z</time>
      </trkpt>
      <trkpt lat="44.20496" lon="3.00192">
        <ele>802</ele>
        <time>2021-09-04T12:22:54Z</time>
      </trkpt>
      <trkpt lat="44.20532" lon="3.0021">
        <ele>799</ele>
        <time>2021-09-04T12:22:59Z</time>
      </trkpt>
      <trkpt lat="44.20559" lon="3.00233">
        <ele>798</ele>
        <time>2021-09-04T12:23:03Z</time>
      </trkpt>
      <trkpt lat="44.2058" lon="3.00257">
        <ele>797</ele>
        <time>2021-09-04T12:23:07Z</time>
      </trkpt>
      <trkpt lat="44.20586" lon="3.00261">
        <ele>797</ele>
        <time>2021-09-04T12:23:08Z</time>
      </trkpt>
      <trkpt lat="44.20594" lon="3.00262">
        <ele>797</ele>
        <time>2021-09-04T12:23:09Z</time>
      </trkpt>
      <trkpt lat="44.20603" lon="3.0026">
        <ele>798</ele>
        <time>2021-09-04T12:23:10Z</time>
      </trkpt>
      <trkpt lat="44.20618" lon="3.00248">
        <ele>798</ele>
        <time>2021-09-04T12:23:12Z</time>
      </trkpt>
      <trkpt lat="44.20627" lon="3.00229">
        <ele>800</ele>
        <time>2021-09-04T12:23:14Z</time>
      </trkpt>
      <trkpt lat="44.2064" lon="3.0018">
        <ele>799</ele>
        <time>2021-09-04T12:23:19Z</time>
      </trkpt>
      <trkpt lat="44.20649" lon="3.00165">
        <ele>798</ele>
        <time>2021-09-04T12:23:21Z</time>
      </trkpt>
      <trkpt lat="44.2071" lon="3.00086">
        <ele>793</ele>
        <time>2021-09-04T12:23:32Z</time>
      </trkpt>
      <trkpt lat="44.20736" lon="3.00044">
        <ele>791</ele>
        <time>2021-09-04T12:23:37Z</time>
      </trkpt>
      <trkpt lat="44.20803" lon="2.99968">
        <ele>785</ele>
        <time>2021-09-04T12:23:48Z</time>
      </trkpt>
      <trkpt lat="44.20812" lon="2.99948">
        <ele>784</ele>
        <time>2021-09-04T12:23:50Z</time>
      </trkpt>
      <trkpt lat="44.20839" lon="2.99747">
        <ele>787</ele>
        <time>2021-09-04T12:24:21Z</time>
      </trkpt>
      <trkpt lat="44.20848" lon="2.9961">
        <ele>777</ele>
        <time>2021-09-04T12:24:51Z</time>
      </trkpt>
      <trkpt lat="44.2086" lon="2.99543">
        <ele>778</ele>
        <time>2021-09-04T12:25:07Z</time>
      </trkpt>
      <trkpt lat="44.20875" lon="2.99502">
        <ele>780</ele>
        <time>2021-09-04T12:25:17Z</time>
      </trkpt>
      <trkpt lat="44.20889" lon="2.99482">
        <ele>780</ele>
        <time>2021-09-04T12:25:23Z</time>
      </trkpt>
      <trkpt lat="44.20902" lon="2.99475">
        <ele>781</ele>
        <time>2021-09-04T12:25:27Z</time>
      </trkpt>
      <trkpt lat="44.20922" lon="2.99473">
        <ele>784</ele>
        <time>2021-09-04T12:25:33Z</time>
      </trkpt>
      <trkpt lat="44.2094" lon="2.99476">
        <ele>783</ele>
        <time>2021-09-04T12:25:37Z</time>
      </trkpt>
      <trkpt lat="44.21009" lon="2.99498">
        <ele>781</ele>
        <time>2021-09-04T12:25:48Z</time>
      </trkpt>
      <trkpt lat="44.21016" lon="2.99498">
        <ele>781</ele>
        <time>2021-09-04T12:25:49Z</time>
      </trkpt>
      <trkpt lat="44.21023" lon="2.99496">
        <ele>781</ele>
        <time>2021-09-04T12:25:50Z</time>
      </trkpt>
      <trkpt lat="44.2103" lon="2.9949">
        <ele>781</ele>
        <time>2021-09-04T12:25:51Z</time>
      </trkpt>
      <trkpt lat="44.21034" lon="2.99483">
        <ele>782</ele>
        <time>2021-09-04T12:25:52Z</time>
      </trkpt>
      <trkpt lat="44.21036" lon="2.99473">
        <ele>783</ele>
        <time>2021-09-04T12:25:53Z</time>
      </trkpt>
      <trkpt lat="44.21037" lon="2.99464">
        <ele>785</ele>
        <time>2021-09-04T12:25:54Z</time>
      </trkpt>
      <trkpt lat="44.21001" lon="2.99319">
        <ele>794</ele>
        <time>2021-09-04T12:26:21Z</time>
      </trkpt>
      <trkpt lat="44.20992" lon="2.99242">
        <ele>791</ele>
        <time>2021-09-04T12:26:37Z</time>
      </trkpt>
      <trkpt lat="44.20979" lon="2.99197">
        <ele>791</ele>
        <time>2021-09-04T12:26:47Z</time>
      </trkpt>
      <trkpt lat="44.2095" lon="2.99145">
        <ele>792</ele>
        <time>2021-09-04T12:27:01Z</time>
      </trkpt>
      <trkpt lat="44.20927" lon="2.9912">
        <ele>794</ele>
        <time>2021-09-04T12:27:11Z</time>
      </trkpt>
      <trkpt lat="44.20835" lon="2.99071">
        <ele>785</ele>
        <time>2021-09-04T12:27:41Z</time>
      </trkpt>
      <trkpt lat="44.20725" lon="2.99023">
        <ele>780</ele>
        <time>2021-09-04T12:28:13Z</time>
      </trkpt>
      <trkpt lat="44.20645" lon="2.99007">
        <ele>792</ele>
        <time>2021-09-04T12:28:30Z</time>
      </trkpt>
      <trkpt lat="44.2063" lon="2.98999">
        <ele>792</ele>
        <time>2021-09-04T12:28:33Z</time>
      </trkpt>
      <trkpt lat="44.20617" lon="2.98984">
        <ele>794</ele>
        <time>2021-09-04T12:28:36Z</time>
      </trkpt>
      <trkpt lat="44.20611" lon="2.98973">
        <ele>794</ele>
        <time>2021-09-04T12:28:38Z</time>
      </trkpt>
      <trkpt lat="44.20603" lon="2.98946">
        <ele>795</ele>
        <time>2021-09-04T12:28:42Z</time>
      </trkpt>
      <trkpt lat="44.20601" lon="2.98932">
        <ele>795</ele>
        <time>2021-09-04T12:28:44Z</time>
      </trkpt>
      <trkpt lat="44.20601" lon="2.98912">
        <ele>796</ele>
        <time>2021-09-04T12:28:47Z</time>
      </trkpt>
      <trkpt lat="44.20612" lon="2.9887">
        <ele>798</ele>
        <time>2021-09-04T12:28:54Z</time>
      </trkpt>
      <trkpt lat="44.20629" lon="2.98836">
        <ele>800</ele>
        <time>2021-09-04T12:29:00Z</time>
      </trkpt>
      <trkpt lat="44.20678" lon="2.98774">
        <ele>803</ele>
        <time>2021-09-04T12:29:14Z</time>
      </trkpt>
      <trkpt lat="44.20794" lon="2.98668">
        <ele>805</ele>
        <time>2021-09-04T12:29:43Z</time>
      </trkpt>
      <trkpt lat="44.20803" lon="2.98664">
        <ele>806</ele>
        <time>2021-09-04T12:29:45Z</time>
      </trkpt>
      <trkpt lat="44.20813" lon="2.98663">
        <ele>806</ele>
        <time>2021-09-04T12:29:47Z</time>
      </trkpt>
      <trkpt lat="44.20824" lon="2.98665">
        <ele>805</ele>
        <time>2021-09-04T12:29:49Z</time>
      </trkpt>
      <trkpt lat="44.20847" lon="2.98682">
        <ele>804</ele>
        <time>2021-09-04T12:29:53Z</time>
      </trkpt>
      <trkpt lat="44.20902" lon="2.98732">
        <ele>799</ele>
        <time>2021-09-04T12:30:01Z</time>
      </trkpt>
      <trkpt lat="44.20937" lon="2.98747">
        <ele>797</ele>
        <time>2021-09-04T12:30:05Z</time>
      </trkpt>
      <trkpt lat="44.20975" lon="2.98751">
        <ele>793</ele>
        <time>2021-09-04T12:30:09Z</time>
      </trkpt>
      <trkpt lat="44.21296" lon="2.98679">
        <ele>766</ele>
        <time>2021-09-04T12:30:40Z</time>
      </trkpt>
      <trkpt lat="44.21376" lon="2.98656">
        <ele>757</ele>
        <time>2021-09-04T12:30:53Z</time>
      </trkpt>
      <trkpt lat="44.21399" lon="2.98658">
        <ele>753</ele>
        <time>2021-09-04T12:30:59Z</time>
      </trkpt>
      <trkpt lat="44.21411" lon="2.98655">
        <ele>751</ele>
        <time>2021-09-04T12:31:03Z</time>
      </trkpt>
      <trkpt lat="44.21416" lon="2.98656">
        <ele>751</ele>
        <time>2021-09-04T12:31:06Z</time>
      </trkpt>
      <trkpt lat="44.2142" lon="2.9866">
        <ele>751</ele>
        <time>2021-09-04T12:31:59Z</time>
      </trkpt>
      <trkpt lat="44.21431" lon="2.98679">
        <ele>752</ele>
        <time>2021-09-04T12:32:07Z</time>
      </trkpt>
      <trkpt lat="44.21446" lon="2.987">
        <ele>753</ele>
        <time>2021-09-04T12:32:13Z</time>
      </trkpt>
      <trkpt lat="44.21454" lon="2.98717">
        <ele>752</ele>
        <time>2021-09-04T12:32:17Z</time>
      </trkpt>
      <trkpt lat="44.21484" lon="2.98742">
        <ele>748</ele>
        <time>2021-09-04T12:32:27Z</time>
      </trkpt>
      <trkpt lat="44.21489" lon="2.98744">
        <ele>748</ele>
        <time>2021-09-04T12:32:30Z</time>
      </trkpt>
      <trkpt lat="44.21494" lon="2.98741">
        <ele>748</ele>
        <time>2021-09-04T12:33:02Z</time>
      </trkpt>
      <trkpt lat="44.21519" lon="2.98756">
        <ele>747</ele>
        <time>2021-09-04T12:33:12Z</time>
      </trkpt>
      <trkpt lat="44.21571" lon="2.98738">
        <ele>748</ele>
        <time>2021-09-04T12:33:32Z</time>
      </trkpt>
      <trkpt lat="44.21575" lon="2.98732">
        <ele>749</ele>
        <time>2021-09-04T12:33:35Z</time>
      </trkpt>
      <trkpt lat="44.21597" lon="2.98635">
        <ele>757</ele>
        <time>2021-09-04T12:34:07Z</time>
      </trkpt>
      <trkpt lat="44.21593" lon="2.98564">
        <ele>759</ele>
        <time>2021-09-04T12:34:27Z</time>
      </trkpt>
      <trkpt lat="44.21597" lon="2.98558">
        <ele>759</ele>
        <time>2021-09-04T12:34:30Z</time>
      </trkpt>
      <trkpt lat="44.21614" lon="2.98546">
        <ele>758</ele>
        <time>2021-09-04T12:34:37Z</time>
      </trkpt>
      <trkpt lat="44.21737" lon="2.98485">
        <ele>752</ele>
        <time>2021-09-04T12:35:09Z</time>
      </trkpt>
      <trkpt lat="44.21794" lon="2.9845">
        <ele>755</ele>
        <time>2021-09-04T12:35:28Z</time>
      </trkpt>
      <trkpt lat="44.21803" lon="2.98442">
        <ele>758</ele>
        <time>2021-09-04T12:35:57Z</time>
      </trkpt>
      <trkpt lat="44.21865" lon="2.98441">
        <ele>754</ele>
        <time>2021-09-04T12:36:11Z</time>
      </trkpt>
      <trkpt lat="44.2187" lon="2.98439">
        <ele>754</ele>
        <time>2021-09-04T12:36:12Z</time>
      </trkpt>
      <trkpt lat="44.21875" lon="2.98436">
        <ele>753</ele>
        <time>2021-09-04T12:36:13Z</time>
      </trkpt>
      <trkpt lat="44.2188" lon="2.9843">
        <ele>753</ele>
        <time>2021-09-04T12:36:14Z</time>
      </trkpt>
      <trkpt lat="44.21884" lon="2.98423">
        <ele>755</ele>
        <time>2021-09-04T12:36:15Z</time>
      </trkpt>
      <trkpt lat="44.21885" lon="2.98405">
        <ele>755</ele>
        <time>2021-09-04T12:36:17Z</time>
      </trkpt>
      <trkpt lat="44.21883" lon="2.98381">
        <ele>755</ele>
        <time>2021-09-04T12:36:19Z</time>
      </trkpt>
      <trkpt lat="44.21883" lon="2.98336">
        <ele>760</ele>
        <time>2021-09-04T12:36:23Z</time>
      </trkpt>
      <trkpt lat="44.21889" lon="2.98299">
        <ele>762</ele>
        <time>2021-09-04T12:36:27Z</time>
      </trkpt>
      <trkpt lat="44.21897" lon="2.98276">
        <ele>760</ele>
        <time>2021-09-04T12:36:30Z</time>
      </trkpt>
      <trkpt lat="44.21912" lon="2.98251">
        <ele>760</ele>
        <time>2021-09-04T12:36:34Z</time>
      </trkpt>
      <trkpt lat="44.2198" lon="2.98175">
        <ele>761</ele>
        <time>2021-09-04T12:36:50Z</time>
      </trkpt>
      <trkpt lat="44.22" lon="2.98158">
        <ele>758</ele>
        <time>2021-09-04T12:36:54Z</time>
      </trkpt>
      <trkpt lat="44.22008" lon="2.9815">
        <ele>758</ele>
        <time>2021-09-04T12:36:56Z</time>
      </trkpt>
      <trkpt lat="44.22021" lon="2.98141">
        <ele>758</ele>
        <time>2021-09-04T12:36:59Z</time>
      </trkpt>
      <trkpt lat="44.22073" lon="2.98101">
        <ele>759</ele>
        <time>2021-09-04T12:37:09Z</time>
      </trkpt>
      <trkpt lat="44.22091" lon="2.98082">
        <ele>761</ele>
        <time>2021-09-04T12:37:13Z</time>
      </trkpt>
      <trkpt lat="44.22147" lon="2.98036">
        <ele>759</ele>
        <time>2021-09-04T12:37:24Z</time>
      </trkpt>
      <trkpt lat="44.22272" lon="2.97868">
        <ele>762</ele>
        <time>2021-09-04T12:37:52Z</time>
      </trkpt>
      <trkpt lat="44.22294" lon="2.97849">
        <ele>760</ele>
        <time>2021-09-04T12:37:56Z</time>
      </trkpt>
      <trkpt lat="44.22298" lon="2.97843">
        <ele>760</ele>
        <time>2021-09-04T12:37:57Z</time>
      </trkpt>
      <trkpt lat="44.22302" lon="2.97835">
        <ele>760</ele>
        <time>2021-09-04T12:37:58Z</time>
      </trkpt>
      <trkpt lat="44.22304" lon="2.97827">
        <ele>760</ele>
        <time>2021-09-04T12:37:59Z</time>
      </trkpt>
      <trkpt lat="44.22304" lon="2.97807">
        <ele>762</ele>
        <time>2021-09-04T12:38:01Z</time>
      </trkpt>
      <trkpt lat="44.22304" lon="2.9775">
        <ele>766</ele>
        <time>2021-09-04T12:38:08Z</time>
      </trkpt>
      <trkpt lat="44.22317" lon="2.97667">
        <ele>766</ele>
        <time>2021-09-04T12:38:20Z</time>
      </trkpt>
      <trkpt lat="44.22314" lon="2.97619">
        <ele>768</ele>
        <time>2021-09-04T12:38:27Z</time>
      </trkpt>
      <trkpt lat="44.22301" lon="2.9756">
        <ele>766</ele>
        <time>2021-09-04T12:38:39Z</time>
      </trkpt>
      <trkpt lat="44.223" lon="2.97541">
        <ele>765</ele>
        <time>2021-09-04T12:38:43Z</time>
      </trkpt>
      <trkpt lat="44.22306" lon="2.97524">
        <ele>764</ele>
        <time>2021-09-04T12:38:47Z</time>
      </trkpt>
      <trkpt lat="44.22314" lon="2.97514">
        <ele>765</ele>
        <time>2021-09-04T12:38:51Z</time>
      </trkpt>
      <trkpt lat="44.22319" lon="2.9751">
        <ele>765</ele>
        <time>2021-09-04T12:38:53Z</time>
      </trkpt>
      <trkpt lat="44.2242" lon="2.97488">
        <ele>762</ele>
        <time>2021-09-04T12:39:25Z</time>
      </trkpt>
      <trkpt lat="44.22507" lon="2.97481">
        <ele>755</ele>
        <time>2021-09-04T12:39:55Z</time>
      </trkpt>
      <trkpt lat="44.22598" lon="2.97507">
        <ele>759</ele>
        <time>2021-09-04T12:40:25Z</time>
      </trkpt>
      <trkpt lat="44.22659" lon="2.9761">
        <ele>763</ele>
        <time>2021-09-04T12:40:57Z</time>
      </trkpt>
      <trkpt lat="44.22687" lon="2.97699">
        <ele>770</ele>
        <time>2021-09-04T12:41:19Z</time>
      </trkpt>
      <trkpt lat="44.22698" lon="2.97713">
        <ele>771</ele>
        <time>2021-09-04T12:41:23Z</time>
      </trkpt>
      <trkpt lat="44.22711" lon="2.97724">
        <ele>771</ele>
        <time>2021-09-04T12:41:27Z</time>
      </trkpt>
      <trkpt lat="44.22822" lon="2.97754">
        <ele>772</ele>
        <time>2021-09-04T12:41:57Z</time>
      </trkpt>
      <trkpt lat="44.22875" lon="2.97774">
        <ele>773</ele>
        <time>2021-09-04T12:42:13Z</time>
      </trkpt>
      <trkpt lat="44.22975" lon="2.97847">
        <ele>771</ele>
        <time>2021-09-04T12:42:43Z</time>
      </trkpt>
      <trkpt lat="44.23001" lon="2.97863">
        <ele>768</ele>
        <time>2021-09-04T12:42:51Z</time>
      </trkpt>
      <trkpt lat="44.23013" lon="2.97877">
        <ele>768</ele>
        <time>2021-09-04T12:42:55Z</time>
      </trkpt>
      <trkpt lat="44.23033" lon="2.9791">
        <ele>767</ele>
        <time>2021-09-04T12:43:03Z</time>
      </trkpt>
      <trkpt lat="44.23086" lon="2.9797">
        <ele>770</ele>
        <time>2021-09-04T12:43:20Z</time>
      </trkpt>
      <trkpt lat="44.23106" lon="2.98026">
        <ele>772</ele>
        <time>2021-09-04T12:43:31Z</time>
      </trkpt>
      <trkpt lat="44.23107" lon="2.98042">
        <ele>775</ele>
        <time>2021-09-04T12:43:35Z</time>
      </trkpt>
      <trkpt lat="44.23106" lon="2.98051">
        <ele>777</ele>
        <time>2021-09-04T12:43:37Z</time>
      </trkpt>
      <trkpt lat="44.23106" lon="2.98079">
        <ele>780</ele>
        <time>2021-09-04T12:43:43Z</time>
      </trkpt>
      <trkpt lat="44.23106" lon="2.98088">
        <ele>780</ele>
        <time>2021-09-04T12:43:45Z</time>
      </trkpt>
      <trkpt lat="44.23108" lon="2.98096">
        <ele>781</ele>
        <time>2021-09-04T12:43:47Z</time>
      </trkpt>
      <trkpt lat="44.23109" lon="2.98103">
        <ele>782</ele>
        <time>2021-09-04T12:43:49Z</time>
      </trkpt>
      <trkpt lat="44.23113" lon="2.98162">
        <ele>788</ele>
        <time>2021-09-04T12:44:00Z</time>
      </trkpt>
      <trkpt lat="44.23121" lon="2.98195">
        <ele>791</ele>
        <time>2021-09-04T12:44:06Z</time>
      </trkpt>
      <trkpt lat="44.23128" lon="2.98212">
        <ele>792</ele>
        <time>2021-09-04T12:44:10Z</time>
      </trkpt>
      <trkpt lat="44.23153" lon="2.98267">
        <ele>792</ele>
        <time>2021-09-04T12:44:22Z</time>
      </trkpt>
      <trkpt lat="44.23158" lon="2.98285">
        <ele>794</ele>
        <time>2021-09-04T12:44:26Z</time>
      </trkpt>
      <trkpt lat="44.23163" lon="2.98305">
        <ele>797</ele>
        <time>2021-09-04T12:44:30Z</time>
      </trkpt>
      <trkpt lat="44.23172" lon="2.98329">
        <ele>801</ele>
        <time>2021-09-04T12:44:34Z</time>
      </trkpt>
      <trkpt lat="44.23194" lon="2.98354">
        <ele>805</ele>
        <time>2021-09-04T12:44:40Z</time>
      </trkpt>
      <trkpt lat="44.23199" lon="2.9836">
        <ele>806</ele>
        <time>2021-09-04T12:44:42Z</time>
      </trkpt>
      <trkpt lat="44.23204" lon="2.98365">
        <ele>806</ele>
        <time>2021-09-04T12:44:44Z</time>
      </trkpt>
      <trkpt lat="44.23236" lon="2.98385">
        <ele>810</ele>
        <time>2021-09-04T12:44:52Z</time>
      </trkpt>
      <trkpt lat="44.23241" lon="2.98391">
        <ele>811</ele>
        <time>2021-09-04T12:44:54Z</time>
      </trkpt>
      <trkpt lat="44.23244" lon="2.98401">
        <ele>811</ele>
        <time>2021-09-04T12:44:56Z</time>
      </trkpt>
      <trkpt lat="44.23246" lon="2.98407">
        <ele>811</ele>
        <time>2021-09-04T12:44:57Z</time>
      </trkpt>
      <trkpt lat="44.23248" lon="2.98414">
        <ele>810</ele>
        <time>2021-09-04T12:44:58Z</time>
      </trkpt>
      <trkpt lat="44.23255" lon="2.98428">
        <ele>802</ele>
        <time>2021-09-04T12:45:00Z</time>
      </trkpt>
      <trkpt lat="44.23258" lon="2.98433">
        <ele>799</ele>
        <time>2021-09-04T12:45:01Z</time>
      </trkpt>
      <trkpt lat="44.23318" lon="2.98531">
        <ele>796</ele>
        <time>2021-09-04T12:45:24Z</time>
      </trkpt>
      <trkpt lat="44.23331" lon="2.98546">
        <ele>795</ele>
        <time>2021-09-04T12:45:30Z</time>
      </trkpt>
      <trkpt lat="44.23342" lon="2.98552">
        <ele>795</ele>
        <time>2021-09-04T12:45:34Z</time>
      </trkpt>
      <trkpt lat="44.2344" lon="2.98562">
        <ele>798</ele>
        <time>2021-09-04T12:46:06Z</time>
      </trkpt>
      <trkpt lat="44.23528" lon="2.98573">
        <ele>797</ele>
        <time>2021-09-04T12:46:38Z</time>
      </trkpt>
      <trkpt lat="44.23561" lon="2.98577">
        <ele>797</ele>
        <time>2021-09-04T12:46:51Z</time>
      </trkpt>
      <trkpt lat="44.23565" lon="2.98578">
        <ele>797</ele>
        <time>2021-09-04T12:46:53Z</time>
      </trkpt>
      <trkpt lat="44.23636" lon="2.98557">
        <ele>800</ele>
        <time>2021-09-04T12:47:23Z</time>
      </trkpt>
      <trkpt lat="44.23655" lon="2.9855">
        <ele>802</ele>
        <time>2021-09-04T12:47:31Z</time>
      </trkpt>
      <trkpt lat="44.23661" lon="2.98551">
        <ele>803</ele>
        <time>2021-09-04T12:47:34Z</time>
      </trkpt>
      <trkpt lat="44.23665" lon="2.98559">
        <ele>805</ele>
        <time>2021-09-04T12:47:37Z</time>
      </trkpt>
      <trkpt lat="44.23675" lon="2.98569">
        <ele>808</ele>
        <time>2021-09-04T12:47:43Z</time>
      </trkpt>
      <trkpt lat="44.23695" lon="2.98569">
        <ele>808</ele>
        <time>2021-09-04T12:47:49Z</time>
      </trkpt>
      <trkpt lat="44.23711" lon="2.98573">
        <ele>807</ele>
        <time>2021-09-04T12:47:53Z</time>
      </trkpt>
      <trkpt lat="44.23827" lon="2.98585">
        <ele>800</ele>
        <time>2021-09-04T12:48:23Z</time>
      </trkpt>
      <trkpt lat="44.2388" lon="2.98567">
        <ele>798</ele>
        <time>2021-09-04T12:48:33Z</time>
      </trkpt>
      <trkpt lat="44.2391" lon="2.98554">
        <ele>794</ele>
        <time>2021-09-04T12:48:42Z</time>
      </trkpt>
      <trkpt lat="44.23916" lon="2.98551">
        <ele>794</ele>
        <time>2021-09-04T12:48:44Z</time>
      </trkpt>
      <trkpt lat="44.23921" lon="2.98529">
        <ele>796</ele>
        <time>2021-09-04T12:48:48Z</time>
      </trkpt>
      <trkpt lat="44.23921" lon="2.98519">
        <ele>796</ele>
        <time>2021-09-04T12:48:50Z</time>
      </trkpt>
      <trkpt lat="44.23915" lon="2.98481">
        <ele>798</ele>
        <time>2021-09-04T12:48:58Z</time>
      </trkpt>
      <trkpt lat="44.23918" lon="2.9848">
        <ele>806</ele>
        <time>2021-09-04T12:51:41Z</time>
      </trkpt>
      <trkpt lat="44.23918" lon="2.98478">
        <ele>816</ele>
        <time>2021-09-04T12:54:47Z</time>
      </trkpt>
      <trkpt lat="44.23915" lon="2.98472">
        <ele>822</ele>
        <time>2021-09-04T12:55:10Z</time>
      </trkpt>
      <trkpt lat="44.23914" lon="2.98478">
        <ele>823</ele>
        <time>2021-09-04T12:56:57Z</time>
      </trkpt>
      <trkpt lat="44.23915" lon="2.98486">
        <ele>820</ele>
        <time>2021-09-04T13:03:20Z</time>
      </trkpt>
      <trkpt lat="44.23919" lon="2.98486">
        <ele>820</ele>
        <time>2021-09-04T13:03:37Z</time>
      </trkpt>
      <trkpt lat="44.2392" lon="2.98486">
        <ele>822</ele>
        <time>2021-09-04T13:08:00Z</time>
      </trkpt>
      <trkpt lat="44.23915" lon="2.98482">
        <ele>827</ele>
        <time>2021-09-04T13:20:36Z</time>
      </trkpt>
      <trkpt lat="44.23913" lon="2.98488">
        <ele>826</ele>
        <time>2021-09-04T13:21:31Z</time>
      </trkpt>
      <trkpt lat="44.23911" lon="2.98495">
        <ele>825</ele>
        <time>2021-09-04T13:21:37Z</time>
      </trkpt>
      <trkpt lat="44.23914" lon="2.98502">
        <ele>825</ele>
        <time>2021-09-04T13:21:39Z</time>
      </trkpt>
      <trkpt lat="44.23917" lon="2.98509">
        <ele>824</ele>
        <time>2021-09-04T13:21:41Z</time>
      </trkpt>
      <trkpt lat="44.23917" lon="2.98526">
        <ele>823</ele>
        <time>2021-09-04T13:21:45Z</time>
      </trkpt>
      <trkpt lat="44.23916" lon="2.98535">
        <ele>822</ele>
        <time>2021-09-04T13:21:47Z</time>
      </trkpt>
      <trkpt lat="44.23918" lon="2.98541">
        <ele>822</ele>
        <time>2021-09-04T13:21:50Z</time>
      </trkpt>
      <trkpt lat="44.23922" lon="2.98546">
        <ele>822</ele>
        <time>2021-09-04T13:21:53Z</time>
      </trkpt>
      <trkpt lat="44.24015" lon="2.98529">
        <ele>820</ele>
        <time>2021-09-04T13:22:24Z</time>
      </trkpt>
      <trkpt lat="44.24103" lon="2.9853">
        <ele>821</ele>
        <time>2021-09-04T13:22:56Z</time>
      </trkpt>
      <trkpt lat="44.24169" lon="2.98474">
        <ele>828</ele>
        <time>2021-09-04T13:23:28Z</time>
      </trkpt>
      <trkpt lat="44.24237" lon="2.98427">
        <ele>833</ele>
        <time>2021-09-04T13:23:59Z</time>
      </trkpt>
      <trkpt lat="44.24304" lon="2.98387">
        <ele>837</ele>
        <time>2021-09-04T13:24:29Z</time>
      </trkpt>
      <trkpt lat="44.24375" lon="2.98356">
        <ele>843</ele>
        <time>2021-09-04T13:25:00Z</time>
      </trkpt>
      <trkpt lat="44.24447" lon="2.98349">
        <ele>843</ele>
        <time>2021-09-04T13:25:31Z</time>
      </trkpt>
      <trkpt lat="44.24519" lon="2.9837">
        <ele>844</ele>
        <time>2021-09-04T13:26:02Z</time>
      </trkpt>
      <trkpt lat="44.24591" lon="2.98373">
        <ele>848</ele>
        <time>2021-09-04T13:26:32Z</time>
      </trkpt>
      <trkpt lat="44.24666" lon="2.98371">
        <ele>852</ele>
        <time>2021-09-04T13:27:04Z</time>
      </trkpt>
      <trkpt lat="44.24702" lon="2.98382">
        <ele>853</ele>
        <time>2021-09-04T13:27:18Z</time>
      </trkpt>
      <trkpt lat="44.24722" lon="2.98395">
        <ele>855</ele>
        <time>2021-09-04T13:27:26Z</time>
      </trkpt>
      <trkpt lat="44.24734" lon="2.98409">
        <ele>855</ele>
        <time>2021-09-04T13:27:32Z</time>
      </trkpt>
      <trkpt lat="44.24738" lon="2.98413">
        <ele>855</ele>
        <time>2021-09-04T13:27:34Z</time>
      </trkpt>
      <trkpt lat="44.24794" lon="2.98495">
        <ele>859</ele>
        <time>2021-09-04T13:28:04Z</time>
      </trkpt>
      <trkpt lat="44.24807" lon="2.98512">
        <ele>861</ele>
        <time>2021-09-04T13:28:12Z</time>
      </trkpt>
      <trkpt lat="44.24821" lon="2.98526">
        <ele>863</ele>
        <time>2021-09-04T13:28:20Z</time>
      </trkpt>
      <trkpt lat="44.2484" lon="2.98533">
        <ele>866</ele>
        <time>2021-09-04T13:28:29Z</time>
      </trkpt>
      <trkpt lat="44.24898" lon="2.98515">
        <ele>870</ele>
        <time>2021-09-04T13:28:59Z</time>
      </trkpt>
      <trkpt lat="44.24952" lon="2.98465">
        <ele>882</ele>
        <time>2021-09-04T13:29:30Z</time>
      </trkpt>
      <trkpt lat="44.24992" lon="2.98444">
        <ele>888</ele>
        <time>2021-09-04T13:29:50Z</time>
      </trkpt>
      <trkpt lat="44.25019" lon="2.98439">
        <ele>890</ele>
        <time>2021-09-04T13:30:02Z</time>
      </trkpt>
      <trkpt lat="44.25026" lon="2.98438">
        <ele>889</ele>
        <time>2021-09-04T13:30:05Z</time>
      </trkpt>
      <trkpt lat="44.25037" lon="2.98438">
        <ele>891</ele>
        <time>2021-09-04T13:30:10Z</time>
      </trkpt>
      <trkpt lat="44.25052" lon="2.98443">
        <ele>892</ele>
        <time>2021-09-04T13:30:16Z</time>
      </trkpt>
      <trkpt lat="44.25085" lon="2.98454">
        <ele>895</ele>
        <time>2021-09-04T13:30:30Z</time>
      </trkpt>
      <trkpt lat="44.25147" lon="2.98488">
        <ele>897</ele>
        <time>2021-09-04T13:30:57Z</time>
      </trkpt>
      <trkpt lat="44.25221" lon="2.9849">
        <ele>902</ele>
        <time>2021-09-04T13:31:27Z</time>
      </trkpt>
      <trkpt lat="44.25293" lon="2.98466">
        <ele>906</ele>
        <time>2021-09-04T13:31:57Z</time>
      </trkpt>
      <trkpt lat="44.25368" lon="2.98437">
        <ele>911</ele>
        <time>2021-09-04T13:32:29Z</time>
      </trkpt>
      <trkpt lat="44.25421" lon="2.98366">
        <ele>917</ele>
        <time>2021-09-04T13:32:59Z</time>
      </trkpt>
      <trkpt lat="44.25406" lon="2.9825">
        <ele>921</ele>
        <time>2021-09-04T13:33:29Z</time>
      </trkpt>
      <trkpt lat="44.25408" lon="2.9812">
        <ele>916</ele>
        <time>2021-09-04T13:33:59Z</time>
      </trkpt>
      <trkpt lat="44.25417" lon="2.98086">
        <ele>913</ele>
        <time>2021-09-04T13:34:51Z</time>
      </trkpt>
      <trkpt lat="44.25418" lon="2.9807">
        <ele>914</ele>
        <time>2021-09-04T13:34:55Z</time>
      </trkpt>
      <trkpt lat="44.25424" lon="2.98041">
        <ele>915</ele>
        <time>2021-09-04T13:35:01Z</time>
      </trkpt>
      <trkpt lat="44.25459" lon="2.97959">
        <ele>913</ele>
        <time>2021-09-04T13:35:17Z</time>
      </trkpt>
      <trkpt lat="44.25477" lon="2.97931">
        <ele>912</ele>
        <time>2021-09-04T13:35:22Z</time>
      </trkpt>
      <trkpt lat="44.25489" lon="2.97917">
        <ele>911</ele>
        <time>2021-09-04T13:35:25Z</time>
      </trkpt>
      <trkpt lat="44.25507" lon="2.97905">
        <ele>911</ele>
        <time>2021-09-04T13:35:29Z</time>
      </trkpt>
      <trkpt lat="44.25582" lon="2.97881">
        <ele>911</ele>
        <time>2021-09-04T13:35:41Z</time>
      </trkpt>
      <trkpt lat="44.25612" lon="2.97854">
        <ele>911</ele>
        <time>2021-09-04T13:35:47Z</time>
      </trkpt>
      <trkpt lat="44.25638" lon="2.9782">
        <ele>909</ele>
        <time>2021-09-04T13:35:53Z</time>
      </trkpt>
      <trkpt lat="44.25686" lon="2.97726">
        <ele>904</ele>
        <time>2021-09-04T13:36:06Z</time>
      </trkpt>
      <trkpt lat="44.25701" lon="2.97708">
        <ele>904</ele>
        <time>2021-09-04T13:36:09Z</time>
      </trkpt>
      <trkpt lat="44.25799" lon="2.97636">
        <ele>909</ele>
        <time>2021-09-04T13:36:25Z</time>
      </trkpt>
      <trkpt lat="44.25823" lon="2.97599">
        <ele>909</ele>
        <time>2021-09-04T13:36:30Z</time>
      </trkpt>
      <trkpt lat="44.25875" lon="2.97506">
        <ele>907</ele>
        <time>2021-09-04T13:36:42Z</time>
      </trkpt>
      <trkpt lat="44.25883" lon="2.97495">
        <ele>907</ele>
        <time>2021-09-04T13:36:44Z</time>
      </trkpt>
      <trkpt lat="44.25934" lon="2.97458">
        <ele>906</ele>
        <time>2021-09-04T13:36:51Z</time>
      </trkpt>
      <trkpt lat="44.25962" lon="2.97455">
        <ele>905</ele>
        <time>2021-09-04T13:36:54Z</time>
      </trkpt>
      <trkpt lat="44.26029" lon="2.97462">
        <ele>901</ele>
        <time>2021-09-04T13:37:01Z</time>
      </trkpt>
      <trkpt lat="44.26095" lon="2.97438">
        <ele>898</ele>
        <time>2021-09-04T13:37:08Z</time>
      </trkpt>
      <trkpt lat="44.26265" lon="2.97365">
        <ele>888</ele>
        <time>2021-09-04T13:37:25Z</time>
      </trkpt>
      <trkpt lat="44.26482" lon="2.97344">
        <ele>885</ele>
        <time>2021-09-04T13:37:53Z</time>
      </trkpt>
      <trkpt lat="44.26507" lon="2.97325">
        <ele>885</ele>
        <time>2021-09-04T13:37:57Z</time>
      </trkpt>
      <trkpt lat="44.26549" lon="2.97281">
        <ele>886</ele>
        <time>2021-09-04T13:38:06Z</time>
      </trkpt>
      <trkpt lat="44.26579" lon="2.97267">
        <ele>889</ele>
        <time>2021-09-04T13:38:14Z</time>
      </trkpt>
      <trkpt lat="44.26665" lon="2.97283">
        <ele>894</ele>
        <time>2021-09-04T13:38:44Z</time>
      </trkpt>
      <trkpt lat="44.26745" lon="2.97298">
        <ele>897</ele>
        <time>2021-09-04T13:39:14Z</time>
      </trkpt>
      <trkpt lat="44.26811" lon="2.97308">
        <ele>903</ele>
        <time>2021-09-04T13:39:42Z</time>
      </trkpt>
      <trkpt lat="44.2684" lon="2.97294">
        <ele>905</ele>
        <time>2021-09-04T13:39:55Z</time>
      </trkpt>
      <trkpt lat="44.26869" lon="2.97277">
        <ele>908</ele>
        <time>2021-09-04T13:40:07Z</time>
      </trkpt>
      <trkpt lat="44.26874" lon="2.97275">
        <ele>908</ele>
        <time>2021-09-04T13:40:09Z</time>
      </trkpt>
      <trkpt lat="44.26879" lon="2.97273">
        <ele>909</ele>
        <time>2021-09-04T13:40:11Z</time>
      </trkpt>
      <trkpt lat="44.26884" lon="2.97269">
        <ele>909</ele>
        <time>2021-09-04T13:40:13Z</time>
      </trkpt>
      <trkpt lat="44.26949" lon="2.97229">
        <ele>912</ele>
        <time>2021-09-04T13:40:43Z</time>
      </trkpt>
      <trkpt lat="44.26994" lon="2.97198">
        <ele>917</ele>
        <time>2021-09-04T13:41:03Z</time>
      </trkpt>
      <trkpt lat="44.27023" lon="2.97166">
        <ele>920</ele>
        <time>2021-09-04T13:41:17Z</time>
      </trkpt>
      <trkpt lat="44.27066" lon="2.97083">
        <ele>925</ele>
        <time>2021-09-04T13:41:47Z</time>
      </trkpt>
      <trkpt lat="44.27108" lon="2.97007">
        <ele>931</ele>
        <time>2021-09-04T13:42:19Z</time>
      </trkpt>
      <trkpt lat="44.27151" lon="2.96927">
        <ele>932</ele>
        <time>2021-09-04T13:42:51Z</time>
      </trkpt>
      <trkpt lat="44.27164" lon="2.96892">
        <ele>934</ele>
        <time>2021-09-04T13:43:03Z</time>
      </trkpt>
      <trkpt lat="44.27166" lon="2.96886">
        <ele>934</ele>
        <time>2021-09-04T13:43:05Z</time>
      </trkpt>
      <trkpt lat="44.27173" lon="2.96862">
        <ele>935</ele>
        <time>2021-09-04T13:43:14Z</time>
      </trkpt>
      <trkpt lat="44.27205" lon="2.96775">
        <ele>941</ele>
        <time>2021-09-04T13:43:44Z</time>
      </trkpt>
      <trkpt lat="44.2723" lon="2.96708">
        <ele>944</ele>
        <time>2021-09-04T13:44:08Z</time>
      </trkpt>
      <trkpt lat="44.27238" lon="2.96697">
        <ele>945</ele>
        <time>2021-09-04T13:44:13Z</time>
      </trkpt>
      <trkpt lat="44.27266" lon="2.96676">
        <ele>945</ele>
        <time>2021-09-04T13:44:26Z</time>
      </trkpt>
      <trkpt lat="44.2727" lon="2.96674">
        <ele>945</ele>
        <time>2021-09-04T13:44:28Z</time>
      </trkpt>
      <trkpt lat="44.27275" lon="2.96673">
        <ele>946</ele>
        <time>2021-09-04T13:44:30Z</time>
      </trkpt>
      <trkpt lat="44.2728" lon="2.96671">
        <ele>947</ele>
        <time>2021-09-04T13:44:32Z</time>
      </trkpt>
      <trkpt lat="44.2729" lon="2.96669">
        <ele>951</ele>
        <time>2021-09-04T13:44:36Z</time>
      </trkpt>
      <trkpt lat="44.27305" lon="2.96669">
        <ele>955</ele>
        <time>2021-09-04T13:44:43Z</time>
      </trkpt>
      <trkpt lat="44.27372" lon="2.9669">
        <ele>963</ele>
        <time>2021-09-04T13:45:13Z</time>
      </trkpt>
      <trkpt lat="44.27378" lon="2.96691">
        <ele>963</ele>
        <time>2021-09-04T13:45:16Z</time>
      </trkpt>
      <trkpt lat="44.27406" lon="2.96688">
        <ele>963</ele>
        <time>2021-09-04T13:45:28Z</time>
      </trkpt>
      <trkpt lat="44.2746" lon="2.96659">
        <ele>962</ele>
        <time>2021-09-04T13:45:52Z</time>
      </trkpt>
      <trkpt lat="44.275" lon="2.96631">
        <ele>961</ele>
        <time>2021-09-04T13:46:15Z</time>
      </trkpt>
      <trkpt lat="44.27512" lon="2.96623">
        <ele>962</ele>
        <time>2021-09-04T13:46:21Z</time>
      </trkpt>
      <trkpt lat="44.27579" lon="2.96575">
        <ele>960</ele>
        <time>2021-09-04T13:46:52Z</time>
      </trkpt>
      <trkpt lat="44.27639" lon="2.96528">
        <ele>965</ele>
        <time>2021-09-04T13:47:23Z</time>
      </trkpt>
      <trkpt lat="44.27652" lon="2.96515">
        <ele>967</ele>
        <time>2021-09-04T13:47:29Z</time>
      </trkpt>
      <trkpt lat="44.27685" lon="2.96469">
        <ele>972</ele>
        <time>2021-09-04T13:47:47Z</time>
      </trkpt>
      <trkpt lat="44.2769" lon="2.96464">
        <ele>972</ele>
        <time>2021-09-04T13:47:50Z</time>
      </trkpt>
      <trkpt lat="44.27694" lon="2.96462">
        <ele>973</ele>
        <time>2021-09-04T13:47:53Z</time>
      </trkpt>
      <trkpt lat="44.27699" lon="2.96447">
        <ele>975</ele>
        <time>2021-09-04T13:47:59Z</time>
      </trkpt>
      <trkpt lat="44.27701" lon="2.96441">
        <ele>975</ele>
        <time>2021-09-04T13:48:02Z</time>
      </trkpt>
      <trkpt lat="44.27701" lon="2.96442">
        <ele>977</ele>
        <time>2021-09-04T13:54:23Z</time>
      </trkpt>
      <trkpt lat="44.27708" lon="2.96456">
        <ele>976</ele>
        <time>2021-09-04T13:54:27Z</time>
      </trkpt>
      <trkpt lat="44.27789" lon="2.96533">
        <ele>976</ele>
        <time>2021-09-04T13:54:57Z</time>
      </trkpt>
      <trkpt lat="44.278" lon="2.9654">
        <ele>977</ele>
        <time>2021-09-04T13:55:01Z</time>
      </trkpt>
      <trkpt lat="44.27892" lon="2.96578">
        <ele>979</ele>
        <time>2021-09-04T13:55:33Z</time>
      </trkpt>
      <trkpt lat="44.2798" lon="2.96602">
        <ele>984</ele>
        <time>2021-09-04T13:56:03Z</time>
      </trkpt>
      <trkpt lat="44.28097" lon="2.96621">
        <ele>987</ele>
        <time>2021-09-04T13:56:33Z</time>
      </trkpt>
      <trkpt lat="44.2812" lon="2.96621">
        <ele>988</ele>
        <time>2021-09-04T13:56:39Z</time>
      </trkpt>
      <trkpt lat="44.28136" lon="2.96618">
        <ele>988</ele>
        <time>2021-09-04T13:56:43Z</time>
      </trkpt>
      <trkpt lat="44.28157" lon="2.96601">
        <ele>989</ele>
        <time>2021-09-04T13:56:49Z</time>
      </trkpt>
      <trkpt lat="44.28235" lon="2.96475">
        <ele>994</ele>
        <time>2021-09-04T13:57:21Z</time>
      </trkpt>
      <trkpt lat="44.28257" lon="2.96446">
        <ele>995</ele>
        <time>2021-09-04T13:57:29Z</time>
      </trkpt>
      <trkpt lat="44.28291" lon="2.96419">
        <ele>996</ele>
        <time>2021-09-04T13:57:39Z</time>
      </trkpt>
      <trkpt lat="44.28304" lon="2.96409">
        <ele>996</ele>
        <time>2021-09-04T13:57:43Z</time>
      </trkpt>
      <trkpt lat="44.28316" lon="2.96398">
        <ele>997</ele>
        <time>2021-09-04T13:57:47Z</time>
      </trkpt>
      <trkpt lat="44.28321" lon="2.9639">
        <ele>997</ele>
        <time>2021-09-04T13:57:49Z</time>
      </trkpt>
      <trkpt lat="44.28325" lon="2.96381">
        <ele>997</ele>
        <time>2021-09-04T13:57:51Z</time>
      </trkpt>
      <trkpt lat="44.28327" lon="2.9636">
        <ele>997</ele>
        <time>2021-09-04T13:57:55Z</time>
      </trkpt>
      <trkpt lat="44.28324" lon="2.96251">
        <ele>997</ele>
        <time>2021-09-04T13:58:15Z</time>
      </trkpt>
      <trkpt lat="44.28327" lon="2.9623">
        <ele>997</ele>
        <time>2021-09-04T13:58:19Z</time>
      </trkpt>
      <trkpt lat="44.28335" lon="2.96211">
        <ele>997</ele>
        <time>2021-09-04T13:58:23Z</time>
      </trkpt>
      <trkpt lat="44.28347" lon="2.96197">
        <ele>998</ele>
        <time>2021-09-04T13:58:27Z</time>
      </trkpt>
      <trkpt lat="44.28368" lon="2.96184">
        <ele>998</ele>
        <time>2021-09-04T13:58:33Z</time>
      </trkpt>
      <trkpt lat="44.28406" lon="2.96172">
        <ele>1000</ele>
        <time>2021-09-04T13:58:43Z</time>
      </trkpt>
      <trkpt lat="44.28415" lon="2.96168">
        <ele>1000</ele>
        <time>2021-09-04T13:58:45Z</time>
      </trkpt>
      <trkpt lat="44.28422" lon="2.96161">
        <ele>1000</ele>
        <time>2021-09-04T13:58:47Z</time>
      </trkpt>
      <trkpt lat="44.28428" lon="2.96142">
        <ele>1000</ele>
        <time>2021-09-04T13:58:51Z</time>
      </trkpt>
      <trkpt lat="44.28427" lon="2.96128">
        <ele>1000</ele>
        <time>2021-09-04T13:58:53Z</time>
      </trkpt>
      <trkpt lat="44.28419" lon="2.96096">
        <ele>1002</ele>
        <time>2021-09-04T13:58:59Z</time>
      </trkpt>
      <trkpt lat="44.28408" lon="2.96065">
        <ele>1003</ele>
        <time>2021-09-04T13:59:05Z</time>
      </trkpt>
      <trkpt lat="44.28399" lon="2.96037">
        <ele>1004</ele>
        <time>2021-09-04T13:59:10Z</time>
      </trkpt>
      <trkpt lat="44.28396" lon="2.96014">
        <ele>1005</ele>
        <time>2021-09-04T13:59:14Z</time>
      </trkpt>
      <trkpt lat="44.28398" lon="2.95981">
        <ele>1006</ele>
        <time>2021-09-04T13:59:20Z</time>
      </trkpt>
      <trkpt lat="44.28408" lon="2.95938">
        <ele>1007</ele>
        <time>2021-09-04T13:59:28Z</time>
      </trkpt>
      <trkpt lat="44.28409" lon="2.95928">
        <ele>1008</ele>
        <time>2021-09-04T13:59:30Z</time>
      </trkpt>
      <trkpt lat="44.28409" lon="2.95916">
        <ele>1008</ele>
        <time>2021-09-04T13:59:32Z</time>
      </trkpt>
      <trkpt lat="44.28406" lon="2.95905">
        <ele>1008</ele>
        <time>2021-09-04T13:59:34Z</time>
      </trkpt>
      <trkpt lat="44.28401" lon="2.95896">
        <ele>1008</ele>
        <time>2021-09-04T13:59:36Z</time>
      </trkpt>
      <trkpt lat="44.28359" lon="2.95861">
        <ele>1009</ele>
        <time>2021-09-04T13:59:48Z</time>
      </trkpt>
      <trkpt lat="44.28348" lon="2.95845">
        <ele>1009</ele>
        <time>2021-09-04T13:59:52Z</time>
      </trkpt>
      <trkpt lat="44.28344" lon="2.95835">
        <ele>1009</ele>
        <time>2021-09-04T13:59:54Z</time>
      </trkpt>
      <trkpt lat="44.2834" lon="2.95814">
        <ele>1010</ele>
        <time>2021-09-04T13:59:58Z</time>
      </trkpt>
      <trkpt lat="44.28342" lon="2.95781">
        <ele>1011</ele>
        <time>2021-09-04T14:00:04Z</time>
      </trkpt>
      <trkpt lat="44.28369" lon="2.95669">
        <ele>1002</ele>
        <time>2021-09-04T14:00:26Z</time>
      </trkpt>
      <trkpt lat="44.28382" lon="2.95639">
        <ele>1003</ele>
        <time>2021-09-04T14:00:32Z</time>
      </trkpt>
      <trkpt lat="44.28405" lon="2.95606">
        <ele>1005</ele>
        <time>2021-09-04T14:00:40Z</time>
      </trkpt>
      <trkpt lat="44.28427" lon="2.95576">
        <ele>1004</ele>
        <time>2021-09-04T14:00:48Z</time>
      </trkpt>
      <trkpt lat="44.28465" lon="2.95488">
        <ele>1005</ele>
        <time>2021-09-04T14:01:06Z</time>
      </trkpt>
      <trkpt lat="44.28477" lon="2.95472">
        <ele>1007</ele>
        <time>2021-09-04T14:01:10Z</time>
      </trkpt>
      <trkpt lat="44.28505" lon="2.9545">
        <ele>1008</ele>
        <time>2021-09-04T14:01:18Z</time>
      </trkpt>
      <trkpt lat="44.28527" lon="2.9544">
        <ele>1010</ele>
        <time>2021-09-04T14:01:24Z</time>
      </trkpt>
      <trkpt lat="44.28535" lon="2.95437">
        <ele>1010</ele>
        <time>2021-09-04T14:01:26Z</time>
      </trkpt>
      <trkpt lat="44.28598" lon="2.95406">
        <ele>1014</ele>
        <time>2021-09-04T14:01:42Z</time>
      </trkpt>
      <trkpt lat="44.28618" lon="2.95386">
        <ele>1014</ele>
        <time>2021-09-04T14:01:48Z</time>
      </trkpt>
      <trkpt lat="44.28644" lon="2.9535">
        <ele>1014</ele>
        <time>2021-09-04T14:01:58Z</time>
      </trkpt>
      <trkpt lat="44.28648" lon="2.95342">
        <ele>1013</ele>
        <time>2021-09-04T14:02:00Z</time>
      </trkpt>
      <trkpt lat="44.28652" lon="2.95333">
        <ele>1012</ele>
        <time>2021-09-04T14:02:02Z</time>
      </trkpt>
      <trkpt lat="44.28657" lon="2.95327">
        <ele>1012</ele>
        <time>2021-09-04T14:02:04Z</time>
      </trkpt>
      <trkpt lat="44.28661" lon="2.95321">
        <ele>1010</ele>
        <time>2021-09-04T14:02:06Z</time>
      </trkpt>
      <trkpt lat="44.2867" lon="2.95304">
        <ele>1010</ele>
        <time>2021-09-04T14:02:10Z</time>
      </trkpt>
      <trkpt lat="44.28675" lon="2.95296">
        <ele>1009</ele>
        <time>2021-09-04T14:02:12Z</time>
      </trkpt>
      <trkpt lat="44.28681" lon="2.95286">
        <ele>1007</ele>
        <time>2021-09-04T14:02:14Z</time>
      </trkpt>
      <trkpt lat="44.28707" lon="2.95254">
        <ele>1003</ele>
        <time>2021-09-04T14:02:22Z</time>
      </trkpt>
      <trkpt lat="44.28805" lon="2.95165">
        <ele>1012</ele>
        <time>2021-09-04T14:02:50Z</time>
      </trkpt>
      <trkpt lat="44.28819" lon="2.95163">
        <ele>1013</ele>
        <time>2021-09-04T14:02:54Z</time>
      </trkpt>
      <trkpt lat="44.28826" lon="2.95165">
        <ele>1013</ele>
        <time>2021-09-04T14:02:56Z</time>
      </trkpt>
      <trkpt lat="44.28839" lon="2.95176">
        <ele>1013</ele>
        <time>2021-09-04T14:03:00Z</time>
      </trkpt>
      <trkpt lat="44.2892" lon="2.9535">
        <ele>1011</ele>
        <time>2021-09-04T14:03:24Z</time>
      </trkpt>
      <trkpt lat="44.28937" lon="2.95424">
        <ele>1009</ele>
        <time>2021-09-04T14:03:31Z</time>
      </trkpt>
      <trkpt lat="44.28941" lon="2.95432">
        <ele>1009</ele>
        <time>2021-09-04T14:03:32Z</time>
      </trkpt>
      <trkpt lat="44.28949" lon="2.95439">
        <ele>1009</ele>
        <time>2021-09-04T14:03:33Z</time>
      </trkpt>
      <trkpt lat="44.28958" lon="2.95443">
        <ele>1008</ele>
        <time>2021-09-04T14:03:34Z</time>
      </trkpt>
      <trkpt lat="44.28975" lon="2.95442">
        <ele>1006</ele>
        <time>2021-09-04T14:03:36Z</time>
      </trkpt>
      <trkpt lat="44.28992" lon="2.95434">
        <ele>1005</ele>
        <time>2021-09-04T14:03:38Z</time>
      </trkpt>
      <trkpt lat="44.29086" lon="2.95359">
        <ele>1002</ele>
        <time>2021-09-04T14:03:50Z</time>
      </trkpt>
      <trkpt lat="44.29104" lon="2.95352">
        <ele>1001</ele>
        <time>2021-09-04T14:03:52Z</time>
      </trkpt>
      <trkpt lat="44.29148" lon="2.95352">
        <ele>998</ele>
        <time>2021-09-04T14:03:57Z</time>
      </trkpt>
      <trkpt lat="44.29166" lon="2.95356">
        <ele>997</ele>
        <time>2021-09-04T14:03:59Z</time>
      </trkpt>
      <trkpt lat="44.29183" lon="2.95366">
        <ele>996</ele>
        <time>2021-09-04T14:04:01Z</time>
      </trkpt>
      <trkpt lat="44.29198" lon="2.9538">
        <ele>996</ele>
        <time>2021-09-04T14:04:03Z</time>
      </trkpt>
      <trkpt lat="44.2921" lon="2.95399">
        <ele>995</ele>
        <time>2021-09-04T14:04:05Z</time>
      </trkpt>
      <trkpt lat="44.29218" lon="2.9542">
        <ele>994</ele>
        <time>2021-09-04T14:04:07Z</time>
      </trkpt>
      <trkpt lat="44.29222" lon="2.95445">
        <ele>993</ele>
        <time>2021-09-04T14:04:09Z</time>
      </trkpt>
      <trkpt lat="44.29222" lon="2.95483">
        <ele>989</ele>
        <time>2021-09-04T14:04:12Z</time>
      </trkpt>
      <trkpt lat="44.29217" lon="2.95521">
        <ele>987</ele>
        <time>2021-09-04T14:04:15Z</time>
      </trkpt>
      <trkpt lat="44.29217" lon="2.95533">
        <ele>986</ele>
        <time>2021-09-04T14:04:16Z</time>
      </trkpt>
      <trkpt lat="44.29222" lon="2.95557">
        <ele>985</ele>
        <time>2021-09-04T14:04:18Z</time>
      </trkpt>
      <trkpt lat="44.29236" lon="2.95585">
        <ele>985</ele>
        <time>2021-09-04T14:04:21Z</time>
      </trkpt>
      <trkpt lat="44.2925" lon="2.956">
        <ele>985</ele>
        <time>2021-09-04T14:04:23Z</time>
      </trkpt>
      <trkpt lat="44.29259" lon="2.95605">
        <ele>986</ele>
        <time>2021-09-04T14:04:24Z</time>
      </trkpt>
      <trkpt lat="44.29277" lon="2.9561">
        <ele>987</ele>
        <time>2021-09-04T14:04:26Z</time>
      </trkpt>
      <trkpt lat="44.29287" lon="2.95609">
        <ele>989</ele>
        <time>2021-09-04T14:04:27Z</time>
      </trkpt>
      <trkpt lat="44.29427" lon="2.95521">
        <ele>993</ele>
        <time>2021-09-04T14:04:58Z</time>
      </trkpt>
      <trkpt lat="44.29434" lon="2.95514">
        <ele>992</ele>
        <time>2021-09-04T14:05:00Z</time>
      </trkpt>
      <trkpt lat="44.29447" lon="2.95497">
        <ele>992</ele>
        <time>2021-09-04T14:05:04Z</time>
      </trkpt>
      <trkpt lat="44.29492" lon="2.95374">
        <ele>995</ele>
        <time>2021-09-04T14:05:28Z</time>
      </trkpt>
      <trkpt lat="44.29535" lon="2.95305">
        <ele>993</ele>
        <time>2021-09-04T14:05:43Z</time>
      </trkpt>
      <trkpt lat="44.29566" lon="2.9528">
        <ele>993</ele>
        <time>2021-09-04T14:05:51Z</time>
      </trkpt>
      <trkpt lat="44.29588" lon="2.95271">
        <ele>993</ele>
        <time>2021-09-04T14:05:56Z</time>
      </trkpt>
      <trkpt lat="44.29615" lon="2.95269">
        <ele>993</ele>
        <time>2021-09-04T14:06:02Z</time>
      </trkpt>
      <trkpt lat="44.29644" lon="2.95276">
        <ele>994</ele>
        <time>2021-09-04T14:06:08Z</time>
      </trkpt>
      <trkpt lat="44.29661" lon="2.95288">
        <ele>994</ele>
        <time>2021-09-04T14:06:12Z</time>
      </trkpt>
      <trkpt lat="44.29682" lon="2.95308">
        <ele>994</ele>
        <time>2021-09-04T14:06:17Z</time>
      </trkpt>
      <trkpt lat="44.29719" lon="2.95352">
        <ele>993</ele>
        <time>2021-09-04T14:06:26Z</time>
      </trkpt>
      <trkpt lat="44.29741" lon="2.95367">
        <ele>993</ele>
        <time>2021-09-04T14:06:30Z</time>
      </trkpt>
      <trkpt lat="44.29846" lon="2.95403">
        <ele>989</ele>
        <time>2021-09-04T14:06:46Z</time>
      </trkpt>
      <trkpt lat="44.29868" lon="2.95428">
        <ele>988</ele>
        <time>2021-09-04T14:06:50Z</time>
      </trkpt>
      <trkpt lat="44.29933" lon="2.95513">
        <ele>983</ele>
        <time>2021-09-04T14:07:02Z</time>
      </trkpt>
      <trkpt lat="44.30094" lon="2.95601">
        <ele>974</ele>
        <time>2021-09-04T14:07:22Z</time>
      </trkpt>
      <trkpt lat="44.30161" lon="2.95641">
        <ele>971</ele>
        <time>2021-09-04T14:07:31Z</time>
      </trkpt>
      <trkpt lat="44.30174" lon="2.95644">
        <ele>971</ele>
        <time>2021-09-04T14:07:33Z</time>
      </trkpt>
      <trkpt lat="44.30179" lon="2.95648">
        <ele>971</ele>
        <time>2021-09-04T14:07:34Z</time>
      </trkpt>
      <trkpt lat="44.30182" lon="2.95654">
        <ele>971</ele>
        <time>2021-09-04T14:07:35Z</time>
      </trkpt>
      <trkpt lat="44.30185" lon="2.95667">
        <ele>971</ele>
        <time>2021-09-04T14:07:37Z</time>
      </trkpt>
      <trkpt lat="44.30184" lon="2.95684">
        <ele>970</ele>
        <time>2021-09-04T14:07:39Z</time>
      </trkpt>
      <trkpt lat="44.30174" lon="2.95722">
        <ele>971</ele>
        <time>2021-09-04T14:07:44Z</time>
      </trkpt>
      <trkpt lat="44.3017" lon="2.95729">
        <ele>970</ele>
        <time>2021-09-04T14:07:46Z</time>
      </trkpt>
      <trkpt lat="44.30169" lon="2.95735">
        <ele>970</ele>
        <time>2021-09-04T14:07:59Z</time>
      </trkpt>
      <trkpt lat="44.30138" lon="2.95783">
        <ele>969</ele>
        <time>2021-09-04T14:08:12Z</time>
      </trkpt>
      <trkpt lat="44.30123" lon="2.95797">
        <ele>968</ele>
        <time>2021-09-04T14:08:15Z</time>
      </trkpt>
      <trkpt lat="44.30088" lon="2.95811">
        <ele>966</ele>
        <time>2021-09-04T14:08:21Z</time>
      </trkpt>
      <trkpt lat="44.30058" lon="2.95835">
        <ele>966</ele>
        <time>2021-09-04T14:08:26Z</time>
      </trkpt>
      <trkpt lat="44.30048" lon="2.95848">
        <ele>965</ele>
        <time>2021-09-04T14:08:28Z</time>
      </trkpt>
      <trkpt lat="44.30028" lon="2.95912">
        <ele>959</ele>
        <time>2021-09-04T14:08:38Z</time>
      </trkpt>
      <trkpt lat="44.30018" lon="2.95923">
        <ele>958</ele>
        <time>2021-09-04T14:08:40Z</time>
      </trkpt>
      <trkpt lat="44.30008" lon="2.9593">
        <ele>957</ele>
        <time>2021-09-04T14:08:42Z</time>
      </trkpt>
      <trkpt lat="44.29986" lon="2.95935">
        <ele>954</ele>
        <time>2021-09-04T14:08:47Z</time>
      </trkpt>
      <trkpt lat="44.29973" lon="2.95943">
        <ele>954</ele>
        <time>2021-09-04T14:08:48Z</time>
      </trkpt>
      <trkpt lat="44.29968" lon="2.95949">
        <ele>954</ele>
        <time>2021-09-04T14:08:49Z</time>
      </trkpt>
      <trkpt lat="44.29962" lon="2.95982">
        <ele>954</ele>
        <time>2021-09-04T14:08:53Z</time>
      </trkpt>
      <trkpt lat="44.29962" lon="2.96002">
        <ele>952</ele>
        <time>2021-09-04T14:08:55Z</time>
      </trkpt>
      <trkpt lat="44.29965" lon="2.96013">
        <ele>952</ele>
        <time>2021-09-04T14:08:56Z</time>
      </trkpt>
      <trkpt lat="44.29985" lon="2.96022">
        <ele>951</ele>
        <time>2021-09-04T14:08:59Z</time>
      </trkpt>
      <trkpt lat="44.29991" lon="2.96028">
        <ele>951</ele>
        <time>2021-09-04T14:09:00Z</time>
      </trkpt>
      <trkpt lat="44.29994" lon="2.96036">
        <ele>951</ele>
        <time>2021-09-04T14:09:01Z</time>
      </trkpt>
      <trkpt lat="44.29997" lon="2.96046">
        <ele>951</ele>
        <time>2021-09-04T14:09:02Z</time>
      </trkpt>
      <trkpt lat="44.29992" lon="2.96077">
        <ele>951</ele>
        <time>2021-09-04T14:09:05Z</time>
      </trkpt>
      <trkpt lat="44.29979" lon="2.96113">
        <ele>949</ele>
        <time>2021-09-04T14:09:09Z</time>
      </trkpt>
      <trkpt lat="44.29977" lon="2.96133">
        <ele>947</ele>
        <time>2021-09-04T14:09:11Z</time>
      </trkpt>
      <trkpt lat="44.29994" lon="2.96274">
        <ele>944</ele>
        <time>2021-09-04T14:09:25Z</time>
      </trkpt>
      <trkpt lat="44.29989" lon="2.96302">
        <ele>943</ele>
        <time>2021-09-04T14:09:28Z</time>
      </trkpt>
      <trkpt lat="44.29976" lon="2.9634">
        <ele>941</ele>
        <time>2021-09-04T14:09:33Z</time>
      </trkpt>
      <trkpt lat="44.29973" lon="2.96371">
        <ele>940</ele>
        <time>2021-09-04T14:09:36Z</time>
      </trkpt>
      <trkpt lat="44.29973" lon="2.96402">
        <ele>940</ele>
        <time>2021-09-04T14:09:39Z</time>
      </trkpt>
      <trkpt lat="44.29963" lon="2.96487">
        <ele>938</ele>
        <time>2021-09-04T14:09:47Z</time>
      </trkpt>
      <trkpt lat="44.29978" lon="2.96553">
        <ele>936</ele>
        <time>2021-09-04T14:09:55Z</time>
      </trkpt>
      <trkpt lat="44.29989" lon="2.96572">
        <ele>935</ele>
        <time>2021-09-04T14:09:58Z</time>
      </trkpt>
      <trkpt lat="44.29993" lon="2.96575">
        <ele>934</ele>
        <time>2021-09-04T14:09:59Z</time>
      </trkpt>
      <trkpt lat="44.29999" lon="2.96578">
        <ele>933</ele>
        <time>2021-09-04T14:10:00Z</time>
      </trkpt>
      <trkpt lat="44.30006" lon="2.9658">
        <ele>932</ele>
        <time>2021-09-04T14:10:01Z</time>
      </trkpt>
      <trkpt lat="44.30023" lon="2.96576">
        <ele>934</ele>
        <time>2021-09-04T14:10:04Z</time>
      </trkpt>
      <trkpt lat="44.30028" lon="2.96569">
        <ele>935</ele>
        <time>2021-09-04T14:10:06Z</time>
      </trkpt>
      <trkpt lat="44.3003" lon="2.96564">
        <ele>937</ele>
        <time>2021-09-04T14:10:08Z</time>
      </trkpt>
      <trkpt lat="44.30033" lon="2.96559">
        <ele>937</ele>
        <time>2021-09-04T14:10:11Z</time>
      </trkpt>
      <trkpt lat="44.30034" lon="2.96551">
        <ele>937</ele>
        <time>2021-09-04T14:11:03Z</time>
      </trkpt>
      <trkpt lat="44.30045" lon="2.96485">
        <ele>935</ele>
        <time>2021-09-04T14:11:16Z</time>
      </trkpt>
      <trkpt lat="44.30054" lon="2.96468">
        <ele>934</ele>
        <time>2021-09-04T14:11:19Z</time>
      </trkpt>
      <trkpt lat="44.30107" lon="2.96403">
        <ele>930</ele>
        <time>2021-09-04T14:11:31Z</time>
      </trkpt>
      <trkpt lat="44.30123" lon="2.96395">
        <ele>929</ele>
        <time>2021-09-04T14:11:34Z</time>
      </trkpt>
      <trkpt lat="44.30135" lon="2.96393">
        <ele>928</ele>
        <time>2021-09-04T14:11:36Z</time>
      </trkpt>
      <trkpt lat="44.30158" lon="2.96403">
        <ele>926</ele>
        <time>2021-09-04T14:11:40Z</time>
      </trkpt>
      <trkpt lat="44.30209" lon="2.96439">
        <ele>923</ele>
        <time>2021-09-04T14:11:49Z</time>
      </trkpt>
      <trkpt lat="44.30214" lon="2.96443">
        <ele>922</ele>
        <time>2021-09-04T14:11:50Z</time>
      </trkpt>
      <trkpt lat="44.30245" lon="2.96469">
        <ele>920</ele>
        <time>2021-09-04T14:11:55Z</time>
      </trkpt>
      <trkpt lat="44.30304" lon="2.96493">
        <ele>918</ele>
        <time>2021-09-04T14:12:04Z</time>
      </trkpt>
      <trkpt lat="44.30329" lon="2.96519">
        <ele>918</ele>
        <time>2021-09-04T14:12:08Z</time>
      </trkpt>
      <trkpt lat="44.30342" lon="2.96542">
        <ele>918</ele>
        <time>2021-09-04T14:12:11Z</time>
      </trkpt>
      <trkpt lat="44.30352" lon="2.96569">
        <ele>918</ele>
        <time>2021-09-04T14:12:14Z</time>
      </trkpt>
      <trkpt lat="44.30366" lon="2.9665">
        <ele>921</ele>
        <time>2021-09-04T14:12:22Z</time>
      </trkpt>
      <trkpt lat="44.3037" lon="2.9667">
        <ele>924</ele>
        <time>2021-09-04T14:12:24Z</time>
      </trkpt>
      <trkpt lat="44.30369" lon="2.96739">
        <ele>929</ele>
        <time>2021-09-04T14:12:32Z</time>
      </trkpt>
      <trkpt lat="44.3036" lon="2.96781">
        <ele>929</ele>
        <time>2021-09-04T14:12:37Z</time>
      </trkpt>
      <trkpt lat="44.30337" lon="2.96849">
        <ele>929</ele>
        <time>2021-09-04T14:12:46Z</time>
      </trkpt>
      <trkpt lat="44.30318" lon="2.96885">
        <ele>929</ele>
        <time>2021-09-04T14:12:52Z</time>
      </trkpt>
      <trkpt lat="44.30274" lon="2.96928">
        <ele>928</ele>
        <time>2021-09-04T14:13:01Z</time>
      </trkpt>
      <trkpt lat="44.3024" lon="2.96976">
        <ele>928</ele>
        <time>2021-09-04T14:13:10Z</time>
      </trkpt>
      <trkpt lat="44.30223" lon="2.96991">
        <ele>927</ele>
        <time>2021-09-04T14:13:14Z</time>
      </trkpt>
      <trkpt lat="44.30214" lon="2.96998">
        <ele>927</ele>
        <time>2021-09-04T14:13:16Z</time>
      </trkpt>
      <trkpt lat="44.30194" lon="2.9702">
        <ele>927</ele>
        <time>2021-09-04T14:13:21Z</time>
      </trkpt>
      <trkpt lat="44.30152" lon="2.97063">
        <ele>926</ele>
        <time>2021-09-04T14:13:30Z</time>
      </trkpt>
      <trkpt lat="44.30096" lon="2.97122">
        <ele>926</ele>
        <time>2021-09-04T14:13:42Z</time>
      </trkpt>
      <trkpt lat="44.30087" lon="2.97152">
        <ele>925</ele>
        <time>2021-09-04T14:13:46Z</time>
      </trkpt>
      <trkpt lat="44.30084" lon="2.97174">
        <ele>924</ele>
        <time>2021-09-04T14:13:49Z</time>
      </trkpt>
      <trkpt lat="44.30086" lon="2.97199">
        <ele>925</ele>
        <time>2021-09-04T14:13:53Z</time>
      </trkpt>
      <trkpt lat="44.30103" lon="2.97256">
        <ele>926</ele>
        <time>2021-09-04T14:14:03Z</time>
      </trkpt>
      <trkpt lat="44.30157" lon="2.97367">
        <ele>919</ele>
        <time>2021-09-04T14:14:20Z</time>
      </trkpt>
      <trkpt lat="44.30162" lon="2.97384">
        <ele>918</ele>
        <time>2021-09-04T14:14:22Z</time>
      </trkpt>
      <trkpt lat="44.30165" lon="2.97404">
        <ele>918</ele>
        <time>2021-09-04T14:14:24Z</time>
      </trkpt>
      <trkpt lat="44.30161" lon="2.97443">
        <ele>916</ele>
        <time>2021-09-04T14:14:28Z</time>
      </trkpt>
      <trkpt lat="44.30156" lon="2.9746">
        <ele>915</ele>
        <time>2021-09-04T14:14:30Z</time>
      </trkpt>
      <trkpt lat="44.30153" lon="2.97467">
        <ele>915</ele>
        <time>2021-09-04T14:14:31Z</time>
      </trkpt>
      <trkpt lat="44.30143" lon="2.97479">
        <ele>915</ele>
        <time>2021-09-04T14:14:33Z</time>
      </trkpt>
      <trkpt lat="44.30138" lon="2.97483">
        <ele>914</ele>
        <time>2021-09-04T14:14:34Z</time>
      </trkpt>
      <trkpt lat="44.3012" lon="2.97493">
        <ele>913</ele>
        <time>2021-09-04T14:14:37Z</time>
      </trkpt>
      <trkpt lat="44.30114" lon="2.97497">
        <ele>913</ele>
        <time>2021-09-04T14:14:38Z</time>
      </trkpt>
      <trkpt lat="44.30109" lon="2.97504">
        <ele>912</ele>
        <time>2021-09-04T14:14:39Z</time>
      </trkpt>
      <trkpt lat="44.30107" lon="2.97512">
        <ele>911</ele>
        <time>2021-09-04T14:14:40Z</time>
      </trkpt>
      <trkpt lat="44.30109" lon="2.97522">
        <ele>911</ele>
        <time>2021-09-04T14:14:41Z</time>
      </trkpt>
      <trkpt lat="44.30142" lon="2.97597">
        <ele>909</ele>
        <time>2021-09-04T14:14:50Z</time>
      </trkpt>
      <trkpt lat="44.30144" lon="2.97618">
        <ele>910</ele>
        <time>2021-09-04T14:14:52Z</time>
      </trkpt>
      <trkpt lat="44.30142" lon="2.97656">
        <ele>910</ele>
        <time>2021-09-04T14:14:56Z</time>
      </trkpt>
      <trkpt lat="44.30143" lon="2.97664">
        <ele>909</ele>
        <time>2021-09-04T14:14:57Z</time>
      </trkpt>
      <trkpt lat="44.30147" lon="2.97672">
        <ele>908</ele>
        <time>2021-09-04T14:14:58Z</time>
      </trkpt>
      <trkpt lat="44.30152" lon="2.97678">
        <ele>908</ele>
        <time>2021-09-04T14:14:59Z</time>
      </trkpt>
      <trkpt lat="44.30165" lon="2.97684">
        <ele>907</ele>
        <time>2021-09-04T14:15:01Z</time>
      </trkpt>
      <trkpt lat="44.3018" lon="2.97684">
        <ele>907</ele>
        <time>2021-09-04T14:15:03Z</time>
      </trkpt>
      <trkpt lat="44.30247" lon="2.97656">
        <ele>904</ele>
        <time>2021-09-04T14:15:12Z</time>
      </trkpt>
      <trkpt lat="44.30323" lon="2.97606">
        <ele>899</ele>
        <time>2021-09-04T14:15:23Z</time>
      </trkpt>
      <trkpt lat="44.30365" lon="2.97554">
        <ele>895</ele>
        <time>2021-09-04T14:15:30Z</time>
      </trkpt>
      <trkpt lat="44.30497" lon="2.97356">
        <ele>887</ele>
        <time>2021-09-04T14:15:56Z</time>
      </trkpt>
      <trkpt lat="44.30523" lon="2.9733">
        <ele>885</ele>
        <time>2021-09-04T14:16:00Z</time>
      </trkpt>
      <trkpt lat="44.30596" lon="2.97287">
        <ele>879</ele>
        <time>2021-09-04T14:16:10Z</time>
      </trkpt>
      <trkpt lat="44.30613" lon="2.97266">
        <ele>878</ele>
        <time>2021-09-04T14:16:13Z</time>
      </trkpt>
      <trkpt lat="44.30662" lon="2.97173">
        <ele>872</ele>
        <time>2021-09-04T14:16:24Z</time>
      </trkpt>
      <trkpt lat="44.30677" lon="2.97133">
        <ele>871</ele>
        <time>2021-09-04T14:16:28Z</time>
      </trkpt>
      <trkpt lat="44.30693" lon="2.97108">
        <ele>870</ele>
        <time>2021-09-04T14:16:31Z</time>
      </trkpt>
      <trkpt lat="44.30728" lon="2.97067">
        <ele>868</ele>
        <time>2021-09-04T14:16:37Z</time>
      </trkpt>
      <trkpt lat="44.30762" lon="2.96983">
        <ele>866</ele>
        <time>2021-09-04T14:16:46Z</time>
      </trkpt>
      <trkpt lat="44.30781" lon="2.96938">
        <ele>865</ele>
        <time>2021-09-04T14:16:51Z</time>
      </trkpt>
      <trkpt lat="44.30916" lon="2.96696">
        <ele>853</ele>
        <time>2021-09-04T14:17:20Z</time>
      </trkpt>
      <trkpt lat="44.30943" lon="2.96672">
        <ele>851</ele>
        <time>2021-09-04T14:17:24Z</time>
      </trkpt>
      <trkpt lat="44.30958" lon="2.96662">
        <ele>850</ele>
        <time>2021-09-04T14:17:26Z</time>
      </trkpt>
      <trkpt lat="44.31115" lon="2.96607">
        <ele>841</ele>
        <time>2021-09-04T14:17:45Z</time>
      </trkpt>
      <trkpt lat="44.31137" lon="2.9659">
        <ele>839</ele>
        <time>2021-09-04T14:17:48Z</time>
      </trkpt>
      <trkpt lat="44.31156" lon="2.9657">
        <ele>838</ele>
        <time>2021-09-04T14:17:51Z</time>
      </trkpt>
      <trkpt lat="44.31176" lon="2.96561">
        <ele>836</ele>
        <time>2021-09-04T14:17:54Z</time>
      </trkpt>
      <trkpt lat="44.31246" lon="2.96555">
        <ele>832</ele>
        <time>2021-09-04T14:18:03Z</time>
      </trkpt>
      <trkpt lat="44.31294" lon="2.96575">
        <ele>830</ele>
        <time>2021-09-04T14:18:10Z</time>
      </trkpt>
      <trkpt lat="44.31313" lon="2.96587">
        <ele>828</ele>
        <time>2021-09-04T14:18:13Z</time>
      </trkpt>
      <trkpt lat="44.31376" lon="2.96666">
        <ele>820</ele>
        <time>2021-09-04T14:18:28Z</time>
      </trkpt>
      <trkpt lat="44.31386" lon="2.96687">
        <ele>820</ele>
        <time>2021-09-04T14:18:32Z</time>
      </trkpt>
      <trkpt lat="44.31391" lon="2.96702">
        <ele>819</ele>
        <time>2021-09-04T14:18:34Z</time>
      </trkpt>
      <trkpt lat="44.31394" lon="2.96735">
        <ele>818</ele>
        <time>2021-09-04T14:18:38Z</time>
      </trkpt>
      <trkpt lat="44.31394" lon="2.96744">
        <ele>817</ele>
        <time>2021-09-04T14:18:39Z</time>
      </trkpt>
      <trkpt lat="44.31387" lon="2.96768">
        <ele>816</ele>
        <time>2021-09-04T14:18:42Z</time>
      </trkpt>
      <trkpt lat="44.31349" lon="2.96827">
        <ele>814</ele>
        <time>2021-09-04T14:18:50Z</time>
      </trkpt>
      <trkpt lat="44.31335" lon="2.96842">
        <ele>814</ele>
        <time>2021-09-04T14:18:53Z</time>
      </trkpt>
      <trkpt lat="44.31325" lon="2.96849">
        <ele>813</ele>
        <time>2021-09-04T14:18:55Z</time>
      </trkpt>
      <trkpt lat="44.313" lon="2.96854">
        <ele>810</ele>
        <time>2021-09-04T14:18:59Z</time>
      </trkpt>
      <trkpt lat="44.31278" lon="2.96853">
        <ele>808</ele>
        <time>2021-09-04T14:19:02Z</time>
      </trkpt>
      <trkpt lat="44.31263" lon="2.96857">
        <ele>806</ele>
        <time>2021-09-04T14:19:04Z</time>
      </trkpt>
      <trkpt lat="44.31252" lon="2.96871">
        <ele>805</ele>
        <time>2021-09-04T14:19:06Z</time>
      </trkpt>
      <trkpt lat="44.31248" lon="2.96878">
        <ele>804</ele>
        <time>2021-09-04T14:19:07Z</time>
      </trkpt>
      <trkpt lat="44.31244" lon="2.96903">
        <ele>803</ele>
        <time>2021-09-04T14:19:10Z</time>
      </trkpt>
      <trkpt lat="44.31243" lon="2.96916">
        <ele>802</ele>
        <time>2021-09-04T14:19:12Z</time>
      </trkpt>
      <trkpt lat="44.31239" lon="2.96932">
        <ele>801</ele>
        <time>2021-09-04T14:19:14Z</time>
      </trkpt>
      <trkpt lat="44.31234" lon="2.9694">
        <ele>800</ele>
        <time>2021-09-04T14:19:15Z</time>
      </trkpt>
      <trkpt lat="44.31211" lon="2.96965">
        <ele>795</ele>
        <time>2021-09-04T14:19:19Z</time>
      </trkpt>
      <trkpt lat="44.31192" lon="2.96976">
        <ele>791</ele>
        <time>2021-09-04T14:19:23Z</time>
      </trkpt>
      <trkpt lat="44.31186" lon="2.96982">
        <ele>789</ele>
        <time>2021-09-04T14:19:25Z</time>
      </trkpt>
      <trkpt lat="44.31184" lon="2.96991">
        <ele>787</ele>
        <time>2021-09-04T14:19:27Z</time>
      </trkpt>
      <trkpt lat="44.31181" lon="2.97003">
        <ele>786</ele>
        <time>2021-09-04T14:19:29Z</time>
      </trkpt>
      <trkpt lat="44.31179" lon="2.97009">
        <ele>787</ele>
        <time>2021-09-04T14:19:30Z</time>
      </trkpt>
      <trkpt lat="44.31187" lon="2.97038">
        <ele>787</ele>
        <time>2021-09-04T14:19:36Z</time>
      </trkpt>
      <trkpt lat="44.3119" lon="2.97042">
        <ele>786</ele>
        <time>2021-09-04T14:19:37Z</time>
      </trkpt>
      <trkpt lat="44.31194" lon="2.97048">
        <ele>786</ele>
        <time>2021-09-04T14:19:38Z</time>
      </trkpt>
      <trkpt lat="44.31196" lon="2.97055">
        <ele>786</ele>
        <time>2021-09-04T14:19:39Z</time>
      </trkpt>
      <trkpt lat="44.31197" lon="2.97063">
        <ele>786</ele>
        <time>2021-09-04T14:19:40Z</time>
      </trkpt>
      <trkpt lat="44.31194" lon="2.97089">
        <ele>785</ele>
        <time>2021-09-04T14:19:43Z</time>
      </trkpt>
      <trkpt lat="44.31194" lon="2.97105">
        <ele>785</ele>
        <time>2021-09-04T14:19:45Z</time>
      </trkpt>
      <trkpt lat="44.31237" lon="2.97221">
        <ele>786</ele>
        <time>2021-09-04T14:20:00Z</time>
      </trkpt>
      <trkpt lat="44.3124" lon="2.97241">
        <ele>786</ele>
        <time>2021-09-04T14:20:02Z</time>
      </trkpt>
      <trkpt lat="44.3126" lon="2.97332">
        <ele>782</ele>
        <time>2021-09-04T14:20:10Z</time>
      </trkpt>
      <trkpt lat="44.3126" lon="2.97369">
        <ele>778</ele>
        <time>2021-09-04T14:20:13Z</time>
      </trkpt>
      <trkpt lat="44.31287" lon="2.97571">
        <ele>774</ele>
        <time>2021-09-04T14:20:32Z</time>
      </trkpt>
      <trkpt lat="44.31287" lon="2.97578">
        <ele>774</ele>
        <time>2021-09-04T14:20:33Z</time>
      </trkpt>
      <trkpt lat="44.31293" lon="2.97586">
        <ele>776</ele>
        <time>2021-09-04T14:20:35Z</time>
      </trkpt>
      <trkpt lat="44.31299" lon="2.97588">
        <ele>777</ele>
        <time>2021-09-04T14:20:37Z</time>
      </trkpt>
      <trkpt lat="44.31358" lon="2.97529">
        <ele>774</ele>
        <time>2021-09-04T14:20:50Z</time>
      </trkpt>
      <trkpt lat="44.3137" lon="2.97508">
        <ele>773</ele>
        <time>2021-09-04T14:20:53Z</time>
      </trkpt>
      <trkpt lat="44.31382" lon="2.97455">
        <ele>770</ele>
        <time>2021-09-04T14:20:59Z</time>
      </trkpt>
      <trkpt lat="44.31385" lon="2.97448">
        <ele>769</ele>
        <time>2021-09-04T14:21:00Z</time>
      </trkpt>
      <trkpt lat="44.31389" lon="2.97442">
        <ele>769</ele>
        <time>2021-09-04T14:21:01Z</time>
      </trkpt>
      <trkpt lat="44.31394" lon="2.97437">
        <ele>768</ele>
        <time>2021-09-04T14:21:02Z</time>
      </trkpt>
      <trkpt lat="44.314" lon="2.97434">
        <ele>768</ele>
        <time>2021-09-04T14:21:03Z</time>
      </trkpt>
      <trkpt lat="44.31405" lon="2.97434">
        <ele>767</ele>
        <time>2021-09-04T14:21:04Z</time>
      </trkpt>
      <trkpt lat="44.3141" lon="2.97437">
        <ele>767</ele>
        <time>2021-09-04T14:21:05Z</time>
      </trkpt>
      <trkpt lat="44.31415" lon="2.97444">
        <ele>766</ele>
        <time>2021-09-04T14:21:06Z</time>
      </trkpt>
      <trkpt lat="44.31419" lon="2.97462">
        <ele>766</ele>
        <time>2021-09-04T14:21:08Z</time>
      </trkpt>
      <trkpt lat="44.3142" lon="2.97487">
        <ele>766</ele>
        <time>2021-09-04T14:21:12Z</time>
      </trkpt>
      <trkpt lat="44.31422" lon="2.97498">
        <ele>766</ele>
        <time>2021-09-04T14:21:14Z</time>
      </trkpt>
      <trkpt lat="44.31427" lon="2.97531">
        <ele>764</ele>
        <time>2021-09-04T14:21:22Z</time>
      </trkpt>
      <trkpt lat="44.3143" lon="2.97553">
        <ele>761</ele>
        <time>2021-09-04T14:21:31Z</time>
      </trkpt>
      <trkpt lat="44.31427" lon="2.9757">
        <ele>760</ele>
        <time>2021-09-04T14:21:54Z</time>
      </trkpt>
      <trkpt lat="44.31426" lon="2.97579">
        <ele>761</ele>
        <time>2021-09-04T14:21:56Z</time>
      </trkpt>
      <trkpt lat="44.31426" lon="2.9759">
        <ele>761</ele>
        <time>2021-09-04T14:21:58Z</time>
      </trkpt>
      <trkpt lat="44.31429" lon="2.976">
        <ele>761</ele>
        <time>2021-09-04T14:22:00Z</time>
      </trkpt>
      <trkpt lat="44.31433" lon="2.97603">
        <ele>760</ele>
        <time>2021-09-04T14:22:01Z</time>
      </trkpt>
      <trkpt lat="44.31438" lon="2.97603">
        <ele>760</ele>
        <time>2021-09-04T14:22:02Z</time>
      </trkpt>
      <trkpt lat="44.31443" lon="2.97601">
        <ele>759</ele>
        <time>2021-09-04T14:22:03Z</time>
      </trkpt>
      <trkpt lat="44.31447" lon="2.97597">
        <ele>759</ele>
        <time>2021-09-04T14:22:04Z</time>
      </trkpt>
      <trkpt lat="44.31452" lon="2.97581">
        <ele>758</ele>
        <time>2021-09-04T14:22:07Z</time>
      </trkpt>
      <trkpt lat="44.31479" lon="2.97266">
        <ele>735</ele>
        <time>2021-09-04T14:22:37Z</time>
      </trkpt>
      <trkpt lat="44.31478" lon="2.97244">
        <ele>733</ele>
        <time>2021-09-04T14:22:39Z</time>
      </trkpt>
      <trkpt lat="44.31476" lon="2.97236">
        <ele>732</ele>
        <time>2021-09-04T14:22:40Z</time>
      </trkpt>
      <trkpt lat="44.31474" lon="2.97228">
        <ele>732</ele>
        <time>2021-09-04T14:22:41Z</time>
      </trkpt>
      <trkpt lat="44.31469" lon="2.97221">
        <ele>732</ele>
        <time>2021-09-04T14:22:42Z</time>
      </trkpt>
      <trkpt lat="44.31463" lon="2.97216">
        <ele>732</ele>
        <time>2021-09-04T14:22:43Z</time>
      </trkpt>
      <trkpt lat="44.31456" lon="2.97213">
        <ele>731</ele>
        <time>2021-09-04T14:22:44Z</time>
      </trkpt>
      <trkpt lat="44.31448" lon="2.97213">
        <ele>731</ele>
        <time>2021-09-04T14:22:45Z</time>
      </trkpt>
      <trkpt lat="44.31429" lon="2.97226">
        <ele>728</ele>
        <time>2021-09-04T14:22:48Z</time>
      </trkpt>
      <trkpt lat="44.31425" lon="2.9723">
        <ele>728</ele>
        <time>2021-09-04T14:22:49Z</time>
      </trkpt>
      <trkpt lat="44.31418" lon="2.97236">
        <ele>727</ele>
        <time>2021-09-04T14:22:51Z</time>
      </trkpt>
      <trkpt lat="44.31411" lon="2.97235">
        <ele>726</ele>
        <time>2021-09-04T14:22:53Z</time>
      </trkpt>
      <trkpt lat="44.3141" lon="2.97222">
        <ele>725</ele>
        <time>2021-09-04T14:22:55Z</time>
      </trkpt>
      <trkpt lat="44.31425" lon="2.97205">
        <ele>724</ele>
        <time>2021-09-04T14:22:58Z</time>
      </trkpt>
      <trkpt lat="44.31454" lon="2.97186">
        <ele>722</ele>
        <time>2021-09-04T14:23:02Z</time>
      </trkpt>
      <trkpt lat="44.31471" lon="2.9718">
        <ele>720</ele>
        <time>2021-09-04T14:23:05Z</time>
      </trkpt>
      <trkpt lat="44.31486" lon="2.97184">
        <ele>718</ele>
        <time>2021-09-04T14:23:08Z</time>
      </trkpt>
      <trkpt lat="44.31504" lon="2.97201">
        <ele>714</ele>
        <time>2021-09-04T14:23:11Z</time>
      </trkpt>
      <trkpt lat="44.31553" lon="2.97272">
        <ele>716</ele>
        <time>2021-09-04T14:23:20Z</time>
      </trkpt>
      <trkpt lat="44.31571" lon="2.97294">
        <ele>715</ele>
        <time>2021-09-04T14:23:23Z</time>
      </trkpt>
      <trkpt lat="44.31584" lon="2.97305">
        <ele>712</ele>
        <time>2021-09-04T14:23:25Z</time>
      </trkpt>
      <trkpt lat="44.31616" lon="2.9732">
        <ele>707</ele>
        <time>2021-09-04T14:23:29Z</time>
      </trkpt>
      <trkpt lat="44.31736" lon="2.97338">
        <ele>700</ele>
        <time>2021-09-04T14:23:44Z</time>
      </trkpt>
      <trkpt lat="44.31883" lon="2.97319">
        <ele>687</ele>
        <time>2021-09-04T14:24:17Z</time>
      </trkpt>
      <trkpt lat="44.31894" lon="2.97313">
        <ele>686</ele>
        <time>2021-09-04T14:24:21Z</time>
      </trkpt>
      <trkpt lat="44.31929" lon="2.97286">
        <ele>684</ele>
        <time>2021-09-04T14:24:31Z</time>
      </trkpt>
      <trkpt lat="44.31938" lon="2.97281">
        <ele>683</ele>
        <time>2021-09-04T14:24:33Z</time>
      </trkpt>
      <trkpt lat="44.31969" lon="2.97249">
        <ele>680</ele>
        <time>2021-09-04T14:24:41Z</time>
      </trkpt>
      <trkpt lat="44.32079" lon="2.97106">
        <ele>666</ele>
        <time>2021-09-04T14:25:03Z</time>
      </trkpt>
      <trkpt lat="44.32163" lon="2.9701">
        <ele>661</ele>
        <time>2021-09-04T14:25:20Z</time>
      </trkpt>
      <trkpt lat="44.32261" lon="2.96848">
        <ele>661</ele>
        <time>2021-09-04T14:25:50Z</time>
      </trkpt>
      <trkpt lat="44.32275" lon="2.96826">
        <ele>661</ele>
        <time>2021-09-04T14:25:54Z</time>
      </trkpt>
      <trkpt lat="44.32287" lon="2.96812">
        <ele>661</ele>
        <time>2021-09-04T14:25:57Z</time>
      </trkpt>
      <trkpt lat="44.32308" lon="2.96801">
        <ele>660</ele>
        <time>2021-09-04T14:26:04Z</time>
      </trkpt>
      <trkpt lat="44.32372" lon="2.96779">
        <ele>658</ele>
        <time>2021-09-04T14:26:12Z</time>
      </trkpt>
      <trkpt lat="44.32399" lon="2.96785">
        <ele>657</ele>
        <time>2021-09-04T14:26:16Z</time>
      </trkpt>
      <trkpt lat="44.32431" lon="2.96799">
        <ele>658</ele>
        <time>2021-09-04T14:26:21Z</time>
      </trkpt>
      <trkpt lat="44.32462" lon="2.96799">
        <ele>657</ele>
        <time>2021-09-04T14:26:26Z</time>
      </trkpt>
      <trkpt lat="44.3248" lon="2.96793">
        <ele>656</ele>
        <time>2021-09-04T14:26:29Z</time>
      </trkpt>
      <trkpt lat="44.3254" lon="2.9675">
        <ele>655</ele>
        <time>2021-09-04T14:26:41Z</time>
      </trkpt>
      <trkpt lat="44.32571" lon="2.96741">
        <ele>653</ele>
        <time>2021-09-04T14:26:46Z</time>
      </trkpt>
      <trkpt lat="44.32687" lon="2.96757">
        <ele>649</ele>
        <time>2021-09-04T14:27:04Z</time>
      </trkpt>
      <trkpt lat="44.32733" lon="2.96779">
        <ele>648</ele>
        <time>2021-09-04T14:27:11Z</time>
      </trkpt>
      <trkpt lat="44.32864" lon="2.96875">
        <ele>643</ele>
        <time>2021-09-04T14:27:34Z</time>
      </trkpt>
      <trkpt lat="44.32907" lon="2.96933">
        <ele>643</ele>
        <time>2021-09-04T14:27:45Z</time>
      </trkpt>
      <trkpt lat="44.32917" lon="2.96939">
        <ele>643</ele>
        <time>2021-09-04T14:27:47Z</time>
      </trkpt>
      <trkpt lat="44.32987" lon="2.96956">
        <ele>645</ele>
        <time>2021-09-04T14:28:00Z</time>
      </trkpt>
      <trkpt lat="44.33005" lon="2.96954">
        <ele>645</ele>
        <time>2021-09-04T14:28:04Z</time>
      </trkpt>
      <trkpt lat="44.33022" lon="2.96948">
        <ele>646</ele>
        <time>2021-09-04T14:28:08Z</time>
      </trkpt>
      <trkpt lat="44.3304" lon="2.96931">
        <ele>646</ele>
        <time>2021-09-04T14:28:13Z</time>
      </trkpt>
      <trkpt lat="44.33073" lon="2.96879">
        <ele>647</ele>
        <time>2021-09-04T14:28:26Z</time>
      </trkpt>
      <trkpt lat="44.33085" lon="2.96868">
        <ele>647</ele>
        <time>2021-09-04T14:28:30Z</time>
      </trkpt>
      <trkpt lat="44.33106" lon="2.96861">
        <ele>648</ele>
        <time>2021-09-04T14:28:36Z</time>
      </trkpt>
      <trkpt lat="44.33126" lon="2.96864">
        <ele>648</ele>
        <time>2021-09-04T14:28:42Z</time>
      </trkpt>
      <trkpt lat="44.3319" lon="2.96881">
        <ele>651</ele>
        <time>2021-09-04T14:28:58Z</time>
      </trkpt>
      <trkpt lat="44.33214" lon="2.96883">
        <ele>652</ele>
        <time>2021-09-04T14:29:04Z</time>
      </trkpt>
      <trkpt lat="44.33271" lon="2.96871">
        <ele>649</ele>
        <time>2021-09-04T14:29:16Z</time>
      </trkpt>
      <trkpt lat="44.33362" lon="2.96893">
        <ele>645</ele>
        <time>2021-09-04T14:29:28Z</time>
      </trkpt>
      <trkpt lat="44.33482" lon="2.96944">
        <ele>638</ele>
        <time>2021-09-04T14:29:48Z</time>
      </trkpt>
      <trkpt lat="44.33534" lon="2.96979">
        <ele>638</ele>
        <time>2021-09-04T14:29:58Z</time>
      </trkpt>
      <trkpt lat="44.33668" lon="2.9704">
        <ele>634</ele>
        <time>2021-09-04T14:30:19Z</time>
      </trkpt>
      <trkpt lat="44.33684" lon="2.97043">
        <ele>634</ele>
        <time>2021-09-04T14:30:21Z</time>
      </trkpt>
      <trkpt lat="44.33701" lon="2.97039">
        <ele>633</ele>
        <time>2021-09-04T14:30:23Z</time>
      </trkpt>
      <trkpt lat="44.33742" lon="2.97022">
        <ele>632</ele>
        <time>2021-09-04T14:30:28Z</time>
      </trkpt>
      <trkpt lat="44.33758" lon="2.97018">
        <ele>631</ele>
        <time>2021-09-04T14:30:30Z</time>
      </trkpt>
      <trkpt lat="44.33884" lon="2.97033">
        <ele>629</ele>
        <time>2021-09-04T14:30:54Z</time>
      </trkpt>
      <trkpt lat="44.33888" lon="2.97033">
        <ele>629</ele>
        <time>2021-09-04T14:30:55Z</time>
      </trkpt>
      <trkpt lat="44.3391" lon="2.97021">
        <ele>626</ele>
        <time>2021-09-04T14:31:01Z</time>
      </trkpt>
      <trkpt lat="44.33914" lon="2.97017">
        <ele>625</ele>
        <time>2021-09-04T14:31:03Z</time>
      </trkpt>
      <trkpt lat="44.33923" lon="2.97007">
        <ele>624</ele>
        <time>2021-09-04T14:31:07Z</time>
      </trkpt>
      <trkpt lat="44.33926" lon="2.97">
        <ele>624</ele>
        <time>2021-09-04T14:31:09Z</time>
      </trkpt>
      <trkpt lat="44.33975" lon="2.96908">
        <ele>629</ele>
        <time>2021-09-04T14:31:37Z</time>
      </trkpt>
      <trkpt lat="44.33978" lon="2.96903">
        <ele>628</ele>
        <time>2021-09-04T14:31:39Z</time>
      </trkpt>
      <trkpt lat="44.33983" lon="2.96899">
        <ele>628</ele>
        <time>2021-09-04T14:31:42Z</time>
      </trkpt>
      <trkpt lat="44.34019" lon="2.96918">
        <ele>629</ele>
        <time>2021-09-04T14:32:02Z</time>
      </trkpt>
      <trkpt lat="44.34024" lon="2.96917">
        <ele>630</ele>
        <time>2021-09-04T14:32:05Z</time>
      </trkpt>
      <trkpt lat="44.34028" lon="2.96912">
        <ele>631</ele>
        <time>2021-09-04T14:32:09Z</time>
      </trkpt>
      <trkpt lat="44.34049" lon="2.96916">
        <ele>641</ele>
        <time>2021-09-04T14:33:33Z</time>
      </trkpt>
      <trkpt lat="44.34053" lon="2.96909">
        <ele>642</ele>
        <time>2021-09-04T14:33:37Z</time>
      </trkpt>
      <trkpt lat="44.34044" lon="2.96912">
        <ele>654</ele>
        <time>2021-09-04T14:33:41Z</time>
      </trkpt>
      <trkpt lat="44.34039" lon="2.9691">
        <ele>653</ele>
        <time>2021-09-04T14:34:45Z</time>
      </trkpt>
      <trkpt lat="44.34035" lon="2.96911">
        <ele>652</ele>
        <time>2021-09-04T14:35:51Z</time>
      </trkpt>
      <trkpt lat="44.34031" lon="2.96914">
        <ele>651</ele>
        <time>2021-09-04T14:38:42Z</time>
      </trkpt>
      <trkpt lat="44.34029" lon="2.96908">
        <ele>647</ele>
        <time>2021-09-04T14:51:36Z</time>
      </trkpt>
    </trkseg>
  </trk>
</gpx>